GFSGL_sfc_dewp_000.txt.gz
Dewpoint
18 15 14 14 13 12 11 11 11 11 11 11 12 13 14 14 14 15 15 16 15 16 16 19 20 22 22 22 24 24 23 23 22 21 21 22 22 24 25 25 27 28 27
16 14 14 13 12 11 11 11 11 11 12 12 13 15 15 16 16 16 16 16 16 16 17 21 23 21 22 23 24 23 23 23 23 21 24 26 26 26 28 30 27 23 22
16 14 13 12 12 11 12 12 13 13 13 14 15 15 16 18 17 17 17 16 16 16 19 21 23 21 21 23 23 24 24 24 25 25 23 23 24 29 25 21 19 18 17
16 14 13 12 12 12 14 14 14 14 14 15 15 16 17 17 17 17 17 17 18 20 22 23 23 22 22 23 22 23 21 21 22 23 26 25 30 24 21 18 17 19 19
15 15 15 15 14 15 15 15 15 15 15 14 14 15 16 15 13 20 20 20 19 20 21 22 22 24 27 25 21 22 22 24 29 28 24 25 24 19 18 18 18 19 22
16 16 17 16 16 16 15 14 14 14 13 14 15 15 16 13 24 25 23 18 17 17 19 21 21 26 25 27 28 28 27 24 24 26 27 22 20 19 19 19 22 25 17
16 16 16 16 16 15 13 12 12 11 13 15 15 15 15 14 24 25 26 18 17 18 21 22 21 20 25 23 27 29 28 29 33 24 21 20 20 21 26 25 22 21 21
15 14 15 15 13 13 12 11 11 12 14 16 16 15 15 13 23 25 27 20 19 20 21 21 22 22 24 24 22 24 29 25 22 19 19 23 26 22 19 20 24 24 24
13 13 14 14 13 12 11 10 11 13 15 15 15 14 13 13 21 24 24 20 20 20 20 21 22 22 26 28 29 29 20 17 19 26 27 25 24 24 24 24 23 21 18
12 12 12 12 11 10 9 11 13 15 15 16 13 13 17 11 20 24 24 20 20 20 21 22 27 25 29 34 23 18 17 17 22 20 16 18 20 20 25 23 24 20 19
12 12 11 10 9 9 11 13 13 13 13 13 12 12 11 13 17 24 25 21 21 21 23 25 24 29 30 25 23 16 18 20 20 16 16 18 19 20 20 22 24 24 20
12 11 10 9 8 11 12 13 13 13 13 13 13 13 15 15 22 23 25 26 27 25 24 21 28 26 23 22 20 23 24 22 16 18 18 18 19 20 22 22 24 24 25
9 9 8 8 12 12 13 13 13 14 15 15 15 16 16 17 18 24 25 26 25 22 23 28 24 22 21 19 21 22 22 18 19 20 19 19 21 22 23 23 24 24 24
7 7 9 11 15 13 14 14 14 15 15 16 16 16 17 17 18 19 20 20 24 25 24 21 19 19 20 19 17 17 16 17 20 21 20 20 19 20 21 23 22 21 22
6 8 9 13 13 13 14 14 16 16 18 17 17 17 17 18 18 23 22 21 21 21 21 15 13 14 15 15 15 16 17 18 20 20 20 19 18 19 20 21 22 22 20
7 9 12 15 14 14 14 14 19 20 21 21 21 20 18 22 23 24 24 24 24 23 16 13 14 15 16 15 15 16 18 19 19 20 19 19 19 20 19 21 21 22 22
8 10 14 15 13 13 14 15 14 16 19 20 20 21 22 21 22 24 23 23 21 20 14 15 16 16 16 16 18 18 18 18 19 18 18 20 20 18 19 19 20 22 21
10 17 15 14 15 15 15 15 14 14 13 13 17 18 19 21 22 22 22 19 14 15 15 15 15 16 17 18 18 18 18 18 17 18 20 18 19 19 18 19 20 21 22
13 15 16 16 15 16 15 15 15 15 13 13 12 14 16 20 22 20 20 13 14 14 14 15 16 18 18 18 18 18 18 18 19 18 18 19 19 20 19 19 21 24 24
14 17 18 16 15 15 16 15 15 13 11 11 11 11 13 18 15 13 14 14 15 14 14 16 17 18 18 18 18 18 17 17 17 17 18 19 20 21 20 21 23 21 21
14 15 19 16 16 17 16 14 13 10 10 11 11 13 21 16 14 13 14 14 14 15 17 18 18 18 18 18 18 17 17 16 17 17 18 19 20 20 21 24 24 22 22
15 16 16 17 17 15 13 11 10 10 11 12 12 13 19 14 14 14 14 15 16 16 18 18 18 17 18 18 18 17 16 16 16 18 19 19 20 21 24 25 23 22 22
16 16 16 16 14 13 11 10 11 11 12 13 13 14 13 13 14 14 14 15 16 17 17 17 18 17 18 18 18 18 17 17 19 20 19 19 22 26 26 23 22 22 21
15 15 14 11 10 11 10 11 11 13 13 13 14 13 14 14 14 14 16 16 17 16 16 16 17 18 18 18 19 20 20 21 22 24 27 30 29 26 25 23 23 24 21
13 11 10 10 10 10 10 11 12 13 14 13 13 14 14 14 15 16 15 16 15 15 15 15 17 18 18 19 19 20 22 27 31 32 32 31 29 28 27 25 24 26 24
11 10 9 10 10 10 11 12 13 13 13 14 15 14 15 15 15 15 15 14 14 14 14 15 17 18 18 19 20 23 29 33 34 34 32 30 29 28 29 24 21 21 24

GFSGL_sfc_dewp_003.txt.gz
Dewpoint
19 18 17 15 14 13 11 11 11 11 11 12 13 14 14 15 15 16 16 16 16 17 17 18 20 22 23 22 23 24 24 24 22 23 24 25 25 25 25 26 28 31 28
16 15 14 13 12 11 11 11 12 11 12 13 14 15 15 16 17 16 16 17 17 17 17 20 22 21 22 22 23 23 24 24 24 25 25 22 21 22 24 30 28 22 21
15 14 13 12 12 12 12 12 13 13 14 14 15 15 16 18 17 16 16 17 18 18 19 20 21 22 22 22 22 23 24 25 24 22 21 23 25 26 26 25 20 19 17
15 14 13 13 13 13 14 14 15 14 14 14 15 16 17 17 16 16 19 19 19 19 20 22 22 23 22 22 22 22 23 22 23 24 26 27 23 27 26 19 17 19 19
15 15 15 15 15 16 16 15 15 15 14 15 16 16 16 15 13 21 21 20 18 17 18 20 21 24 26 25 22 23 22 22 25 28 23 26 22 19 17 19 19 20 23
16 16 17 17 17 17 15 14 14 13 14 16 16 16 16 13 23 26 25 22 18 17 18 20 21 25 25 26 27 27 26 24 25 27 25 20 18 18 19 21 24 21 18
17 17 17 17 17 15 13 12 12 13 15 16 16 16 15 15 23 25 26 21 20 20 20 21 20 20 25 23 27 29 31 34 28 24 18 18 18 21 26 24 22 23 21
17 16 17 17 15 14 12 11 12 13 15 16 16 15 15 13 23 25 26 21 20 20 21 21 20 21 23 24 28 29 25 22 20 17 19 22 25 22 20 20 23 25 24
15 15 15 15 13 13 11 11 13 15 15 15 15 14 13 14 23 25 24 21 20 20 20 21 21 24 27 31 25 22 18 17 19 26 27 25 24 25 24 24 22 20 17
14 14 13 13 12 11 11 13 14 15 14 14 13 14 18 14 22 25 24 21 21 21 21 22 28 25 28 28 21 18 17 17 25 23 16 18 20 20 25 21 24 20 19
13 13 12 11 11 13 14 14 14 13 14 14 14 14 14 16 19 25 26 22 21 22 22 20 22 29 26 25 24 17 19 23 21 16 17 18 19 18 19 21 24 23 20
13 12 10 10 13 13 13 13 13 14 14 15 15 16 17 17 23 24 26 26 25 19 21 23 27 26 24 23 21 24 24 22 16 17 18 18 18 20 21 22 23 24 25
10 9 10 14 13 14 13 13 14 15 16 16 17 17 17 17 18 24 26 26 25 24 24 24 25 23 21 19 22 23 22 17 17 19 18 18 19 21 22 22 23 23 23
8 9 12 13 15 13 14 14 15 16 16 17 17 17 17 17 18 19 20 21 25 23 23 20 19 19 20 19 17 16 16 16 18 19 18 18 18 19 19 21 21 20 21
8 9 12 14 14 13 14 14 17 17 18 18 18 18 17 18 19 23 22 22 20 22 21 15 13 14 15 15 15 15 16 17 18 18 18 18 17 18 19 20 21 21 20
7 9 14 15 13 14 14 15 18 20 21 21 21 20 18 22 23 24 26 24 24 23 17 13 14 15 15 15 15 16 16 18 18 18 18 17 17 18 18 19 20 20 20
8 12 14 14 13 14 15 14 14 15 20 19 19 20 21 21 23 24 23 23 21 20 14 14 15 15 16 16 17 17 17 17 18 18 17 18 19 17 18 18 19 19 19
11 18 14 14 14 15 15 15 15 14 14 13 16 18 19 21 23 23 22 19 13 15 14 14 15 16 16 17 17 17 17 17 17 17 19 18 17 18 18 18 19 19 22
13 15 16 15 15 17 16 15 15 14 13 11 11 14 16 20 23 20 20 13 14 14 14 15 16 17 17 17 17 17 17 17 19 18 17 18 18 18 17 18 20 23 24
13 17 18 16 16 16 16 14 14 12 10 10 11 11 13 18 16 13 14 14 14 14 15 16 16 17 17 17 16 16 16 16 15 16 16 18 18 19 19 19 20 21 21
13 15 18 16 16 16 14 13 11 10 10 10 11 13 20 17 13 13 14 14 14 15 16 16 16 16 16 16 16 16 16 16 16 17 17 18 19 19 20 21 22 24 22
15 16 16 16 16 12 12 10 10 10 11 12 12 13 19 13 13 14 14 14 15 15 16 17 16 16 17 17 17 16 15 15 16 17 17 19 19 20 21 23 25 23 22
15 14 14 13 12 12 10 10 10 11 12 13 13 13 12 13 13 13 14 15 15 16 16 16 16 16 17 18 19 18 17 16 18 19 18 18 19 21 26 25 25 23 20
12 12 11 9 9 11 10 10 10 13 13 13 13 12 13 13 13 14 15 15 15 15 15 16 16 16 17 18 19 20 20 21 21 22 24 26 29 28 27 26 26 23 20
11 10 9 10 10 10 10 10 11 12 13 12 12 13 13 13 14 14 14 14 14 14 14 14 16 17 18 18 18 19 21 28 31 32 32 31 29 28 28 27 26 25 22
10 9 9 10 10 10 11 12 12 12 12 13 14 13 13 14 14 14 13 13 13 13 13 14 16 16 17 18 19 23 29 32 34 35 31 29 28 28 29 26 23 25 21

GFSGL_sfc_dewp_006.txt.gz
Dewpoint
24 20 19 17 16 14 13 12 11 12 11 13 14 14 15 15 16 16 16 16 17 18 18 19 19 20 23 24 24 23 23 24 22 22 23 24 23 21 21 23 25 25 28
18 17 15 14 12 12 11 11 12 12 13 14 14 15 16 16 16 15 16 18 18 18 19 20 20 19 22 23 23 22 23 24 23 22 24 22 21 22 23 26 24 27 27
16 14 13 13 12 12 12 13 14 14 14 14 15 16 16 17 16 15 17 19 19 19 19 19 20 21 21 22 22 22 23 23 25 24 21 22 23 26 25 26 26 23 18
15 14 13 13 13 13 14 14 15 14 14 15 16 16 17 16 15 15 20 20 19 19 19 20 20 21 21 22 22 22 22 21 21 21 22 25 26 27 23 18 16 19 19
14 15 15 15 16 16 16 15 15 15 15 16 16 16 15 14 12 21 23 22 19 19 19 19 20 23 26 24 21 21 21 22 24 27 27 25 21 17 16 18 18 20 22
16 16 18 18 18 17 15 14 14 15 16 16 16 15 15 13 23 26 25 23 20 19 19 20 21 24 23 28 28 28 28 31 26 23 22 18 16 17 18 20 24 21 18
17 17 18 18 17 15 13 13 14 14 15 15 15 15 14 14 23 26 26 22 20 20 21 21 21 20 25 22 27 29 32 28 25 20 17 16 17 21 26 24 22 22 20
17 17 18 17 15 14 12 13 14 14 15 15 14 14 14 14 24 25 26 22 21 21 21 21 21 21 22 25 27 29 23 21 19 17 19 22 26 22 20 20 23 24 23
16 16 16 15 14 13 12 13 14 14 14 14 14 14 14 15 24 25 25 21 21 21 21 21 22 23 27 29 26 23 19 18 20 25 28 25 25 26 25 23 22 20 17
15 14 14 13 12 12 14 13 14 13 14 14 14 15 19 15 23 25 24 22 21 21 22 23 26 24 27 30 23 18 18 17 24 24 16 18 20 20 25 21 22 19 19
14 13 12 12 14 14 13 13 13 13 14 14 15 16 16 18 20 25 26 22 21 21 19 22 23 27 27 25 24 17 19 24 21 16 16 17 18 18 18 20 22 22 20
13 11 12 13 13 13 13 13 13 14 15 15 16 17 18 17 23 24 26 26 25 21 23 23 22 26 24 23 21 24 25 22 16 16 17 17 17 18 20 21 21 22 24
10 11 14 13 13 13 13 13 14 16 16 16 17 17 17 18 18 24 26 27 26 25 22 24 25 23 21 19 22 23 22 16 17 18 18 17 18 19 20 20 21 22 22
9 11 12 17 13 13 14 14 16 16 16 16 17 17 18 18 18 19 20 21 28 22 23 20 20 19 20 19 17 16 16 16 18 19 17 17 17 18 18 19 20 19 20
8 10 14 14 13 13 14 14 16 17 18 18 18 18 17 17 18 22 22 25 20 22 21 16 13 14 15 14 14 15 15 16 17 17 17 16 16 17 17 19 20 20 18
8 11 17 14 13 14 14 15 19 19 21 21 20 19 18 21 23 23 25 24 24 23 17 13 14 15 15 14 15 15 16 17 17 17 17 17 17 17 18 19 19 19 18
10 13 14 14 13 13 14 14 14 14 18 18 18 19 20 21 23 24 23 22 21 20 14 14 15 15 15 16 16 17 16 16 17 17 17 17 19 17 17 17 17 18 18
15 20 14 14 14 14 16 15 14 14 13 11 15 18 19 21 22 23 21 19 13 15 14 14 15 15 16 16 17 16 16 16 16 16 18 18 16 17 16 16 17 18 20
14 15 16 15 15 17 16 14 14 13 12 11 11 13 16 21 22 21 19 13 14 14 14 15 15 15 16 17 16 16 16 16 18 18 16 17 17 17 16 17 17 22 23
12 18 19 17 16 16 15 13 13 11 10 10 10 11 12 18 15 12 13 14 14 14 14 15 15 16 16 16 16 16 16 16 16 16 16 17 17 18 17 18 19 19 20
14 15 17 15 15 15 12 12 11 10 10 10 11 13 20 16 12 13 13 13 13 14 15 15 15 15 16 16 16 15 15 15 16 16 16 17 18 17 18 19 21 21 24
15 14 14 14 14 10 11 11 9 10 11 11 12 13 19 12 12 13 13 13 14 14 15 15 15 15 16 16 16 16 15 15 16 17 17 18 19 19 20 20 22 25 22
12 12 12 11 10 12 11 9 10 11 11 12 13 12 12 12 12 12 13 14 14 14 14 15 15 15 16 17 18 18 17 17 18 19 19 19 20 20 21 25 25 24 20
11 10 9 9 9 10 9 10 10 12 12 13 12 11 12 13 12 12 14 14 14 13 14 14 15 15 15 16 17 19 20 20 21 22 25 27 28 29 28 26 25 24 21
10 9 9 9 9 9 9 10 11 12 12 12 11 11 12 12 12 13 13 13 13 13 13 13 14 16 16 16 17 18 21 27 31 32 32 29 29 29 28 26 22 23 18
10 9 9 10 9 9 10 11 12 11 11 11 12 12 11 12 12 13 12 12 12 11 11 13 14 15 16 17 19 22 28 31 34 35 31 29 29 29 29 27 21 23 19

GFSGL_sfc_dewp_009.txt.gz
Dewpoint
31 29 26 24 22 19 17 15 14 13 14 14 15 15 16 16 16 16 16 18 19 20 20 21 20 20 20 21 23 23 22 22 21 22 22 23 22 22 20 22 25 25 26
25 24 22 19 17 15 13 13 13 13 15 15 15 16 16 16 15 14 17 19 20 20 20 21 20 18 20 21 22 21 22 22 23 22 23 23 21 22 23 25 26 22 22
21 19 16 15 14 13 13 13 14 14 15 15 16 16 15 16 14 13 17 20 21 20 20 19 18 19 18 20 21 22 22 22 23 24 22 22 24 26 27 23 20 18 16
17 16 15 14 14 14 15 15 15 14 16 16 16 16 16 14 14 14 20 22 22 21 21 20 19 19 19 22 22 22 22 21 22 23 25 27 24 22 22 18 17 19 20
16 16 16 16 16 16 16 15 16 17 17 16 15 15 15 14 12 22 24 23 23 21 21 20 20 23 27 26 23 23 23 24 29 29 25 23 21 18 17 19 19 22 22
17 17 19 18 18 17 15 16 17 17 17 16 15 14 15 12 23 26 25 23 23 21 20 20 21 25 25 28 28 28 28 31 30 26 24 18 16 17 19 22 24 22 20
17 17 18 18 16 15 14 16 16 16 15 15 14 14 13 14 24 26 26 22 22 22 22 22 21 21 26 23 27 29 34 29 27 23 18 16 18 21 28 26 24 22 21
17 18 17 16 14 14 14 15 15 15 14 13 13 14 14 15 25 25 26 22 22 22 23 22 22 22 24 25 26 32 26 23 19 18 19 23 27 24 22 22 24 26 23
17 16 16 14 13 14 15 14 14 13 13 13 13 14 15 18 24 25 25 22 21 22 22 22 23 23 26 27 28 27 19 18 20 24 28 27 25 26 25 24 24 22 19
16 15 14 13 14 14 14 13 13 13 13 14 15 16 19 16 23 25 24 21 21 21 22 22 25 25 27 29 24 19 19 18 24 25 17 17 19 19 24 20 23 21 20
14 13 13 14 14 13 13 13 13 14 14 14 16 17 17 18 19 25 25 21 21 22 20 22 21 26 28 25 24 18 19 24 21 16 15 16 17 17 18 20 22 24 21
13 14 14 13 13 12 12 13 14 14 14 15 17 17 17 18 22 23 25 26 25 21 24 21 22 26 24 23 21 24 25 23 15 15 16 16 19 21 22 23 23 24 24
13 13 13 13 13 13 12 13 14 15 15 16 17 17 16 17 18 24 26 26 25 25 21 24 25 24 21 19 21 23 22 16 16 17 17 20 21 22 23 23 24 24 24
13 14 15 13 13 13 13 14 15 16 16 17 17 16 17 17 17 18 20 21 26 22 23 22 20 19 20 19 17 16 15 15 17 18 17 17 17 20 21 22 21 22 21
10 12 13 13 13 13 13 15 17 17 18 17 17 16 16 16 17 22 22 24 21 21 21 16 13 13 14 14 14 15 15 15 18 18 17 17 16 18 19 21 21 22 19
11 15 14 13 13 13 14 14 18 18 20 19 19 18 17 21 23 23 25 23 23 23 17 12 13 14 14 14 14 15 16 18 17 19 18 19 18 19 20 21 21 20 20
12 13 16 13 13 13 15 14 13 13 16 16 18 19 20 21 23 23 23 22 21 20 13 14 14 15 15 16 17 18 18 18 19 19 18 18 20 20 19 19 19 20 20
18 19 14 14 14 15 16 15 12 12 10 9 14 17 19 21 22 23 21 19 12 14 13 13 15 15 16 17 18 18 18 17 17 18 19 20 19 19 19 19 19 19 21
14 16 16 16 15 17 15 13 12 11 9 9 10 13 15 20 22 20 19 13 13 13 13 14 15 16 17 18 18 18 18 17 19 20 18 19 19 20 18 19 20 22 23
15 20 19 16 15 14 13 10 11 9 8 9 9 10 12 16 15 12 12 13 13 13 13 15 15 16 17 17 18 17 17 17 18 18 18 19 20 20 19 20 20 22 22
15 14 16 13 13 13 9 11 10 8 9 9 10 12 20 16 12 11 12 12 12 13 15 15 16 16 17 17 17 17 16 17 18 19 19 19 20 20 21 21 22 23 24
14 12 12 12 10 9 11 10 8 9 10 11 11 13 18 12 11 12 12 12 13 13 15 16 16 16 17 17 17 17 16 16 18 19 19 20 21 22 23 23 24 25 26
11 10 10 9 9 12 10 8 9 10 11 11 12 12 11 11 11 12 12 12 13 15 15 15 15 15 17 18 19 19 18 18 19 20 20 20 22 23 25 25 28 26 25
10 9 8 8 9 10 8 10 10 12 11 11 11 10 10 11 11 11 12 14 14 15 14 14 15 16 16 17 18 20 20 21 21 23 26 28 30 30 30 29 28 26 24
9 8 8 9 9 8 8 10 10 11 11 10 10 10 10 10 11 13 13 14 14 13 13 13 15 16 17 17 17 18 20 26 30 31 33 32 30 30 31 30 27 26 24
9 9 9 8 8 8 9 10 11 10 10 11 11 11 10 11 11 13 13 13 13 12 12 13 15 16 17 18 18 22 28 30 33 36 33 30 30 31 31 29 26 26 25

GFSGL_sfc_dewp_012.txt.gz
Dewpoint
39 32 30 29 27 25 24 22 20 17 16 15 15 15 15 15 16 16 16 17 19 20 21 22 22 20 19 18 19 19 19 20 18 19 18 19 20 21 20 22 23 23 25
33 32 28 27 25 23 20 18 16 15 15 15 14 15 15 15 15 13 15 18 20 20 21 23 22 16 17 17 18 18 19 20 20 20 21 21 20 22 23 22 20 17 18
31 28 26 25 23 19 17 15 15 15 15 15 16 16 15 16 14 13 14 18 20 21 21 21 19 17 16 17 17 20 21 19 21 22 21 23 25 25 24 21 18 17 16
29 27 24 22 19 17 16 16 16 15 16 16 16 16 16 14 14 14 19 21 21 22 22 22 20 18 19 19 20 21 20 21 21 22 25 29 26 24 22 18 16 20 20
25 23 21 19 18 17 17 16 16 17 17 16 15 15 15 14 12 21 23 23 22 21 20 20 19 22 26 27 24 23 22 23 27 29 31 26 23 18 15 18 19 22 23
22 21 19 19 18 19 17 17 18 18 17 16 15 15 15 11 22 26 26 22 21 20 19 18 19 24 23 27 27 27 26 29 31 30 27 21 16 15 18 21 25 24 22
19 19 19 18 18 17 17 17 18 17 16 15 14 14 13 14 23 26 26 22 21 20 21 22 20 18 25 21 25 28 30 33 31 25 20 16 17 19 27 29 25 24 22
18 18 18 17 16 16 16 16 15 14 14 14 14 13 14 13 23 25 26 21 20 20 22 21 20 21 22 24 25 30 29 24 19 17 18 20 25 27 25 22 24 25 24
18 17 16 15 15 16 16 15 14 13 13 13 14 13 13 13 20 25 25 20 19 19 19 19 21 21 25 27 28 29 20 17 19 23 26 29 27 26 25 23 25 24 21
17 16 14 14 15 16 15 13 14 14 14 13 14 13 15 13 18 24 24 20 19 18 18 19 24 24 26 29 25 19 19 17 21 26 19 18 20 20 24 21 25 25 23
15 14 14 15 14 13 13 12 13 13 13 12 12 13 14 15 16 23 25 21 19 19 18 19 20 24 27 26 25 18 18 23 23 18 16 16 17 18 19 22 24 26 24
14 14 14 13 11 11 12 13 13 13 11 11 11 11 12 13 17 20 25 25 25 20 22 19 20 25 25 24 22 22 25 24 17 16 16 16 20 24 25 26 26 26 26
14 13 13 12 12 12 12 13 13 12 11 11 12 12 11 12 14 20 23 24 24 25 20 23 25 24 22 19 20 23 22 17 16 17 17 22 23 24 26 26 27 27 27
13 12 11 11 12 12 13 13 12 11 12 12 12 12 12 12 13 16 18 19 24 21 22 23 20 20 19 18 17 16 16 16 17 18 18 18 19 23 23 24 24 24 23
13 12 12 13 12 12 12 14 13 13 16 14 13 13 13 13 15 22 22 21 21 21 22 16 12 12 13 14 15 15 16 17 19 19 19 18 17 20 22 23 24 24 22
10 11 13 13 13 12 12 11 17 17 18 18 18 18 15 19 22 23 24 24 24 23 17 12 12 14 14 14 15 16 18 20 19 21 20 21 21 21 22 23 23 23 22
13 14 15 13 11 11 12 11 8 7 13 13 16 18 20 20 22 23 23 22 22 19 12 13 14 15 16 17 18 20 21 20 22 21 22 22 23 23 21 22 22 23 23
16 18 13 12 11 13 12 10 7 7 6 4 9 13 17 20 22 23 21 19 12 13 12 13 16 15 16 18 19 20 21 20 20 21 22 23 22 22 22 22 22 22 23
15 15 14 13 13 13 11 8 7 8 5 4 6 9 13 19 21 20 18 11 12 12 12 14 15 16 17 19 20 21 21 20 22 22 22 22 23 23 22 22 23 24 24
18 20 16 10 9 9 7 6 8 6 4 5 6 8 10 15 14 12 11 12 12 12 12 15 16 17 19 20 21 21 21 20 20 21 22 22 23 24 23 23 23 24 24
13 12 14 8 7 7 6 8 7 5 5 7 8 10 19 16 12 11 11 11 12 12 14 15 16 18 19 20 20 20 20 20 20 21 21 22 23 23 24 25 26 26 27
11 8 8 7 6 6 8 7 5 7 8 9 10 11 17 11 10 11 11 12 12 12 15 16 17 18 20 20 20 20 20 19 20 22 22 22 23 24 25 26 27 28 29
8 6 6 5 6 9 6 6 8 8 9 10 10 10 9 9 9 10 11 11 13 15 16 16 17 18 19 21 22 22 20 20 21 22 21 22 23 25 27 29 31 29 26
7 6 5 5 6 8 6 8 8 11 10 10 9 9 8 9 9 10 13 15 15 17 16 16 17 18 19 20 21 22 23 23 23 23 25 28 30 31 31 31 31 29 26
7 6 6 6 7 6 7 8 9 10 10 9 9 8 9 10 11 14 15 15 16 16 17 17 18 19 19 20 20 21 23 26 30 31 32 33 32 32 32 31 28 27 27
7 7 7 6 7 7 8 10 10 10 11 13 13 13 12 12 13 15 16 16 17 16 16 17 18 19 20 21 21 24 28 30 33 35 32 31 30 31 30 28 27 26 26

GFSGL_sfc_dewp_015.txt.gz
Dewpoint
45 38 36 35 35 29 29 27 24 21 21 20 19 18 17 17 17 16 17 18 19 20 22 24 23 23 22 21 21 21 21 21 19 20 21 21 21 21 21 24 26 23 23
41 36 33 31 29 29 25 23 21 20 19 18 17 17 16 16 15 14 15 16 18 20 21 26 25 19 20 19 20 19 19 20 21 20 22 22 22 21 23 26 24 20 20
36 32 29 27 26 25 22 19 20 18 17 17 17 17 16 17 15 14 13 15 18 20 21 21 21 20 19 18 19 20 22 21 23 22 22 22 23 25 28 24 21 21 17
32 30 28 26 23 21 19 19 19 18 18 18 17 17 16 14 15 14 18 20 22 23 23 23 21 21 20 20 22 23 22 23 23 22 24 26 27 29 24 21 18 20 20
30 30 28 25 22 21 20 19 19 20 18 18 17 16 15 14 12 21 23 23 22 21 21 20 20 24 25 26 24 25 24 24 25 27 26 28 24 21 19 18 19 21 22
29 28 25 22 22 22 20 20 21 19 18 17 16 15 15 12 22 25 26 23 21 20 19 18 20 25 23 25 27 27 26 26 28 28 29 23 22 19 18 21 23 24 23
28 25 25 21 21 21 20 20 20 18 17 16 14 13 13 15 22 25 26 23 21 20 23 23 21 18 25 22 24 26 28 30 31 25 22 19 18 19 24 25 26 24 21
25 24 21 21 20 20 19 19 17 16 15 13 13 13 15 15 20 24 26 22 19 20 23 20 20 20 23 23 24 28 28 27 23 19 20 20 23 25 30 29 24 24 23
22 21 20 19 19 19 18 16 15 13 13 12 13 14 13 12 18 23 25 20 18 19 19 19 20 20 24 26 25 28 25 20 21 24 25 27 28 27 25 22 23 23 21
24 18 17 18 18 18 17 14 14 14 14 14 14 13 13 13 16 21 23 20 19 18 19 19 23 22 25 26 25 22 21 19 20 23 23 21 21 20 24 22 24 25 23
17 16 17 17 16 14 13 12 12 13 15 12 13 11 12 13 15 19 23 21 20 20 20 20 21 24 26 27 26 21 20 21 24 21 19 17 18 19 20 23 25 26 24
16 16 15 13 12 12 13 13 13 13 12 10 9 10 12 11 15 17 22 24 24 20 21 22 21 25 26 25 23 23 24 24 19 17 17 17 19 22 23 25 25 25 26
15 15 13 12 12 13 13 14 14 12 10 11 12 12 11 13 13 17 21 23 23 22 22 23 25 24 24 20 20 23 22 18 17 18 19 21 22 23 23 24 25 26 26
14 13 12 11 12 13 15 14 12 11 11 11 11 11 12 12 13 16 18 21 22 23 23 23 22 21 18 18 17 17 17 17 19 21 20 20 20 21 21 22 23 23 23
14 13 14 14 12 13 13 13 13 12 14 14 13 13 13 13 14 22 22 20 22 22 22 19 16 12 15 14 15 16 17 18 21 21 22 21 19 20 21 22 22 24 22
12 13 14 15 14 13 12 11 19 16 17 18 18 17 15 19 21 23 23 24 24 24 19 15 13 15 15 15 16 17 18 21 21 22 21 21 21 21 21 22 22 22 22
13 13 15 15 12 11 11 9 7 13 18 16 12 14 17 19 21 22 23 24 23 20 13 13 15 16 17 17 19 20 20 21 22 22 22 21 22 22 21 20 21 22 21
15 18 14 13 11 12 11 9 6 5 5 4 8 11 15 17 19 22 22 20 12 13 13 13 16 17 17 19 20 20 21 20 20 21 21 22 22 21 21 21 21 21 21
15 16 14 12 13 11 9 7 5 6 5 3 5 8 12 17 21 20 18 11 12 12 13 15 16 17 18 20 20 21 20 20 21 22 21 22 22 22 21 21 21 24 25
19 19 14 8 8 7 6 4 6 5 3 4 6 7 10 15 15 13 11 12 12 12 13 15 17 18 19 20 21 20 20 19 20 20 21 22 22 22 22 23 23 23 23
13 13 12 7 6 5 5 6 6 4 5 7 8 10 18 15 12 10 11 11 12 12 15 16 17 18 19 20 20 20 19 19 19 20 21 21 22 22 23 24 24 25 26
10 8 7 6 5 4 6 7 5 6 7 8 9 10 16 10 9 10 11 11 12 12 16 17 18 18 20 20 20 19 18 18 19 20 20 21 22 22 23 24 25 27 29
6 5 4 4 5 7 6 5 7 8 9 10 10 9 8 7 8 10 11 12 14 17 18 18 18 18 19 21 22 21 20 19 20 22 21 21 21 23 24 28 30 29 27
5 5 4 4 5 7 6 7 8 10 10 9 9 9 8 8 9 11 14 17 17 18 18 18 19 19 20 20 21 21 22 22 23 23 24 26 28 31 30 29 28 27 26
5 4 4 5 6 6 6 7 9 9 9 9 10 10 11 11 12 15 17 17 18 18 18 19 19 19 19 21 21 21 23 27 30 31 32 30 30 30 29 27 26 26 25
5 5 5 5 6 7 8 9 10 10 11 15 15 16 15 14 15 17 17 18 19 18 17 18 19 20 21 21 22 25 29 31 33 33 29 29 29 29 28 27 25 25 24

GFSGL_sfc_dewp_018.txt.gz
Dewpoint
42 42 39 36 34 31 29 27 25 23 23 22 22 20 19 19 18 18 17 18 19 20 21 23 23 23 24 23 22 22 21 21 19 18 20 22 22 22 22 22 23 26 26
39 37 34 34 31 29 26 24 22 22 21 20 20 19 18 18 15 14 15 16 18 19 21 23 24 22 21 21 21 20 20 20 20 20 22 22 22 22 22 25 27 25 22
37 35 33 30 27 26 24 22 22 20 19 18 19 19 18 19 16 14 14 16 18 20 21 22 22 21 20 20 19 21 23 22 24 23 22 23 23 24 26 30 24 20 20
33 32 30 29 27 23 21 20 21 18 18 19 19 19 19 17 16 16 20 21 22 23 24 24 22 21 21 20 22 23 23 24 24 23 23 25 26 27 27 22 20 20 20
30 28 26 25 24 22 20 20 20 20 19 19 18 17 17 16 18 23 25 25 23 22 21 20 21 25 26 25 23 24 25 25 24 24 25 24 28 22 21 21 19 19 20
30 26 24 23 24 22 21 21 21 20 19 19 17 17 16 13 25 25 26 25 23 21 20 20 21 26 25 26 26 27 26 26 25 25 28 23 21 21 19 19 20 21 21
28 27 27 30 31 28 23 21 20 19 18 16 15 14 14 21 25 23 25 24 23 22 21 22 22 19 25 23 25 26 27 29 29 25 22 21 19 19 22 23 24 27 24
31 32 33 34 31 25 20 19 18 17 16 15 14 15 17 19 22 22 25 23 21 20 21 20 20 20 22 23 24 25 26 27 27 23 21 20 22 23 26 29 26 23 22
33 35 33 30 28 23 20 17 15 14 14 14 16 15 13 16 20 20 23 22 20 19 19 19 20 21 25 26 25 23 24 22 23 25 25 27 28 27 25 22 22 21 20
32 31 29 26 19 17 15 14 15 15 15 16 15 13 19 13 16 19 22 22 21 20 20 20 24 23 26 26 23 22 21 20 20 22 23 22 22 21 24 21 23 22 21
34 24 19 18 15 14 14 13 14 15 14 13 11 12 12 13 14 17 20 21 21 21 21 21 22 26 26 27 26 21 20 22 23 22 18 18 18 18 19 21 23 24 23
17 16 14 13 12 12 13 13 13 13 11 10 10 12 13 11 16 18 19 22 24 21 21 22 22 26 26 25 23 23 24 24 18 17 17 17 19 21 22 23 23 23 24
14 13 13 13 13 15 15 14 14 12 12 12 12 12 12 14 14 19 22 23 24 22 22 24 25 25 24 21 21 22 22 18 17 18 21 21 21 21 22 22 22 23 23
13 13 13 13 14 14 15 14 13 12 13 12 12 13 14 14 14 18 20 21 24 22 25 23 23 22 20 18 17 18 18 17 19 19 20 20 21 22 20 21 22 21 21
13 15 15 15 14 13 14 15 14 17 16 16 16 16 15 15 16 21 22 20 21 23 23 20 17 14 15 15 16 17 17 18 19 20 21 21 20 20 20 21 21 22 21
13 15 17 16 15 14 13 12 17 16 15 17 17 17 17 18 21 22 23 24 25 24 19 15 14 15 16 16 16 16 18 20 19 21 21 20 20 20 20 21 22 20 19
15 15 17 15 13 12 12 10 8 12 17 18 14 12 15 17 19 21 23 23 23 20 13 14 15 16 16 17 17 18 18 19 20 20 20 20 20 21 21 19 19 20 20
17 21 15 14 13 12 11 9 7 6 7 6 10 11 15 17 19 22 22 19 13 14 13 13 15 16 16 17 17 18 19 19 19 19 19 21 20 20 19 19 20 20 21
16 16 14 13 14 11 9 7 6 7 6 4 6 10 13 17 20 21 19 12 12 12 13 14 16 16 17 17 18 19 19 19 20 20 19 20 20 21 20 20 21 23 24
20 19 13 9 8 7 6 6 7 5 4 5 7 8 10 15 15 13 12 12 12 12 13 15 16 16 17 18 18 19 18 18 18 18 19 20 20 21 20 21 21 21 22
16 14 11 8 7 6 6 7 7 5 6 8 9 10 18 15 11 10 10 10 12 12 14 15 16 16 17 18 18 18 18 17 18 18 18 19 20 20 21 21 22 23 24
10 9 8 7 6 6 9 9 6 7 8 9 10 11 16 10 9 9 10 11 12 13 16 17 16 17 18 19 19 18 17 17 18 18 19 19 20 21 22 22 23 25 27
7 6 5 5 6 8 7 6 7 8 9 10 10 9 9 8 8 10 11 13 15 16 17 17 18 18 18 20 21 20 18 18 20 21 20 20 20 21 24 27 27 26 25
6 5 4 4 6 8 7 7 8 10 10 9 10 9 10 10 11 12 14 14 16 15 18 18 19 19 19 19 19 20 21 22 22 23 26 29 28 28 27 27 26 25 24
6 5 5 6 6 7 7 8 9 10 10 10 11 12 13 14 13 13 13 15 16 17 18 19 19 18 19 19 20 21 22 27 31 32 30 24 26 28 28 27 26 25 23
6 5 6 6 7 7 8 9 11 11 12 14 14 14 14 14 14 14 14 15 17 18 17 18 19 19 19 20 21 24 29 31 33 35 30 26 26 27 28 28 27 25 25

GFSGL_sfc_dewp_021.txt.gz
Dewpoint
52 46 45 43 39 36 34 33 33 30 28 26 26 25 23 20 19 20 20 19 19 20 21 22 23 23 24 24 22 21 20 21 19 19 20 22 22 23 23 23 24 24 27
45 43 42 39 36 35 32 30 29 27 27 25 25 22 19 19 17 16 16 17 18 19 20 22 23 23 21 21 21 19 20 21 21 20 23 23 23 23 23 24 25 27 27
43 42 38 36 35 30 28 27 27 25 23 24 20 19 18 19 16 15 15 17 19 20 21 22 22 22 21 21 20 20 23 22 24 23 23 24 23 25 26 26 28 24 22
41 39 36 34 29 26 27 24 25 24 22 19 19 19 20 18 17 20 23 24 23 23 23 23 22 21 21 20 20 22 22 23 24 24 24 24 25 25 27 23 22 22 20
38 36 33 29 29 27 28 26 26 26 22 19 18 18 18 19 19 25 26 25 24 23 22 20 21 25 26 26 23 24 24 24 25 24 24 24 25 22 20 22 20 19 20
33 31 27 27 28 29 29 28 27 20 19 18 17 17 15 20 29 29 27 25 24 22 21 21 21 26 25 26 26 26 25 25 23 25 26 23 22 21 20 19 20 21 21
26 26 27 29 31 33 29 26 24 21 18 17 16 16 19 25 28 27 27 24 23 22 21 21 21 20 25 22 26 27 27 28 28 25 23 22 21 20 22 22 25 26 24
32 32 33 33 33 33 33 32 30 26 24 22 15 16 20 24 27 25 27 22 21 20 21 20 19 19 22 24 23 25 26 26 26 25 23 22 22 24 27 26 23 23 22
35 36 36 36 35 34 32 31 30 28 19 15 17 16 18 22 23 23 24 21 21 21 20 21 22 21 25 27 25 23 23 23 24 26 26 28 28 27 25 22 21 20 19
35 35 35 34 33 30 27 20 15 16 16 17 15 14 19 13 19 19 21 22 21 21 21 22 26 24 26 27 24 23 22 20 21 22 23 22 21 21 24 21 21 20 20
35 34 33 29 23 20 16 16 15 15 14 12 11 12 12 14 14 16 19 20 21 21 22 21 22 26 26 27 26 22 20 21 23 18 17 18 18 19 20 21 22 22 21
32 26 19 15 13 13 14 14 13 12 11 11 11 12 13 12 19 18 20 21 23 21 21 22 22 26 26 25 23 23 24 23 17 17 17 18 20 21 21 22 23 23 23
14 14 14 14 15 15 14 13 13 12 13 12 13 13 13 14 14 22 22 23 24 22 21 24 26 25 23 21 21 22 21 18 17 18 19 19 20 21 22 22 22 22 22
13 13 14 15 14 14 15 14 13 13 13 13 13 13 14 14 15 16 20 21 24 22 24 24 23 20 20 19 18 17 17 17 19 19 19 19 20 20 20 21 21 21 21
14 15 16 15 13 13 15 14 15 16 13 14 16 16 15 16 16 21 22 20 22 23 23 19 16 14 15 15 16 16 17 17 19 19 19 19 18 19 19 20 20 20 20
14 15 16 15 14 13 12 12 18 17 17 17 17 15 16 16 19 21 22 23 24 24 16 13 13 15 15 14 15 16 17 19 18 19 19 19 19 18 19 20 21 20 19
16 16 17 15 13 12 11 9 7 10 16 16 14 14 15 16 19 21 22 22 21 18 13 13 14 15 15 16 16 17 16 18 19 19 18 18 18 18 20 18 19 19 19
17 20 14 13 13 12 10 8 6 6 6 5 10 13 15 17 19 22 21 17 12 13 13 13 14 15 15 16 16 16 17 18 18 18 19 19 19 19 18 18 19 19 20
15 14 13 13 12 11 8 6 7 7 5 4 7 11 14 17 20 18 16 12 12 12 13 14 15 15 15 16 16 16 17 17 19 19 17 18 18 19 18 18 19 22 24
17 18 13 9 8 7 6 7 8 5 5 6 8 9 10 15 13 11 11 11 12 12 12 14 15 15 15 15 15 16 17 17 17 17 17 18 19 19 18 19 20 20 21
13 12 14 8 6 6 6 8 7 6 7 8 9 11 18 12 9 9 9 10 11 12 14 15 16 15 15 15 16 16 16 16 16 17 18 18 18 18 19 20 21 22 23
10 8 8 7 6 6 9 9 6 7 8 9 10 11 15 9 9 9 10 12 13 14 16 16 16 16 17 17 17 17 16 16 17 17 19 20 19 20 21 22 24 26 26
6 6 5 5 6 9 8 7 8 9 10 10 10 9 9 9 10 11 12 13 14 16 17 18 17 17 17 19 19 19 17 17 18 20 20 20 21 23 27 27 27 27 25
6 5 5 5 6 8 7 8 8 10 11 10 10 10 12 12 13 13 14 13 15 15 17 18 19 18 18 18 18 19 20 21 22 23 25 28 29 27 27 28 28 27 26
6 5 5 6 6 6 7 8 9 11 11 11 12 13 14 14 14 13 12 13 14 15 16 17 18 18 18 18 19 20 21 26 30 31 33 31 28 27 27 28 28 27 27
6 5 6 6 7 7 8 9 11 12 12 13 13 12 13 14 14 13 13 13 13 15 14 16 16 17 18 18 20 24 28 30 32 35 34 30 29 28 29 30 29 28 28

GFSGL_sfc_dewp_024.txt.gz
Dewpoint
56 56 48 48 46 46 44 42 38 35 31 31 31 31 30 27 24 22 22 20 19 20 22 23 22 23 24 24 23 22 21 21 19 19 20 22 23 23 23 24 25 24 26
50 48 47 46 45 44 41 38 34 31 31 30 29 29 30 26 23 22 20 19 19 20 20 23 24 23 23 22 22 20 20 20 21 20 22 23 23 24 24 23 25 25 26
46 45 44 43 43 41 39 34 31 30 30 30 28 27 21 21 18 17 17 17 19 20 21 22 22 22 21 22 21 21 21 21 23 23 23 24 24 24 25 25 26 26 24
44 43 41 43 42 37 34 33 30 31 31 31 31 28 24 21 18 19 22 23 23 23 23 22 21 22 21 21 20 20 22 23 23 23 23 23 24 25 26 25 21 22 21
42 42 38 35 33 30 30 30 30 30 28 27 29 27 26 26 25 26 25 24 23 22 22 21 21 23 28 25 23 24 24 24 23 22 24 23 24 22 21 21 21 20 21
36 35 33 30 31 32 32 30 29 30 30 29 26 23 25 27 32 31 26 24 23 22 21 21 21 26 25 27 27 26 25 25 22 22 19 24 23 22 21 21 21 21 21
34 32 32 32 31 30 30 30 29 30 30 27 25 21 26 28 30 29 28 23 21 21 21 21 20 19 24 22 25 27 27 28 28 25 24 23 22 22 22 22 23 25 23
34 35 35 33 33 34 34 33 32 31 30 30 29 29 30 29 29 28 26 21 21 20 21 20 20 21 22 24 24 25 26 25 25 25 25 24 24 24 28 26 23 23 22
36 35 35 36 35 35 34 33 33 33 32 31 29 25 26 24 25 25 23 21 21 21 21 21 23 22 26 27 25 24 23 23 25 27 27 28 29 28 25 23 21 20 18
36 36 36 35 35 34 34 33 33 31 26 20 16 15 21 17 23 20 24 21 19 20 21 22 25 24 26 27 25 23 22 21 21 22 20 19 21 21 25 22 21 19 19
35 35 34 34 32 31 29 26 21 17 15 13 12 12 13 13 14 17 18 20 19 21 21 21 21 26 27 27 26 21 20 21 20 17 17 17 18 19 20 22 22 21 20
33 32 29 24 17 15 15 14 13 12 11 11 12 13 13 13 21 21 24 23 24 21 21 21 21 27 26 24 22 23 24 23 17 16 17 18 19 20 21 22 22 22 23
16 15 14 14 14 14 13 12 13 13 13 12 13 12 13 14 15 20 22 23 24 22 22 24 26 25 22 19 21 22 22 17 17 17 18 19 19 20 21 21 22 22 22
14 15 15 14 14 14 15 13 14 14 13 12 13 13 13 14 15 17 20 21 24 22 24 23 21 18 18 18 17 17 17 17 18 19 18 18 19 19 19 20 20 20 20
15 17 17 15 14 14 14 14 14 12 11 12 15 15 14 15 16 20 21 20 22 23 21 16 13 13 15 14 14 16 16 16 18 18 18 18 17 18 18 19 19 19 19
14 15 15 14 13 14 14 15 20 18 19 18 20 17 15 18 18 20 23 23 24 23 14 12 13 14 14 14 14 15 16 18 17 18 18 18 18 17 17 19 20 19 18
16 16 17 14 12 11 10 8 6 10 16 15 14 14 15 17 19 21 23 22 19 17 12 13 14 14 14 15 15 15 15 16 16 18 17 17 17 18 19 17 17 18 18
17 20 14 13 12 11 9 7 6 7 5 4 11 15 16 17 19 21 19 15 12 13 13 13 14 14 15 15 15 15 15 16 16 17 18 18 17 17 17 17 17 18 18
14 14 13 12 11 10 7 6 7 5 4 5 8 11 14 19 19 16 15 11 12 12 12 13 14 14 15 15 15 14 14 15 18 18 15 16 17 17 17 17 18 22 23
14 17 13 9 8 6 6 8 7 5 5 7 8 9 11 14 11 10 10 11 11 12 12 14 15 15 15 14 13 14 15 15 15 16 16 18 18 19 18 18 18 20 20
14 14 14 7 6 6 7 8 7 6 7 8 9 11 17 10 9 9 9 10 11 12 14 15 16 15 14 13 14 15 15 15 15 16 17 18 19 19 20 21 21 21 22
9 8 7 6 5 7 9 7 6 8 9 9 10 10 15 10 9 10 11 12 12 14 16 17 16 15 16 16 16 15 15 15 16 18 19 19 20 21 21 22 24 26 26
6 5 5 5 6 9 7 7 8 9 10 10 10 9 10 11 12 13 13 13 14 14 15 16 17 16 17 18 18 18 17 16 18 19 19 20 21 23 25 26 26 26 26
6 5 5 5 7 7 7 8 8 10 11 10 10 11 13 13 14 14 14 12 13 12 14 16 17 17 17 18 18 20 21 20 21 21 23 26 30 30 28 27 27 27 28
5 5 5 6 6 6 7 8 9 11 11 11 12 13 13 13 13 12 11 12 12 13 13 15 15 14 15 17 18 19 21 26 29 30 32 32 31 29 29 28 29 29 28
6 5 5 6 7 7 8 9 11 12 12 12 13 11 12 12 13 12 12 12 12 13 12 13 14 12 13 16 19 22 27 29 30 33 34 33 31 30 29 30 28 27 28

GFSGL_sfc_dewp_027.txt.gz
Dewpoint
47 52 52 50 49 48 47 45 42 42 41 39 37 36 33 31 28 28 29 26 25 24 24 23 23 23 24 25 25 23 22 21 19 19 20 20 21 23 24 25 26 24 25
49 54 50 47 47 46 47 43 41 40 38 37 35 32 31 30 30 28 26 26 25 24 25 27 25 23 23 24 23 21 21 21 20 18 21 22 23 24 24 24 24 25 26
47 46 46 45 45 45 44 42 40 38 38 36 32 31 29 28 28 29 30 26 23 22 22 21 22 22 22 23 22 22 21 20 21 22 22 24 24 24 24 25 25 26 24
44 44 43 44 44 43 41 39 37 36 34 32 28 29 28 29 30 30 29 27 26 24 24 23 22 23 22 21 20 20 20 21 22 23 23 23 23 25 25 24 21 22 21
41 40 40 41 40 40 36 35 35 35 33 31 32 32 32 32 30 30 28 26 24 22 22 21 22 23 27 26 23 23 24 23 23 21 23 21 23 24 22 22 21 21 21
35 34 35 34 34 33 31 31 32 31 32 33 33 32 33 34 36 34 28 23 22 22 22 20 21 23 24 27 27 28 25 23 20 19 17 23 24 22 22 22 22 22 21
33 32 33 33 32 32 32 33 33 33 33 32 32 33 34 34 34 33 29 24 21 21 21 21 19 19 24 22 25 27 27 28 28 25 23 23 22 23 23 23 24 24 23
35 34 34 34 34 35 35 34 33 33 32 32 32 33 33 34 36 35 30 23 21 21 21 20 20 22 23 24 24 25 25 25 25 24 24 24 25 25 26 28 25 23 22
36 36 37 37 36 35 34 33 33 33 33 33 33 33 33 33 34 32 24 20 20 20 21 21 23 23 26 27 25 23 24 23 25 26 26 28 29 28 25 22 21 20 18
35 36 36 36 35 34 34 34 34 33 32 33 31 31 32 26 27 25 24 20 19 19 21 21 24 23 26 27 25 23 21 20 21 22 21 19 21 20 25 21 19 18 19
35 35 35 35 34 34 33 33 32 30 27 20 15 15 13 15 15 18 20 20 19 21 21 21 21 25 27 27 26 20 20 21 21 17 16 17 18 19 20 21 22 18 20
33 32 30 31 31 27 23 18 15 12 12 12 12 13 13 13 23 23 24 22 23 21 21 21 21 27 27 25 22 23 23 23 16 16 17 17 19 19 20 21 22 22 22
20 17 16 14 14 13 12 12 13 13 13 13 13 12 13 14 14 20 22 23 23 22 22 24 27 25 22 19 21 22 22 17 17 17 18 19 19 19 20 20 21 21 21
14 14 14 14 13 13 14 14 14 14 13 12 12 12 12 14 15 17 20 21 24 22 24 23 20 18 18 18 17 16 16 16 18 18 18 18 18 19 19 19 19 19 19
16 16 14 14 13 13 14 12 11 9 10 11 14 13 13 13 15 20 21 21 22 23 23 14 13 13 14 14 14 15 16 16 17 18 17 17 17 18 18 18 18 18 18
14 14 15 14 15 15 17 17 22 21 21 20 21 17 15 18 18 20 22 23 23 22 15 12 12 14 14 13 14 14 15 17 16 17 17 17 16 16 17 18 19 17 17
15 15 17 13 11 10 9 7 5 10 18 17 17 16 16 17 19 21 22 20 17 16 12 13 13 14 14 14 15 14 14 15 15 15 15 15 16 17 18 16 16 17 17
17 20 13 12 11 9 7 6 6 6 4 4 11 15 16 18 20 20 18 15 11 12 12 12 13 14 14 14 14 14 15 15 15 15 15 17 17 16 16 16 17 17 17
14 13 12 11 10 9 6 7 7 5 4 5 8 11 14 19 18 16 14 10 11 11 12 13 14 14 14 15 14 14 13 13 16 17 15 15 17 17 16 17 18 22 23
15 18 14 10 7 5 6 7 6 5 6 7 8 9 10 13 10 9 9 10 11 11 12 14 14 15 15 14 13 13 13 14 14 14 15 17 18 20 19 20 19 20 20
15 14 13 6 5 5 8 8 6 6 7 8 9 11 17 11 9 9 10 10 11 12 13 14 15 15 14 14 14 13 14 14 14 14 16 18 19 20 21 22 21 21 22
11 9 7 5 5 7 9 7 6 8 8 9 10 10 15 11 10 11 12 12 13 13 15 15 14 14 15 15 15 15 14 14 15 16 18 18 18 20 22 23 22 24 26
6 5 5 5 6 10 7 7 8 8 10 10 10 10 10 12 12 13 13 13 14 14 14 14 14 14 14 15 18 17 17 17 18 19 18 18 20 21 24 27 28 27 27
5 5 4 5 8 6 6 8 8 10 11 11 10 11 13 13 13 13 14 11 13 9 13 13 14 13 13 14 16 19 20 20 21 21 21 22 27 30 31 29 28 28 28
5 4 4 5 6 6 7 7 8 10 11 11 12 12 13 13 12 11 11 11 10 11 12 13 13 12 11 11 14 17 20 25 27 29 30 30 31 32 31 29 29 29 27
5 4 5 6 7 7 7 9 11 12 12 12 12 11 11 12 12 11 11 11 10 12 11 12 12 11 11 12 14 20 26 28 28 30 32 32 31 31 31 30 30 28 27

GFSGL_sfc_dewp_030.txt.gz
Dewpoint
46 46 48 52 55 51 50 49 47 45 44 43 42 41 39 37 33 30 28 27 26 27 27 27 25 25 27 26 25 24 24 23 20 20 20 20 20 21 23 24 26 25 25
45 47 49 52 48 49 49 45 44 42 41 41 39 38 35 32 29 28 27 30 31 30 29 30 28 23 25 25 26 23 21 21 20 19 20 21 22 23 24 24 24 24 25
44 45 47 49 48 47 46 43 42 41 40 40 38 34 32 31 30 29 30 31 31 32 32 30 26 24 23 24 23 23 22 21 21 21 21 23 24 24 24 24 24 25 26
44 44 44 46 46 45 43 40 39 39 37 35 33 32 32 32 32 33 32 32 31 30 30 29 27 25 25 24 22 21 21 21 21 22 22 22 23 24 24 24 22 22 22
40 40 41 42 43 40 38 36 35 34 32 32 33 33 34 34 34 34 33 32 32 29 28 26 25 25 27 26 23 24 23 23 23 21 22 22 22 24 23 23 22 22 22
34 35 35 35 35 36 35 34 34 33 34 35 35 35 35 35 37 35 31 29 29 28 29 27 24 24 25 26 26 27 26 24 20 19 17 22 23 23 22 22 22 22 21
33 33 32 32 32 33 34 34 35 34 35 35 36 35 36 36 37 36 34 31 30 29 27 23 21 21 25 22 25 27 27 28 28 25 24 23 22 22 22 21 23 24 23
35 34 35 35 35 35 35 34 34 34 34 34 34 34 35 37 38 37 35 30 29 28 25 23 23 22 24 24 24 25 25 25 25 24 24 24 24 24 25 27 25 23 23
36 37 36 36 35 34 34 33 33 33 33 33 33 33 32 33 37 33 29 24 21 21 21 22 23 23 25 26 25 23 24 23 24 26 26 27 28 27 25 22 20 19 18
35 35 35 35 34 33 33 32 33 33 32 32 32 32 35 33 35 33 24 20 19 19 21 21 24 22 25 26 25 23 20 20 21 22 20 19 20 19 25 21 18 16 18
36 36 35 35 34 33 33 33 32 31 30 30 28 23 23 18 19 22 27 20 19 21 21 20 21 24 26 27 27 20 20 21 20 17 16 17 18 19 19 21 21 16 19
33 33 33 33 34 33 30 29 27 19 14 13 13 13 14 16 26 26 24 22 24 21 21 21 22 27 26 25 22 23 23 22 16 16 16 17 18 19 20 20 21 21 21
19 17 17 15 14 13 12 12 13 13 13 13 13 12 12 13 14 21 22 23 23 22 22 24 27 23 21 19 20 21 20 17 16 16 17 18 18 18 19 19 20 20 20
14 14 14 13 13 13 14 14 13 13 13 12 11 10 12 14 14 17 19 21 23 23 24 22 19 17 17 17 15 15 16 16 17 18 17 17 18 16 18 19 18 18 18
15 14 13 13 13 13 12 9 9 9 10 11 12 11 12 13 15 20 21 21 22 22 20 14 12 13 14 13 13 14 15 15 17 17 16 16 16 17 17 18 18 18 17
13 13 14 15 16 17 18 19 23 23 22 21 20 17 15 17 19 20 22 22 22 20 14 11 12 14 13 13 13 14 15 16 16 16 15 15 15 15 16 17 19 17 16
15 15 16 12 11 10 10 9 8 12 18 18 18 18 18 18 19 21 21 20 17 16 11 12 13 13 13 14 14 13 13 14 11 13 13 13 15 14 18 16 17 17 17
17 18 12 11 9 8 6 6 6 4 2 3 12 16 17 19 20 20 18 14 10 12 12 12 12 13 14 14 14 14 14 14 13 13 12 13 16 16 15 17 19 19 17
14 13 11 10 9 8 6 7 6 4 4 6 8 11 15 19 19 17 15 9 10 11 11 12 13 13 14 15 15 13 11 12 14 16 14 15 16 17 17 19 20 24 24
14 17 14 9 6 5 7 6 5 5 5 7 8 8 10 14 11 9 9 10 10 11 12 13 14 14 14 14 13 13 12 13 13 12 13 16 17 18 19 20 21 21 21
16 14 14 6 5 5 7 7 6 6 6 8 8 10 17 12 10 9 10 11 11 12 13 13 13 12 11 10 13 13 13 13 14 13 14 15 16 17 19 21 22 23 23
13 10 6 5 5 8 9 7 6 7 8 9 10 10 16 11 11 11 12 13 13 13 14 14 12 11 11 10 13 14 14 13 16 18 15 16 17 18 20 21 22 23 25
7 5 5 5 5 10 6 7 8 8 9 11 10 10 10 11 12 13 13 13 14 14 13 13 12 11 11 11 11 15 15 16 18 19 18 18 18 20 21 22 28 28 27
5 4 3 4 7 7 6 8 7 10 11 11 11 11 12 13 13 13 13 11 12 10 11 12 12 11 11 11 12 14 17 19 20 20 20 20 22 26 28 29 29 28 28
5 4 3 4 5 5 6 7 8 9 11 11 11 12 13 13 12 11 10 10 10 10 11 12 12 11 9 9 10 12 17 22 25 28 28 28 28 29 30 30 30 29 28
4 3 4 5 6 6 7 8 10 11 12 11 11 10 11 11 12 11 11 11 10 11 11 12 12 10 10 10 12 16 24 27 28 29 30 30 30 30 30 30 31 29 28

GFSGL_sfc_dewp_033.txt.gz
Dewpoint
45 45 48 50 52 54 53 54 54 52 50 48 47 46 45 43 42 42 40 36 32 29 29 28 28 28 29 29 29 27 26 25 21 22 21 21 21 22 23 25 26 26 25
44 45 47 50 51 50 51 50 48 47 45 45 44 43 41 40 39 37 34 32 30 30 32 33 32 31 32 31 30 28 27 25 24 21 21 21 22 23 25 25 24 24 24
43 45 46 48 49 48 48 45 45 43 43 42 41 39 37 35 32 30 30 32 33 33 34 33 31 31 30 30 30 29 28 27 27 23 21 23 24 25 25 25 25 25 24
40 43 45 46 47 46 44 42 42 42 41 40 37 34 33 31 31 32 34 34 33 33 33 32 32 31 30 30 31 31 30 27 26 23 23 25 25 25 25 25 23 23 21
36 36 38 41 41 39 38 38 37 37 35 35 34 34 35 35 35 34 34 33 33 33 32 32 32 31 32 32 30 29 28 28 27 28 25 25 25 24 23 23 22 21 23
34 33 34 34 35 36 35 36 36 35 35 35 35 36 37 38 39 38 34 31 30 30 30 31 31 33 33 34 33 32 31 30 29 27 27 23 24 24 23 22 23 24 22
34 34 34 34 35 35 35 35 35 36 37 37 37 38 37 37 38 38 35 32 32 31 31 30 30 30 31 29 29 29 27 28 28 27 25 24 23 23 26 26 26 25 23
36 36 35 35 35 35 35 35 35 35 35 35 36 36 36 38 39 38 36 32 31 30 30 29 29 29 28 26 25 27 27 26 25 25 25 24 25 25 27 28 26 24 22
35 35 35 35 34 34 34 34 34 34 33 33 33 33 33 34 37 36 31 29 28 27 28 25 23 22 23 24 25 28 25 24 23 25 26 27 28 27 26 23 24 23 20
35 36 35 35 34 33 33 32 33 33 32 33 32 32 35 33 33 32 28 20 21 20 21 21 23 22 24 25 26 27 22 20 21 22 21 20 20 19 24 21 23 22 21
36 35 35 35 34 33 32 32 32 32 31 30 30 30 30 30 32 30 25 20 19 21 21 20 20 24 26 28 26 20 20 21 20 17 16 16 17 18 19 20 22 24 22
34 34 34 34 35 33 31 30 28 25 19 16 15 16 16 19 28 27 25 25 25 21 21 21 22 27 26 24 21 21 22 22 16 14 16 17 19 21 22 23 23 23 23
20 17 15 14 13 13 13 13 13 13 14 13 12 12 11 12 16 23 23 23 22 22 22 24 25 22 20 18 19 19 19 15 15 16 17 20 21 22 23 23 24 24 24
13 14 13 13 13 13 13 13 13 14 13 11 10 9 11 13 15 18 20 21 23 23 25 21 19 17 17 16 14 13 14 15 17 18 17 17 18 21 21 22 21 21 21
14 12 12 12 11 11 10 8 9 9 10 9 10 10 11 13 17 20 21 21 22 22 21 14 11 11 12 12 13 14 15 16 18 18 17 17 16 18 20 21 21 21 20
12 13 15 16 17 19 19 20 24 23 23 22 20 16 15 18 19 20 22 21 21 19 13 10 11 12 13 13 14 15 15 17 17 18 18 17 17 18 19 20 22 22 21
14 14 16 13 13 14 14 14 14 14 19 20 19 18 18 18 20 21 21 19 16 15 10 12 12 13 15 16 16 17 17 17 17 17 17 17 17 18 19 20 20 21 22
16 18 11 10 8 7 6 5 5 3 1 3 11 16 18 19 20 19 18 11 8 10 11 11 14 15 16 17 17 17 17 16 16 16 17 17 17 19 19 19 20 22 23
15 13 10 9 8 7 6 6 5 4 4 6 8 10 14 19 18 17 14 9 9 10 10 13 14 15 16 17 17 17 16 16 17 19 18 17 18 19 19 20 21 24 25
14 16 14 10 7 5 6 5 5 5 5 7 7 8 10 15 13 11 10 10 11 11 11 13 14 15 16 16 16 16 16 16 17 17 17 17 18 19 19 19 20 21 22
17 16 13 5 4 5 7 7 6 6 6 7 8 10 17 14 12 10 10 11 12 12 14 14 15 15 16 15 14 15 15 16 16 17 18 18 18 18 19 20 21 22 23
14 10 6 5 5 8 8 6 6 7 8 8 9 10 16 11 11 11 12 12 13 13 14 15 15 15 15 15 15 15 15 16 17 18 19 20 19 20 20 21 22 23 24
9 6 5 4 5 11 6 6 7 7 8 10 11 10 10 11 11 12 13 12 13 14 15 14 15 14 15 14 15 15 14 16 18 20 19 19 20 20 21 22 23 25 28
6 5 4 4 6 7 5 6 8 9 10 10 11 11 11 12 12 12 13 14 14 15 14 14 14 14 14 14 15 15 15 17 19 19 20 19 20 21 24 26 27 28 29
5 4 3 4 4 5 5 6 7 8 10 11 11 11 11 12 12 13 13 13 13 13 13 13 14 14 13 12 13 13 16 20 22 24 26 27 27 26 26 27 28 29 29
4 3 3 4 5 6 6 7 8 11 11 12 12 12 12 12 13 13 13 13 13 13 13 14 14 13 13 14 14 16 23 26 27 28 29 28 28 29 29 29 29 29 30

GFSGL_sfc_dewp_036.txt.gz
Dewpoint
44 44 45 48 50 51 52 52 52 54 55 55 54 54 53 51 49 49 48 45 43 40 38 37 35 34 32 32 31 31 31 32 30 29 26 26 28 29 27 25 26 24 24
42 44 45 48 49 51 51 51 51 51 51 51 49 49 49 48 46 45 45 43 39 37 37 35 31 31 33 33 34 33 32 31 30 29 31 31 31 31 29 26 24 23 24
41 43 45 47 48 49 49 48 47 47 46 45 45 45 45 44 43 42 39 38 34 34 34 34 34 34 33 33 32 32 32 32 31 30 31 29 29 30 30 28 26 24 22
38 40 41 44 46 45 44 44 44 44 43 42 41 40 38 38 35 33 35 36 36 36 35 35 36 33 33 33 33 33 33 33 32 30 27 28 30 30 29 26 23 23 21
36 36 38 39 40 40 39 39 38 37 37 36 36 35 35 35 34 35 35 35 35 35 34 33 34 34 36 35 34 33 33 31 31 31 29 30 29 25 22 23 22 21 21
35 35 36 37 37 37 37 37 37 37 37 37 37 37 38 37 38 38 35 35 34 33 32 32 33 34 35 36 37 35 33 32 32 30 30 26 22 22 22 22 22 23 22
36 35 36 36 36 36 36 36 37 37 38 38 38 38 38 39 40 39 37 34 33 32 32 32 33 34 33 31 32 33 33 34 33 28 25 23 22 22 26 27 25 25 24
36 35 35 36 35 35 35 35 35 35 36 36 36 37 38 38 39 38 36 32 32 32 32 31 30 30 30 29 27 27 27 26 25 24 25 24 24 24 25 28 27 26 23
36 35 35 35 35 35 34 34 34 34 33 33 34 34 33 34 37 36 33 31 29 28 28 28 25 23 22 25 25 28 24 24 25 26 26 26 27 28 27 24 24 25 22
35 35 36 36 35 33 33 33 34 33 33 33 32 32 35 33 33 31 26 26 25 22 21 21 23 21 22 25 25 25 24 23 22 21 20 21 21 19 22 22 25 25 23
36 36 36 35 35 34 34 34 34 34 33 32 32 32 32 33 31 27 23 20 19 20 19 17 18 24 26 28 26 24 22 21 20 20 18 15 16 19 20 21 23 26 24
35 34 34 34 34 34 33 33 32 28 24 20 19 19 21 25 27 26 26 25 23 18 19 19 21 26 26 24 23 21 22 22 19 13 13 16 19 24 26 26 26 27 26
27 24 22 19 17 15 14 15 14 14 14 13 13 13 12 12 20 24 24 23 23 22 22 24 24 22 21 19 17 20 21 15 12 15 17 22 25 25 27 26 28 27 28
15 14 14 13 12 12 13 13 13 13 12 10 9 8 9 11 16 19 20 21 21 22 24 23 20 18 17 16 15 13 13 14 16 19 19 19 20 23 23 25 25 25 25
14 13 13 12 9 8 10 10 8 9 10 7 9 9 10 12 18 21 21 20 21 21 23 16 10 9 11 11 12 14 16 16 19 20 20 19 18 20 22 24 24 24 24
12 13 14 15 17 19 20 20 24 23 23 21 19 17 14 18 20 20 21 22 21 19 15 8 9 11 12 12 14 16 18 20 20 21 21 22 21 22 22 23 24 24 23
14 14 15 15 15 15 16 14 14 18 21 20 19 18 18 20 20 21 21 20 17 16 8 9 12 14 15 17 19 20 21 21 22 21 22 22 21 21 21 22 23 23 24
15 17 12 11 9 7 5 4 4 2 -0 1 10 16 16 19 20 19 19 15 8 9 9 10 15 15 17 19 21 21 21 21 21 21 22 22 21 21 21 22 23 23 24
16 14 11 9 7 6 5 5 3 2 2 4 6 9 11 17 19 18 16 9 9 9 9 12 14 16 18 20 21 21 21 20 21 21 22 21 21 22 21 21 22 23 24
14 15 12 9 9 5 5 4 3 3 3 4 5 6 9 13 14 13 11 10 10 10 10 13 15 17 19 20 21 20 20 20 20 21 22 22 22 22 21 21 21 22 21
15 16 13 5 4 3 4 4 4 4 4 5 6 8 17 15 14 10 9 10 10 11 14 15 16 18 19 20 20 19 19 19 19 21 22 22 23 22 22 22 21 21 21
16 14 10 5 4 5 6 5 4 5 6 6 7 9 15 11 9 9 10 11 11 11 14 16 18 18 19 20 19 19 18 18 19 20 22 22 23 23 23 23 23 22 23
13 8 5 4 4 9 10 5 5 6 6 8 9 9 9 9 9 11 11 11 12 15 16 17 18 18 19 19 20 20 19 19 20 20 21 21 21 22 23 23 23 23 23
9 6 4 3 4 5 4 4 6 8 8 8 9 9 10 10 11 12 13 16 16 18 18 17 17 18 18 18 18 19 20 20 20 21 21 20 20 21 22 22 24 26 26
6 4 3 3 3 7 4 5 6 7 8 9 10 10 11 12 13 16 17 17 17 17 17 17 18 18 18 18 18 17 19 21 22 23 24 24 25 26 27 27 26 26 28
5 3 2 2 3 3 4 6 7 9 11 14 15 17 16 16 16 18 18 18 18 18 18 18 18 19 18 19 19 20 23 25 26 28 29 28 27 27 28 29 29 29 29

GFSGL_sfc_dewp_039.txt.gz
Dewpoint
42 42 43 45 46 49 50 51 51 51 52 54 54 55 55 56 55 54 53 52 52 50 47 44 40 39 38 38 37 37 35 36 33 31 32 32 32 33 34 34 33 30 27
41 42 44 45 47 48 49 49 49 50 50 50 49 50 50 51 50 50 49 47 48 43 42 40 38 37 35 36 36 34 33 34 33 32 33 33 33 33 33 33 31 27 28
40 41 42 44 46 46 45 46 46 47 47 46 46 45 45 45 45 46 44 43 43 41 39 37 35 35 35 34 34 33 33 34 33 33 32 33 33 34 32 31 30 29 28
38 38 40 41 42 42 41 41 41 42 42 40 39 37 38 36 36 37 37 37 37 37 37 36 36 35 35 34 34 33 33 32 32 31 32 32 32 31 32 30 28 29 25
37 37 38 39 39 39 39 39 39 39 38 38 37 36 35 36 36 36 36 36 35 35 35 35 35 35 36 35 34 33 33 32 32 32 32 31 30 28 28 27 25 24 24
36 36 37 37 38 38 38 38 38 38 38 38 37 37 37 37 38 38 37 36 35 34 33 34 35 36 37 37 36 36 35 33 33 32 30 27 26 25 24 24 26 25 23
35 36 36 36 36 37 37 37 37 38 38 38 39 39 39 39 40 39 37 34 34 33 32 32 33 34 34 33 35 35 35 34 32 31 28 26 24 24 29 28 26 26 24
35 35 35 35 35 36 36 36 36 35 35 35 34 35 36 38 39 38 36 32 32 32 32 32 32 32 31 29 27 29 29 28 28 26 26 25 26 26 26 27 27 27 25
35 35 35 35 35 35 35 35 35 34 33 33 33 33 33 34 37 36 33 32 31 31 31 30 27 24 26 26 26 30 26 25 25 27 27 27 27 28 27 26 26 24 23
36 36 36 34 35 34 34 33 35 34 33 33 32 32 33 33 34 32 30 27 26 22 22 23 22 23 23 24 26 26 26 24 24 22 21 22 23 23 23 22 25 23 24
37 36 36 35 35 35 34 34 34 33 32 32 32 32 33 32 29 27 24 21 20 19 18 17 20 24 26 27 27 25 24 23 22 20 20 19 16 18 21 23 24 26 25
35 35 35 35 35 35 34 34 34 29 22 19 19 20 24 24 27 26 27 26 24 19 20 20 23 26 26 25 24 23 23 22 20 18 14 14 20 25 28 28 27 27 27
30 29 26 21 19 17 16 15 16 15 15 14 15 14 13 14 19 24 25 24 24 23 23 25 24 23 22 20 16 19 21 18 14 14 16 23 26 27 26 26 27 28 28
18 15 14 13 13 13 16 16 15 14 13 11 10 10 11 12 17 20 21 22 21 22 22 25 21 21 17 16 16 13 14 14 16 19 20 20 21 24 24 25 25 24 25
15 15 14 13 9 11 16 15 13 14 15 10 13 12 12 14 19 22 22 22 22 22 22 20 14 9 12 12 12 14 16 17 20 21 21 21 20 21 22 24 24 24 23
13 15 16 17 18 20 20 20 25 24 23 22 21 20 16 18 21 22 22 23 23 22 17 11 9 12 13 12 14 16 19 21 21 22 22 22 22 22 21 22 22 23 23
15 16 18 18 17 17 18 16 16 20 21 20 19 19 19 21 21 22 22 21 22 18 11 11 13 15 16 18 20 22 21 22 24 22 22 23 23 21 21 21 22 23 23
17 21 17 17 14 13 10 7 6 4 2 3 13 14 16 19 20 21 21 20 12 10 9 10 15 17 18 20 21 21 21 21 22 22 22 21 21 22 22 21 21 21 21
17 17 16 14 12 9 8 6 5 4 2 3 6 9 11 13 18 20 19 13 9 9 10 13 15 17 19 20 22 21 22 21 21 21 21 21 22 22 21 21 21 23 23
17 17 15 11 11 7 7 6 4 3 3 3 5 6 8 10 14 14 13 11 10 10 11 14 16 18 19 20 21 22 21 21 21 21 21 21 22 23 22 21 21 20 20
17 17 15 10 7 6 6 5 5 4 3 4 6 7 14 15 14 12 9 10 10 11 14 16 18 19 20 21 20 20 20 20 20 20 20 20 22 21 22 22 22 21 21
17 17 15 8 7 6 6 6 5 4 5 6 7 8 13 13 10 9 10 10 11 11 15 16 18 19 20 20 20 20 19 18 19 19 19 19 21 22 22 22 21 21 21
16 14 9 7 6 7 11 6 4 5 6 7 8 8 8 8 9 10 11 11 12 15 18 18 19 19 20 20 20 20 19 18 18 19 19 19 19 20 20 20 20 20 20
15 11 7 5 6 8 6 4 5 9 9 7 8 8 9 10 11 12 14 18 18 20 19 19 19 18 18 19 19 19 19 20 20 20 20 19 18 18 19 19 20 20 21
12 9 6 5 5 8 6 6 6 6 7 8 9 10 12 13 15 18 19 19 19 19 19 19 19 19 18 17 18 18 19 22 23 23 23 22 20 20 20 22 24 25 25
10 6 4 4 5 3 3 5 6 8 10 16 17 18 19 18 18 19 20 20 20 20 19 20 19 19 19 19 19 21 25 26 27 28 28 27 26 25 25 26 27 27 28

GFSGL_sfc_dewp_042.txt.gz
Dewpoint
41 41 43 44 46 48 50 49 49 49 50 50 51 51 52 53 54 54 53 52 52 51 49 48 43 41 40 39 39 39 38 39 36 33 34 34 33 33 35 36 36 36 35
39 40 42 44 46 46 46 46 48 47 48 47 47 47 47 48 49 49 49 48 49 46 43 42 40 39 39 38 37 36 36 37 37 33 33 33 34 35 34 34 33 31 29
38 39 40 41 42 42 42 41 42 43 43 41 40 40 40 41 43 42 42 43 42 42 41 39 39 37 36 36 36 36 36 36 35 35 33 33 33 34 34 34 32 31 29
38 38 38 40 40 40 40 40 40 39 38 37 36 36 36 36 37 38 38 37 37 37 37 37 37 36 35 35 36 34 34 33 33 33 32 32 33 34 33 32 30 30 30
37 38 38 39 38 38 38 39 39 39 38 38 37 37 37 37 37 37 36 36 36 35 36 36 36 37 36 36 34 33 33 32 32 32 32 32 31 30 29 29 29 27 25
36 37 37 37 37 38 38 38 38 38 39 39 38 38 38 38 39 38 36 35 34 34 33 33 34 37 38 38 38 37 34 33 32 32 31 27 26 26 27 25 25 23 21
35 36 36 36 35 36 36 36 36 36 36 36 37 38 38 38 39 38 37 33 33 32 32 32 33 34 34 33 37 37 36 35 33 31 28 27 24 24 26 25 24 23 23
35 35 35 35 35 35 36 35 35 35 34 34 34 35 36 37 38 37 35 31 31 32 32 32 31 31 32 31 31 31 30 29 28 27 26 26 25 26 25 24 25 25 25
35 34 34 34 35 35 35 34 34 33 33 33 33 33 33 34 36 35 31 28 29 30 31 31 31 31 31 28 26 27 26 25 26 28 26 26 27 27 27 25 21 18 20
35 35 35 36 35 34 34 33 34 32 32 32 32 32 32 28 31 28 29 29 28 27 25 24 22 22 24 25 26 25 25 22 23 21 20 22 23 21 23 23 22 12 14
36 36 35 35 35 34 34 33 33 31 29 23 28 31 31 27 27 29 26 23 20 19 18 18 23 25 27 27 27 24 23 24 22 20 20 19 18 17 18 20 22 17 12
35 35 35 35 35 34 33 32 27 27 21 19 19 19 21 24 27 27 27 25 25 21 20 22 26 27 25 25 24 23 23 22 20 18 15 13 16 19 22 23 26 26 27
31 30 29 27 27 27 21 17 16 15 15 14 14 14 11 12 18 22 23 24 24 23 23 24 24 23 22 19 19 19 20 17 15 15 15 18 19 19 19 19 21 27 27
19 15 14 14 14 14 15 14 14 13 12 10 9 10 10 12 17 21 22 22 25 24 24 23 21 19 14 14 14 13 14 14 15 19 20 20 20 18 19 20 19 24 24
15 15 15 14 11 17 23 24 16 18 19 11 15 13 13 16 21 22 22 22 22 23 22 19 16 10 12 12 13 14 15 16 19 19 21 21 20 21 22 23 24 24 23
14 15 15 16 18 20 21 21 24 24 22 22 21 19 19 19 21 22 23 23 24 23 18 15 11 14 15 14 15 17 20 21 21 22 23 22 22 22 22 22 24 23 22
15 16 17 18 18 18 17 17 18 21 21 20 19 18 18 20 21 22 23 23 23 21 12 12 14 15 16 17 17 15 20 21 23 23 22 22 23 22 21 21 21 21 20
17 24 17 17 15 14 11 7 6 4 3 4 15 13 16 18 19 21 22 21 15 11 12 10 14 16 16 15 14 16 20 22 22 22 22 22 22 22 21 21 21 20 20
17 17 16 14 11 10 8 6 5 4 3 4 6 9 13 13 16 19 20 17 13 11 11 13 15 15 14 13 14 13 20 21 21 22 22 22 21 21 21 21 20 22 23
18 21 18 12 12 7 7 6 5 4 4 4 5 6 8 11 14 15 14 12 11 11 11 14 15 15 13 9 10 11 14 17 17 15 16 17 19 19 19 20 20 20 19
18 18 19 11 10 7 7 6 6 4 4 5 6 7 13 15 15 14 11 10 10 11 13 15 14 12 10 10 10 12 14 17 17 16 16 17 17 17 19 20 20 20 20
18 18 16 10 8 7 7 7 6 5 5 6 7 8 14 12 12 10 10 11 12 12 14 15 13 12 12 11 12 12 13 15 16 15 15 17 18 19 20 21 20 20 20
18 17 14 9 8 9 10 8 6 5 6 7 8 8 8 9 9 10 11 12 13 14 15 16 15 14 13 14 13 14 16 17 17 17 17 17 18 18 19 18 18 18 18
17 15 11 7 8 7 10 8 5 8 9 9 8 8 10 10 11 12 13 13 16 13 16 16 16 15 16 15 16 16 17 18 19 19 18 18 18 18 18 17 17 18 19
16 12 8 7 7 9 6 7 6 7 7 7 8 10 11 13 14 15 15 15 15 15 15 17 17 16 15 14 15 17 19 23 24 24 23 21 19 18 18 18 18 19 20
14 10 7 6 7 6 7 5 6 8 9 15 16 16 16 17 17 16 16 18 20 20 16 18 18 16 16 17 19 21 25 27 27 29 29 28 26 25 24 24 24 24 25

GFSGL_sfc_dewp_045.txt.gz
Dewpoint
39 40 42 44 46 46 46 47 47 48 47 47 48 48 48 49 50 50 51 52 52 51 50 50 46 45 43 41 41 42 42 43 41 34 35 36 36 38 39 37 38 37 37
38 39 40 41 41 41 41 41 43 42 40 39 39 40 40 43 44 47 47 47 47 45 45 43 41 40 39 39 39 38 39 39 37 34 34 33 35 35 36 35 36 36 36
38 38 39 39 39 39 40 40 39 39 37 37 36 36 36 38 39 40 40 40 41 41 41 40 39 38 37 37 37 37 37 38 36 35 33 33 32 34 34 35 34 34 32
38 38 38 38 38 38 39 39 39 38 37 37 36 36 37 37 37 37 37 37 37 37 37 37 37 37 36 36 36 35 34 34 34 34 33 32 33 34 34 33 32 31 30
37 37 38 38 38 38 38 38 38 39 38 38 38 38 38 38 37 35 35 35 35 36 36 36 37 37 37 36 35 34 34 33 33 33 32 32 32 32 31 31 30 29 26
36 37 37 37 36 37 37 37 38 38 38 38 38 38 37 37 38 38 35 34 34 34 33 34 35 36 38 39 38 36 35 34 33 32 32 30 30 28 28 28 25 23 21
36 36 35 36 36 36 36 36 36 36 36 35 36 37 37 37 38 38 37 33 33 32 33 33 33 34 33 32 36 37 36 37 34 32 28 28 25 24 24 24 24 23 22
35 35 35 36 36 36 36 36 35 35 34 34 34 35 36 37 38 36 35 28 29 30 31 29 31 30 32 31 31 31 30 28 27 27 28 26 25 25 26 24 24 24 25
35 35 35 36 35 35 35 34 34 33 32 32 33 33 33 34 34 33 29 24 25 26 28 29 28 29 29 25 27 27 26 25 25 29 27 26 26 27 26 25 20 17 19
35 35 36 36 35 34 34 33 33 33 32 32 31 26 30 23 28 28 28 27 24 25 25 22 24 24 26 27 26 23 23 22 23 22 20 21 22 21 24 22 21 12 12
36 35 35 35 34 34 33 33 32 26 23 27 29 30 26 25 27 29 26 22 19 18 18 20 24 26 27 27 26 23 23 24 22 20 20 19 16 15 18 20 22 14 8
36 36 35 34 34 33 32 30 26 24 20 20 20 19 20 22 25 26 25 25 25 21 21 24 25 26 24 24 22 22 21 22 19 18 15 13 16 18 20 22 25 22 21
33 32 32 32 32 31 29 27 20 17 15 14 15 13 10 12 17 24 25 24 25 22 23 25 24 23 22 19 19 19 18 15 14 15 17 18 17 17 17 18 20 23 22
30 24 15 14 14 14 14 15 14 13 12 10 9 10 11 14 20 22 22 22 24 23 23 22 22 21 16 14 14 14 14 14 14 18 19 19 21 17 18 19 16 20 20
17 14 15 15 13 21 23 15 16 18 16 11 15 13 12 16 20 22 22 22 22 23 22 17 15 11 13 13 13 15 17 18 19 19 20 21 19 20 21 23 23 23 21
15 16 15 14 14 20 22 21 24 24 22 22 23 19 19 20 22 22 23 24 24 24 19 15 13 15 15 14 15 17 19 20 21 21 23 22 21 22 22 23 24 22 20
16 15 17 18 19 19 20 20 18 21 22 21 19 17 17 18 20 21 22 23 23 21 15 13 13 15 15 16 15 13 13 20 23 23 23 23 23 23 21 20 20 21 19
16 23 18 18 18 18 16 11 7 5 3 3 14 15 15 16 17 19 21 21 16 13 11 11 12 14 14 13 12 12 14 17 20 20 22 21 22 21 20 20 20 19 18
17 22 18 17 16 15 9 7 6 4 4 4 6 8 13 14 16 17 20 18 16 13 11 13 14 14 13 12 12 9 8 13 15 17 17 14 15 12 18 19 19 21 22
18 22 20 14 12 9 7 6 5 4 4 4 5 5 8 10 15 15 15 13 12 11 11 13 14 14 12 8 8 9 10 14 14 15 14 14 14 14 17 17 18 18 19
20 22 23 13 12 9 7 7 6 5 4 4 5 7 13 13 15 14 13 10 10 11 13 14 13 11 7 6 5 8 11 13 14 14 14 15 14 15 17 18 19 19 19
20 19 20 13 12 9 8 7 7 6 5 5 7 7 14 12 11 11 10 10 11 12 14 14 12 10 10 9 10 9 10 12 13 14 13 14 15 17 17 18 18 18 18
19 18 18 12 10 12 11 8 7 6 5 6 7 8 8 9 9 10 11 12 13 14 14 15 14 13 12 12 11 11 12 14 15 16 16 16 16 17 17 17 16 16 17
19 18 17 12 10 9 9 10 9 9 6 7 8 8 9 10 11 12 13 13 15 13 14 15 15 14 15 15 15 13 15 17 18 19 18 17 16 17 17 17 17 17 17
26 21 14 11 9 11 8 10 6 5 6 7 7 8 10 12 13 15 14 15 14 15 16 16 16 15 14 13 14 15 18 23 24 24 23 20 19 18 18 19 19 19 19
27 26 16 10 9 8 9 7 7 7 8 13 13 15 16 16 17 15 15 15 15 18 18 17 17 15 14 15 16 19 25 27 27 29 29 28 26 25 25 24 24 23 23

GFSGL_sfc_dewp_048.txt.gz
Dewpoint
38 39 41 42 43 43 42 43 44 41 40 40 42 43 44 45 46 47 47 47 48 49 48 49 47 46 45 44 44 43 43 43 43 37 36 37 37 40 42 39 40 40 40
38 39 40 40 40 40 40 39 39 38 37 37 37 37 38 40 40 42 43 43 44 44 43 43 41 41 40 39 40 39 40 40 39 36 34 34 35 37 37 37 38 38 38
38 38 39 38 39 38 39 39 38 37 37 36 37 37 37 37 37 38 39 39 39 39 39 40 39 39 38 38 38 37 37 38 36 36 33 33 33 34 33 35 35 36 36
37 38 37 37 38 38 38 38 39 38 37 37 37 38 38 36 36 36 36 35 36 37 37 37 37 37 36 36 36 35 35 35 35 34 34 33 33 33 34 34 33 35 34
37 38 38 38 38 38 38 38 38 38 38 38 37 37 37 37 36 34 34 34 34 35 36 37 38 38 38 37 35 34 34 33 33 33 33 33 33 32 31 33 32 31 29
36 37 37 37 37 37 37 37 37 37 37 37 37 36 37 36 38 38 35 34 34 34 33 33 35 36 37 40 39 38 37 34 33 32 32 30 31 31 31 30 28 24 21
36 36 36 36 36 37 37 37 36 36 36 36 36 37 37 37 38 37 36 33 33 32 31 29 31 32 32 33 35 36 36 37 36 32 30 27 26 24 25 22 23 20 21
35 35 36 36 36 36 36 35 35 34 34 34 34 35 36 36 37 36 34 26 24 22 23 22 22 26 31 31 28 27 27 27 27 27 28 26 25 25 25 23 23 23 24
35 35 35 36 36 35 34 34 33 32 32 33 33 33 33 28 31 31 27 19 22 22 25 26 25 25 25 27 25 25 24 23 25 29 27 27 26 26 27 25 19 16 19
35 35 36 36 35 34 33 33 33 32 32 29 24 21 29 20 29 29 26 24 22 22 20 19 27 26 28 29 25 23 22 22 23 23 21 21 22 21 24 22 21 10 11
35 36 36 35 34 33 33 32 29 28 29 29 29 30 23 24 26 27 26 22 19 19 19 21 24 28 27 26 25 22 23 24 22 20 19 18 15 15 18 20 21 13 6
36 35 35 33 33 32 31 30 26 22 21 22 22 19 18 19 25 24 25 25 25 21 22 24 24 26 24 24 21 21 20 21 17 17 15 13 16 17 20 21 24 21 19
34 34 32 31 32 30 27 26 26 23 17 16 16 13 10 11 17 26 26 26 27 23 23 25 26 25 23 19 19 18 18 14 14 15 16 17 16 16 15 17 19 22 20
31 30 29 28 26 24 20 17 16 15 13 11 9 10 11 13 20 21 22 21 24 23 23 21 19 20 16 15 14 14 14 14 14 16 19 19 20 15 17 21 22 22 16
29 25 16 15 16 14 15 12 13 15 12 10 12 12 12 15 18 22 22 22 22 24 22 17 13 10 14 13 14 16 18 20 19 19 20 20 19 20 20 20 23 23 19
24 16 16 16 14 20 23 23 24 24 23 22 23 18 18 21 22 22 23 23 24 24 20 15 12 14 15 14 15 15 17 19 20 21 21 23 22 22 21 23 23 19 19
22 16 17 17 14 19 20 19 19 21 24 23 22 20 19 19 20 20 21 23 23 20 14 14 13 13 14 15 14 12 11 15 13 20 23 22 22 22 20 19 18 19 19
19 23 17 19 18 19 20 19 17 10 7 4 14 21 18 18 18 18 19 21 18 15 11 11 12 13 13 13 11 10 11 14 14 15 13 20 21 21 19 18 17 16 16
18 20 20 19 19 19 17 13 8 6 4 3 5 9 12 15 16 17 19 17 17 16 13 13 13 13 13 12 11 8 6 9 10 7 7 10 10 9 14 15 16 20 20
18 23 23 18 17 17 11 8 6 5 4 4 4 5 7 10 12 15 15 15 14 12 11 13 13 13 11 8 7 6 7 11 11 10 10 9 10 9 12 14 15 15 16
22 24 26 17 14 12 9 8 7 6 4 4 4 6 14 12 13 14 13 12 11 11 13 13 13 11 8 6 4 6 8 10 11 11 11 12 10 11 14 15 16 17 17
24 22 24 17 14 12 9 8 7 6 6 5 5 7 15 13 12 11 10 10 11 11 14 14 12 10 9 8 8 7 8 10 11 11 11 12 12 14 15 16 16 16 17
21 20 21 15 13 14 13 8 7 7 6 5 6 6 7 9 9 10 11 11 12 14 14 15 13 12 12 11 10 10 10 12 14 15 15 15 15 16 16 15 15 15 16
21 20 22 25 17 11 11 10 8 10 7 5 6 7 8 9 10 11 13 13 14 13 14 15 15 13 14 14 14 13 13 14 16 17 17 16 16 16 17 17 17 16 17
27 28 28 26 24 18 10 10 10 9 6 6 7 7 9 10 12 15 15 15 14 13 15 17 15 15 14 13 14 14 17 22 23 23 22 19 17 17 18 18 18 18 19
29 28 27 26 25 21 11 9 9 8 7 13 12 14 15 16 17 19 17 16 15 15 16 17 17 15 14 15 15 17 24 27 27 29 29 28 27 26 25 24 23 22 22

GFSGL_sfc_dewp_051.txt.gz
Dewpoint
38 40 40 41 41 40 41 41 39 38 38 38 39 40 41 41 42 44 44 45 46 46 45 45 43 44 43 43 43 43 43 43 42 40 37 37 38 41 41 40 43 41 44
38 39 39 39 39 39 39 38 38 37 37 37 37 37 38 38 39 39 40 40 40 40 42 42 40 41 40 40 40 39 39 40 39 38 35 35 36 37 38 38 40 40 39
38 38 38 38 38 38 38 38 37 37 37 37 37 37 36 36 36 36 37 37 38 38 37 37 37 38 37 38 37 37 37 37 36 36 34 34 34 35 34 35 36 37 38
38 37 37 37 37 37 38 38 38 38 37 37 37 37 37 35 35 35 35 34 35 36 37 37 36 36 36 36 35 35 35 35 35 35 34 33 34 34 34 34 33 35 35
38 37 37 38 38 38 37 38 38 37 37 36 36 36 36 36 37 34 34 35 35 36 36 36 38 40 39 38 35 34 34 34 34 34 34 34 33 33 32 34 32 33 33
37 37 37 37 37 37 37 37 37 36 37 37 37 35 36 35 38 37 36 35 34 34 33 33 34 35 36 39 39 38 37 33 33 32 32 30 31 31 32 31 29 26 22
36 36 36 36 37 37 37 36 35 35 36 36 36 37 37 36 37 37 35 33 32 28 26 25 30 31 31 28 31 32 31 32 33 30 26 25 24 24 23 21 23 20 21
36 36 36 36 36 37 36 35 34 34 34 34 34 34 33 34 35 35 33 23 23 25 24 18 19 21 25 27 25 25 26 24 27 26 26 25 25 25 24 21 22 22 24
35 35 36 36 36 36 34 33 33 33 33 33 32 29 24 25 31 30 26 18 21 21 23 22 22 24 28 30 25 24 24 23 25 29 28 27 27 27 26 24 22 16 18
35 36 36 37 36 34 33 33 33 32 31 27 23 20 28 19 29 27 24 21 18 18 18 20 27 27 28 28 24 23 22 22 23 23 20 20 21 19 21 23 20 10 10
36 36 36 35 34 33 33 32 31 29 29 27 25 22 21 24 25 27 28 22 19 19 20 22 24 27 27 26 25 21 22 23 21 19 18 17 14 16 20 23 21 11 5
36 35 35 34 33 32 31 29 25 23 23 23 22 20 17 17 25 25 25 25 25 21 22 22 24 27 25 24 20 21 22 21 15 14 14 14 17 17 19 20 22 20 18
35 34 32 32 32 31 28 26 24 22 18 18 17 15 10 11 16 26 26 26 25 23 23 24 24 23 25 21 19 19 18 14 13 14 15 16 15 16 15 16 19 21 18
34 32 31 30 30 28 28 26 23 19 15 13 11 10 10 11 17 21 22 21 24 23 23 21 20 17 16 16 15 14 15 15 15 16 18 19 20 15 18 24 22 22 21
31 30 29 28 29 20 17 16 15 13 13 11 11 10 11 12 17 22 23 22 22 24 23 19 13 10 14 12 14 15 17 19 18 18 19 20 20 21 21 22 22 23 20
30 29 23 17 18 16 19 21 22 22 27 25 20 17 15 20 22 23 23 23 24 25 21 17 14 14 14 11 13 14 16 18 18 17 18 22 22 22 22 22 24 16 16
31 24 19 19 15 18 21 21 20 22 26 25 24 24 22 20 21 21 21 22 24 22 13 14 14 13 13 14 14 11 10 13 9 11 11 13 20 22 20 19 18 16 17
31 30 18 20 15 17 19 19 19 17 16 14 20 24 24 20 20 20 20 20 19 18 12 11 12 13 13 12 11 10 10 12 11 12 8 7 9 12 17 17 16 14 14
30 27 23 19 18 18 19 19 18 14 8 4 4 8 14 18 18 18 18 16 17 17 16 14 13 13 12 11 11 8 5 8 8 5 3 3 7 3 12 12 13 18 18
29 28 25 19 19 20 19 16 12 8 5 4 4 4 5 11 11 12 15 14 14 14 13 13 13 13 12 8 7 6 6 9 9 8 8 7 8 6 10 11 13 12 14
28 27 28 20 18 19 17 13 10 7 5 5 4 5 13 8 9 12 14 13 12 11 13 13 13 11 8 6 4 5 7 8 9 9 8 9 7 8 11 13 14 15 16
28 28 29 24 22 17 14 12 9 7 6 5 5 5 16 15 14 13 12 11 11 11 14 15 13 11 10 8 8 7 7 8 9 8 9 10 11 13 14 15 15 15 16
28 28 29 29 26 25 21 11 9 7 7 6 6 4 5 8 10 10 11 11 12 15 16 16 16 15 13 11 10 10 11 13 13 14 14 14 15 15 15 15 15 15 15
25 26 30 29 22 23 26 17 10 11 7 6 5 5 7 8 9 10 12 16 16 18 17 17 17 16 16 15 15 13 13 14 15 16 15 15 15 16 17 17 17 17 17
27 29 29 28 28 29 25 22 14 10 8 9 6 6 9 9 10 16 17 18 18 19 18 18 18 17 16 15 14 13 16 22 23 23 21 17 17 17 17 18 19 18 19
27 29 29 29 28 27 26 25 23 12 9 13 12 14 14 15 16 18 18 19 19 19 18 19 18 16 15 15 15 17 24 26 26 28 28 28 27 25 25 24 22 21 20

GFSGL_sfc_dewp_054.txt.gz
Dewpoint
38 39 40 40 40 40 40 39 38 37 38 38 39 39 39 39 40 42 42 43 45 44 43 43 42 43 42 42 43 43 43 43 42 41 38 38 38 40 40 41 42 43 44
38 38 39 39 39 38 38 38 37 37 37 37 37 37 37 37 37 38 38 39 39 38 39 40 39 40 40 40 40 39 39 40 39 38 35 36 36 37 38 39 40 40 40
38 37 37 37 37 37 37 37 37 37 37 37 37 36 35 35 35 35 35 36 36 36 35 35 35 35 34 36 37 37 37 37 37 37 35 35 34 35 35 35 36 37 38
38 37 36 36 37 36 37 37 37 37 36 36 36 37 36 35 35 35 35 35 36 36 37 38 37 35 33 33 34 35 34 35 35 35 34 34 34 34 35 34 34 36 35
38 37 37 37 37 37 38 38 37 37 36 36 36 37 36 37 36 35 35 36 36 35 35 36 37 39 39 38 36 35 35 34 34 34 33 33 33 32 32 33 32 32 33
38 38 38 37 38 37 37 37 37 36 37 37 37 36 36 36 38 37 36 34 33 32 32 32 33 33 33 37 36 37 36 32 30 25 25 27 27 27 27 27 25 22 21
37 37 37 37 37 37 36 36 35 36 36 36 37 36 35 36 37 36 35 31 25 23 24 24 28 30 28 25 29 30 30 31 31 28 25 24 23 23 21 20 22 19 20
36 36 37 37 37 37 36 35 34 35 35 34 33 30 31 33 35 34 31 20 24 25 19 16 17 19 25 26 25 25 25 23 28 25 25 25 25 24 24 21 22 21 24
35 36 36 37 36 36 34 34 34 33 33 32 30 25 23 24 30 30 25 17 21 20 21 23 24 25 29 30 25 24 22 23 25 28 28 27 27 27 26 24 19 15 18
35 36 37 37 36 34 34 33 33 33 32 28 24 22 27 19 28 26 23 20 17 17 19 21 27 27 27 27 24 22 20 21 23 21 19 19 19 17 21 23 19 9 10
36 36 37 36 35 33 33 33 32 29 24 20 21 20 20 23 24 27 28 21 19 19 20 22 23 27 26 25 25 19 21 22 21 16 16 15 15 20 22 23 21 10 4
36 36 35 34 34 32 32 30 29 27 26 26 23 21 18 16 23 26 25 26 26 21 21 22 24 26 26 25 20 20 21 17 13 13 13 15 17 17 18 19 21 20 18
35 34 34 33 32 31 29 27 25 23 22 21 19 16 12 10 14 25 26 25 25 23 23 24 25 22 22 19 18 19 18 14 13 14 15 15 15 15 14 15 18 21 18
34 33 32 32 31 30 27 25 25 23 19 15 14 13 11 10 13 19 21 21 23 23 23 22 22 17 16 16 14 15 16 17 17 16 17 19 20 14 16 24 23 18 18
33 32 31 32 32 28 27 25 24 19 17 13 12 10 10 10 14 20 22 22 22 23 24 20 16 11 13 11 13 15 16 17 17 18 18 19 20 21 21 23 23 22 21
31 30 30 29 27 25 20 16 23 23 23 24 22 15 13 17 21 23 23 23 23 25 22 19 16 14 13 10 11 12 14 16 17 16 14 14 16 17 18 21 23 22 16
32 31 30 28 20 18 18 19 18 22 28 27 26 26 25 22 22 22 22 22 23 23 16 13 14 14 13 14 14 13 10 13 8 8 6 6 10 11 19 14 17 18 15
33 34 29 26 18 17 18 20 20 18 17 20 25 27 26 25 22 21 21 21 18 21 15 13 13 14 14 13 12 12 11 11 10 10 5 3 3 4 10 15 16 11 12
33 32 29 23 20 17 17 18 18 18 16 13 5 9 16 23 24 22 21 17 17 16 17 16 15 14 13 13 13 11 7 7 7 4 1 1 4 -1 8 10 11 18 18
34 34 32 24 21 20 18 17 18 17 15 10 6 4 4 11 11 10 13 14 14 13 14 14 14 15 14 12 8 7 7 8 8 7 7 5 6 4 7 9 11 10 12
34 33 34 28 24 21 19 18 17 15 13 9 6 5 13 7 7 8 11 14 14 12 14 14 13 13 12 10 5 6 8 8 7 7 7 7 5 6 10 12 13 14 15
32 30 32 29 26 22 21 18 15 13 11 8 6 5 17 14 13 14 14 14 13 11 14 16 16 15 12 10 9 9 9 9 9 9 9 9 10 11 13 14 15 15 15
30 29 30 30 26 27 29 27 26 19 11 8 7 4 4 9 13 13 13 11 12 15 17 17 17 16 15 14 13 12 11 13 13 14 13 14 14 15 15 14 14 15 15
29 29 29 30 29 30 30 28 26 26 15 8 7 5 6 6 7 9 11 17 17 17 16 17 18 18 18 17 15 12 12 13 14 15 14 14 14 15 16 17 16 17 16
26 27 29 30 28 29 28 28 27 25 22 17 8 6 7 8 9 16 17 18 18 18 18 18 17 16 15 14 15 13 15 22 22 22 19 17 17 16 16 18 18 18 19
26 29 30 29 28 29 28 28 27 26 25 24 19 15 14 15 16 18 18 18 18 19 18 18 16 15 14 14 14 16 23 26 25 26 27 27 26 25 24 23 21 20 20

GFSGL_sfc_dewp_057.txt.gz
Dewpoint
40 41 42 41 41 41 40 39 39 38 39 39 39 40 40 40 42 44 45 45 44 44 44 44 43 43 43 43 44 44 45 45 45 43 40 39 40 40 40 42 43 43 43
39 40 40 40 40 39 38 38 38 38 38 38 37 37 38 38 38 40 40 40 40 39 40 40 40 40 40 40 41 41 40 40 42 40 38 38 38 38 38 39 40 40 40
39 39 38 38 38 38 38 38 38 38 38 38 37 36 36 36 36 37 38 38 38 37 37 37 37 37 37 38 38 38 38 38 39 39 38 37 37 36 37 37 37 38 38
38 38 38 38 38 38 38 38 38 37 37 37 37 37 36 36 36 36 37 37 37 38 39 39 37 36 36 37 37 37 37 37 37 37 36 36 36 35 36 35 35 37 36
38 38 37 38 38 38 38 38 37 37 37 36 36 37 37 37 36 36 36 36 36 35 35 36 36 39 39 38 36 36 36 36 36 36 35 34 33 33 32 33 32 32 32
38 38 38 38 38 38 38 37 37 37 37 37 36 36 36 36 37 38 35 34 33 34 34 33 32 31 33 35 36 36 35 33 33 32 31 29 28 27 26 27 27 26 25
38 38 37 37 37 38 37 36 36 37 37 37 36 35 36 36 37 36 34 29 29 30 31 32 31 29 28 28 29 29 30 31 31 29 27 27 25 25 27 27 26 26 24
37 37 37 37 37 37 36 36 36 36 35 34 33 33 34 35 35 33 30 28 27 27 27 26 29 29 31 27 27 26 25 28 28 26 27 27 27 27 27 28 26 26 24
36 36 37 37 37 36 35 35 35 35 34 32 30 30 30 32 31 30 27 26 25 24 24 26 27 27 29 28 25 24 20 23 26 27 27 26 26 25 26 27 26 25 19
36 37 37 37 36 35 34 34 34 33 33 30 29 27 30 28 28 27 24 18 17 17 20 22 27 27 26 28 24 20 20 22 24 20 16 16 17 18 23 21 25 24 23
36 37 37 37 36 34 34 33 33 32 29 28 28 25 25 27 26 30 27 19 19 19 20 21 23 27 25 24 25 18 20 23 20 14 13 14 19 21 22 23 22 25 24
36 36 36 35 35 33 33 32 31 29 27 26 25 23 21 18 23 27 27 28 27 21 20 22 24 24 23 25 21 19 23 16 13 12 13 15 19 22 24 24 24 25 24
35 35 34 34 33 32 30 29 28 26 25 24 22 18 14 11 13 24 27 26 26 24 22 24 24 21 19 17 18 19 17 14 13 15 16 20 22 23 24 24 25 25 25
35 34 33 32 31 30 29 28 26 24 21 18 17 16 15 10 11 16 20 22 23 23 23 24 23 19 16 16 13 14 15 16 19 19 19 19 21 23 23 23 22 22 23
34 33 32 32 32 30 29 26 25 24 21 17 16 13 12 11 11 16 21 21 23 23 25 22 20 16 13 10 11 13 15 15 18 20 20 19 18 20 21 22 21 22 21
33 33 32 32 32 31 28 26 30 29 27 27 23 16 12 15 18 24 27 26 24 24 23 21 20 16 14 11 10 10 12 15 16 19 19 20 20 21 21 21 22 22 20
33 32 32 32 31 30 26 23 21 20 27 27 28 28 24 17 23 24 24 24 23 23 21 20 17 15 14 14 14 15 15 16 18 17 18 19 19 18 19 19 19 20 19
34 34 32 32 29 27 23 20 18 17 18 24 28 27 28 28 26 25 23 23 20 20 20 19 18 16 15 16 16 16 16 16 15 16 17 17 16 16 17 18 18 18 18
34 33 33 31 29 26 21 19 18 18 17 16 13 16 23 29 29 27 25 21 18 17 17 18 18 18 17 17 17 17 17 16 16 16 16 15 16 15 15 16 16 18 19
34 34 34 30 28 26 20 18 17 18 17 17 15 11 5 14 12 16 17 16 16 15 14 16 16 18 18 18 18 16 15 14 15 15 15 15 15 15 14 14 15 15 16
35 35 36 31 28 26 23 19 17 17 17 16 15 12 16 6 6 9 9 11 13 14 17 16 17 18 18 17 16 15 14 16 16 15 15 16 15 14 14 15 15 16 16
35 34 35 34 30 28 26 25 23 22 17 15 13 10 20 16 10 7 8 10 13 15 17 18 19 18 18 17 17 16 16 16 17 16 15 15 15 15 15 16 16 17 17
33 32 32 33 31 30 29 26 24 25 23 26 24 11 6 13 15 15 15 15 15 17 18 17 18 19 19 18 18 18 18 18 18 18 17 17 16 16 17 17 17 16 17
31 30 30 31 29 29 30 30 29 29 28 27 26 24 10 6 7 8 11 18 18 21 19 18 18 19 20 20 20 19 17 18 18 18 17 17 16 17 18 18 18 18 18
28 29 29 30 30 32 30 31 29 28 28 27 25 25 22 16 9 15 18 19 20 20 19 19 20 20 19 18 18 18 19 22 22 20 19 18 18 19 19 20 20 20 20
28 28 29 30 30 29 29 29 28 28 27 27 26 26 25 23 16 19 20 20 19 19 20 20 20 20 18 18 18 18 22 24 25 27 27 27 25 23 22 22 21 20 21

GFSGL_sfc_dewp_060.txt.gz
Dewpoint
41 42 43 43 44 45 45 44 42 41 41 41 42 42 42 43 45 47 47 46 46 46 46 46 45 46 46 46 48 47 47 48 46 43 42 42 42 42 42 42 43 43 44
40 41 41 42 42 42 42 41 40 40 40 40 39 40 40 41 42 43 43 43 43 43 42 43 42 42 43 43 44 44 44 44 45 44 41 42 41 40 40 40 40 40 41
40 40 40 40 41 41 40 40 40 40 40 39 38 38 38 39 40 40 40 40 40 39 39 39 39 40 40 41 41 41 41 40 42 41 40 40 39 38 38 38 38 38 38
39 39 39 39 40 40 40 39 39 39 39 39 39 38 37 37 38 39 39 39 39 39 39 39 38 38 38 39 39 39 39 40 40 39 38 38 37 36 36 35 36 37 35
39 39 39 39 39 39 39 39 38 38 38 38 37 38 37 37 37 38 38 38 37 37 37 37 38 39 38 38 37 38 38 38 38 38 37 36 35 33 33 33 32 31 31
38 38 39 39 39 39 39 38 38 38 37 37 37 37 36 37 39 38 37 36 36 35 35 35 34 34 35 36 35 35 33 35 35 35 35 32 31 29 27 27 26 25 26
38 38 38 38 38 39 38 37 37 38 38 37 37 37 36 37 37 37 35 34 35 35 35 35 31 28 30 30 29 29 31 31 31 28 25 25 24 25 28 29 27 26 23
38 38 38 38 38 38 37 37 37 37 37 36 36 37 36 35 36 33 31 33 33 32 32 33 34 33 31 27 26 26 26 27 28 25 27 27 28 28 28 29 26 25 23
37 38 38 38 38 37 36 36 36 36 35 35 34 34 36 35 32 29 31 33 30 29 28 27 26 28 30 27 24 24 19 23 27 27 26 26 26 26 26 26 27 24 19
37 38 38 38 37 37 36 35 36 35 34 33 34 34 32 35 30 28 25 19 19 16 19 23 27 27 27 29 24 19 17 20 23 21 17 15 16 18 23 19 23 26 23
37 38 38 38 37 36 35 35 35 34 33 33 33 32 31 30 27 27 24 17 16 16 17 18 21 27 26 25 27 17 21 22 21 15 11 13 17 20 21 23 23 29 27
37 37 37 37 36 35 34 34 33 32 30 28 26 25 25 24 27 29 30 27 24 19 18 19 21 26 23 25 25 20 23 19 13 11 11 12 17 22 24 25 25 26 26
36 36 36 36 34 34 32 31 30 30 30 26 24 22 20 17 17 28 29 30 30 22 20 20 25 23 19 19 19 19 21 13 11 12 13 20 23 25 27 27 28 27 27
35 35 35 34 33 32 31 30 31 28 26 22 22 19 16 12 11 14 24 26 26 24 25 25 24 22 18 16 16 15 13 13 14 16 17 17 19 24 23 24 24 24 24
35 35 34 33 33 31 31 31 30 25 23 20 18 16 15 13 12 15 18 19 20 22 24 24 23 20 17 12 11 11 12 12 15 17 17 17 16 19 21 23 23 24 23
34 34 34 33 33 31 31 31 31 28 28 28 25 20 15 17 17 22 24 24 28 28 25 23 21 20 15 11 9 9 10 14 15 18 20 20 20 21 22 22 23 23 23
34 34 34 34 32 32 31 29 23 27 32 31 30 29 26 16 23 24 27 28 27 25 21 22 22 20 17 16 15 17 18 17 21 20 21 22 22 21 20 20 20 21 21
35 36 34 34 33 33 33 30 25 22 20 22 28 29 30 29 23 26 25 24 21 22 21 21 23 22 19 19 19 19 19 18 18 19 20 21 21 21 20 20 20 20 20
35 35 35 35 33 32 31 28 26 22 18 17 21 26 29 30 30 30 28 22 20 20 19 20 20 20 20 21 21 21 21 20 20 21 21 20 21 21 20 20 20 20 20
36 36 35 33 32 31 28 26 24 22 19 17 17 16 14 22 23 26 26 25 22 21 19 19 18 19 21 22 22 21 20 19 19 20 21 21 21 21 21 20 20 20 20
38 37 36 34 31 31 29 26 24 21 19 18 17 18 20 11 12 11 14 18 18 16 17 17 20 21 22 22 22 20 19 20 21 22 22 22 22 21 21 20 20 19 20
36 36 36 35 32 30 29 27 25 23 24 20 17 17 25 21 12 8 9 9 10 12 16 20 23 22 23 23 22 22 21 21 23 23 23 22 21 21 20 20 20 20 20
36 35 35 35 33 32 31 30 27 25 27 27 26 25 28 29 21 15 12 11 13 19 21 21 22 23 23 23 23 23 23 23 24 24 23 22 22 21 20 20 20 19 19
34 34 33 33 33 31 31 31 30 30 29 29 28 28 29 28 19 16 18 22 21 25 22 21 21 22 22 23 24 24 24 24 24 23 22 22 22 21 21 20 20 20 20
31 31 31 31 31 32 31 32 31 31 31 30 29 28 29 29 28 25 21 21 22 22 22 21 22 23 23 23 23 23 24 24 23 22 22 21 21 21 21 22 22 22 21
29 29 29 30 30 31 31 30 30 30 30 30 29 29 29 28 28 28 27 26 23 22 22 22 22 23 23 23 22 22 23 23 25 25 26 26 24 22 22 22 23 22 22

GFSGL_sfc_dewp_063.txt.gz
Dewpoint
43 43 43 44 44 45 45 45 45 43 42 42 42 43 43 43 44 47 48 47 47 47 47 47 46 47 48 48 49 49 49 49 47 44 44 43 43 42 41 41 42 41 43
42 42 42 43 43 43 43 43 42 42 41 41 40 40 41 41 42 43 44 45 45 44 44 45 44 43 44 45 46 45 45 45 45 44 42 42 41 40 40 39 39 39 41
41 41 41 41 42 41 41 41 41 41 41 40 39 39 39 39 40 41 41 41 41 41 41 40 40 41 42 42 43 43 42 41 42 42 40 41 40 38 37 38 38 38 38
40 40 40 40 40 40 40 40 40 40 40 40 39 38 38 38 39 40 40 40 40 40 39 39 38 39 39 40 40 40 40 40 40 40 39 39 37 37 37 35 37 37 36
40 40 40 39 40 40 40 40 39 39 39 39 38 38 38 38 38 39 39 39 39 38 37 37 39 39 39 38 38 38 37 38 38 38 38 38 35 34 33 34 32 31 32
39 40 40 39 39 40 39 39 39 38 38 38 38 37 37 37 39 39 38 38 37 36 35 35 35 36 35 35 35 35 33 34 35 35 34 33 33 30 28 28 28 28 28
39 39 39 39 39 39 39 39 38 38 38 38 37 37 37 36 39 38 37 37 36 36 35 36 32 28 31 30 29 28 32 31 30 30 27 26 25 27 30 30 28 28 26
39 39 39 39 38 38 39 38 38 38 38 38 38 38 37 36 36 35 34 35 33 33 33 33 34 34 31 28 27 27 27 28 29 26 29 28 29 29 28 28 27 27 26
39 39 39 38 38 38 38 38 37 37 36 36 37 37 37 36 33 30 31 33 31 30 30 28 27 29 30 27 26 26 21 25 28 26 25 25 25 25 26 27 28 27 24
39 39 38 38 38 38 38 36 36 36 35 35 34 35 34 36 30 28 28 24 24 20 22 25 27 28 27 29 27 21 19 21 24 24 21 20 19 19 22 22 26 24 26
39 38 38 38 38 38 37 36 36 34 34 34 34 33 33 32 29 29 25 18 17 17 18 20 22 27 26 25 27 22 23 24 23 19 14 14 17 20 22 23 24 27 25
38 38 38 38 37 37 36 35 34 33 32 31 29 27 27 26 29 30 29 26 22 20 19 20 22 26 24 25 27 25 22 24 17 13 13 13 18 24 26 27 26 27 28
37 37 37 36 36 35 34 33 32 32 31 31 27 24 24 24 23 30 30 31 31 26 21 20 23 25 22 22 23 23 23 20 13 13 14 22 25 27 26 26 27 27 27
36 36 36 36 35 34 33 32 31 31 31 30 25 23 22 19 16 19 27 28 30 28 25 27 26 25 23 20 17 19 19 14 15 17 19 18 20 25 25 26 25 25 25
36 36 35 35 35 33 32 31 31 32 32 28 24 23 20 18 17 17 18 23 24 24 24 24 24 23 21 18 16 14 14 14 18 19 19 19 17 21 23 25 25 24 23
36 35 35 34 35 32 31 31 34 34 31 30 27 22 19 21 17 22 22 23 24 24 25 24 23 23 21 17 13 12 13 16 19 22 23 23 22 23 23 24 24 23 22
35 35 35 34 34 32 32 31 32 32 33 29 30 31 29 20 23 23 25 25 26 29 25 23 24 24 23 21 20 21 21 22 22 23 23 22 22 22 22 21 21 21 21
36 36 35 35 34 34 33 32 32 24 25 28 32 32 31 31 28 25 26 27 25 26 23 22 24 25 24 23 23 22 22 22 22 21 22 21 20 21 20 20 20 19 20
35 35 35 35 35 34 34 33 32 26 24 22 27 29 31 31 31 28 27 24 22 21 21 23 24 24 24 24 24 24 23 23 23 22 21 20 21 21 20 20 20 21 21
36 36 36 35 35 34 34 33 30 28 27 25 20 20 28 30 28 28 29 28 25 22 20 22 22 24 24 25 25 24 23 22 22 21 21 22 22 22 20 20 20 20 21
37 37 37 35 34 34 32 30 29 27 25 22 20 19 23 23 25 26 29 28 26 24 24 23 24 24 25 25 25 24 23 23 22 22 23 23 23 22 22 22 21 20 21
38 37 37 36 34 32 32 31 29 29 28 29 29 22 29 23 19 15 15 18 22 22 22 22 23 25 26 26 25 25 23 23 23 23 23 24 23 23 22 21 20 21 21
36 36 35 35 34 34 33 31 29 28 27 27 29 28 26 30 30 26 14 12 13 17 20 21 24 25 27 27 27 25 24 23 24 24 24 24 23 23 22 21 21 21 21
35 35 34 34 33 33 33 32 31 31 30 30 31 30 30 29 31 31 29 24 23 26 23 24 24 26 25 26 25 25 25 25 25 25 24 24 23 23 23 22 21 21 21
32 33 32 32 33 33 33 33 32 32 31 31 30 30 30 31 31 31 31 26 29 28 25 24 25 25 25 25 25 25 25 26 24 24 24 23 22 21 21 21 21 21 21
31 31 31 31 31 31 32 32 31 31 31 31 31 31 31 30 30 30 29 28 28 28 27 25 25 25 25 25 24 24 24 24 24 25 25 24 22 21 21 21 21 21 21

GFSGL_sfc_dewp_066.txt.gz
Dewpoint
44 44 45 45 46 46 46 46 45 43 42 42 42 42 42 42 43 45 47 47 48 47 47 47 46 47 48 47 47 47 46 48 47 43 43 42 41 40 40 41 41 41 43
43 43 44 44 43 44 44 43 43 42 41 41 40 40 40 41 41 42 43 43 45 45 45 45 44 45 44 44 44 42 42 41 41 43 41 41 40 37 37 38 38 39 39
42 41 42 42 42 42 42 42 41 41 41 40 39 39 39 39 40 40 40 41 40 40 40 39 39 41 39 40 40 41 39 41 40 40 38 39 38 36 36 37 37 35 38
41 41 41 41 41 40 41 40 40 40 40 40 39 39 38 38 39 39 40 39 39 39 39 38 38 38 40 39 40 39 39 39 39 39 38 37 37 35 36 34 32 34 32
40 40 40 40 40 40 40 40 40 39 39 39 38 39 39 38 38 39 40 40 39 38 38 38 39 39 39 39 38 37 37 36 36 36 36 36 35 34 31 31 28 27 28
40 40 40 40 39 39 39 39 38 38 38 38 38 38 38 37 39 40 39 38 38 36 35 34 35 35 35 36 36 34 34 34 33 34 34 32 30 27 27 25 25 22 22
40 40 40 39 39 39 39 39 37 37 38 38 38 38 37 38 40 39 39 37 36 35 34 31 30 30 30 28 28 31 31 30 32 28 24 24 25 26 26 25 25 23 24
40 39 39 39 39 39 39 38 37 39 38 38 38 37 37 37 38 37 37 34 33 32 32 31 29 28 28 27 26 26 26 29 29 28 28 27 27 27 27 26 25 24 25
40 39 39 39 38 38 38 37 37 38 37 37 37 37 36 36 35 34 31 29 29 29 29 29 30 31 30 27 26 23 20 26 28 26 24 24 25 24 24 25 22 20 20
40 39 39 39 38 38 37 36 37 37 35 35 34 34 36 33 33 30 29 28 27 25 24 27 27 29 28 29 27 19 18 20 23 22 21 20 19 18 20 21 21 14 18
40 39 39 38 38 38 35 36 36 35 34 33 33 33 31 32 30 30 27 18 18 17 19 20 24 27 26 26 26 24 23 23 22 20 14 14 15 19 20 23 24 18 14
39 39 38 37 38 37 36 35 35 33 32 32 31 29 30 29 31 30 28 24 22 19 19 20 22 27 26 25 27 27 22 24 20 14 13 12 16 20 22 23 25 24 23
37 37 37 37 37 36 35 34 33 33 32 31 30 26 26 26 26 31 33 31 29 26 19 21 23 27 24 22 23 26 23 23 17 13 13 19 20 21 20 20 23 24 23
36 36 37 36 36 35 34 34 33 32 31 31 28 25 24 23 21 23 28 29 31 30 27 25 25 27 26 22 19 19 21 19 15 17 19 18 20 19 20 21 19 20 18
36 35 36 36 36 34 33 32 32 32 32 31 28 25 24 21 19 21 23 26 27 28 26 24 24 24 23 21 19 17 17 15 17 17 19 18 18 20 23 21 21 18 16
36 36 35 35 35 33 32 32 34 34 35 35 33 27 23 24 25 25 24 24 27 27 24 23 23 24 23 21 17 14 14 16 18 19 19 19 18 18 19 19 18 16 15
36 36 35 34 34 33 32 31 31 33 36 33 32 30 27 21 26 24 25 26 26 26 24 25 25 25 24 23 21 20 19 19 16 16 14 13 13 14 20 16 16 16 15
37 37 35 35 34 33 32 32 32 31 30 31 33 31 31 32 30 25 26 26 24 25 26 25 24 25 25 24 23 21 20 20 19 17 13 13 13 12 12 14 15 13 13
36 36 36 35 35 34 33 33 32 32 27 25 27 30 32 33 33 32 28 24 25 25 25 24 24 25 25 25 24 23 21 20 17 16 17 15 14 12 15 16 15 21 20
36 36 36 35 35 35 34 33 33 32 30 27 23 26 29 31 30 30 29 24 24 23 23 23 24 25 25 25 24 23 23 23 21 18 18 18 20 18 19 17 16 16 18
37 36 37 35 35 34 34 33 33 32 31 30 28 23 29 29 29 28 28 27 26 26 25 24 24 25 26 26 26 25 24 24 23 22 21 21 21 20 21 22 22 22 21
38 37 37 36 35 34 34 33 32 32 32 30 27 25 30 27 22 25 27 27 29 29 28 27 26 26 26 26 26 25 25 24 23 23 22 23 22 23 23 23 22 22 21
37 36 36 36 35 35 34 33 32 32 31 31 31 30 30 32 32 29 25 24 19 25 25 25 25 25 27 27 27 26 25 24 24 24 23 23 23 23 23 22 21 21 20
35 34 34 34 34 34 33 33 32 32 31 31 30 30 30 29 30 31 31 30 26 23 23 24 23 26 27 27 27 27 26 26 26 25 24 24 23 24 24 23 21 20 20
31 32 33 33 33 33 33 32 32 31 31 31 31 31 30 30 29 29 30 31 28 26 28 27 27 27 26 26 26 26 26 26 26 25 24 23 22 22 22 21 20 20 20
31 31 31 31 31 32 32 32 32 31 31 31 30 30 30 29 28 28 28 28 28 28 27 27 27 27 27 26 26 27 27 27 26 26 24 23 22 21 21 19 19 19 19

GFSGL_sfc_dewp_069.txt.gz
Dewpoint
45 45 46 46 47 47 47 46 45 44 43 43 43 42 42 42 43 43 45 46 46 46 46 47 47 48 48 47 47 47 47 47 47 43 43 42 40 40 40 41 41 41 43
44 45 45 45 45 45 45 44 43 42 42 41 41 41 41 41 41 41 43 43 45 46 45 46 44 45 44 44 44 43 41 40 43 42 42 41 39 38 36 38 39 39 39
43 43 43 43 43 43 43 42 42 41 41 40 40 39 39 40 40 40 41 41 40 40 40 40 41 41 40 39 40 41 41 40 37 37 38 39 38 37 37 37 37 35 37
41 41 41 42 41 41 41 41 41 41 40 40 39 39 38 38 39 39 40 39 39 39 38 38 38 38 38 39 40 40 40 39 39 38 38 37 36 36 36 31 31 31 30
41 41 40 40 40 40 40 40 40 39 39 39 39 39 39 38 38 39 40 40 39 39 39 38 38 39 40 39 38 38 38 37 36 36 36 36 36 34 30 30 27 26 27
40 40 40 40 40 39 39 39 39 38 38 38 38 38 38 37 39 40 40 39 38 37 36 35 36 36 37 37 36 36 35 35 35 34 32 31 29 27 27 25 24 22 22
40 40 40 39 39 39 39 38 37 36 36 36 37 38 38 39 40 40 40 38 37 35 33 31 30 32 30 28 31 31 30 33 33 30 25 24 25 26 26 25 25 22 23
40 40 40 39 39 39 38 37 38 35 35 35 37 38 37 38 40 39 39 35 34 33 32 28 27 27 27 27 26 27 28 28 28 27 27 27 27 27 27 27 25 24 24
40 40 40 39 38 38 37 37 37 35 35 37 38 37 36 37 37 37 34 31 28 27 29 30 31 28 28 27 25 24 23 27 27 27 27 26 26 25 26 24 23 20 20
40 39 39 39 38 37 36 37 36 36 36 36 34 35 37 35 36 33 30 27 25 25 27 27 31 31 32 29 25 20 18 21 23 22 20 20 19 19 22 22 22 13 16
40 40 39 38 37 36 36 37 35 35 35 34 34 34 34 33 32 32 31 25 23 21 21 23 25 30 29 28 29 21 22 23 24 19 15 14 15 19 21 23 24 17 12
39 39 38 37 38 37 37 35 35 35 34 33 33 31 31 31 32 31 30 26 22 18 19 20 23 28 28 28 27 28 24 25 19 15 13 12 16 20 23 23 24 23 23
38 37 37 37 37 37 36 35 34 34 33 32 31 29 28 28 28 32 31 29 27 22 20 22 27 28 27 24 24 26 27 24 19 14 14 20 22 23 21 20 22 23 22
36 35 36 36 36 36 35 35 34 33 32 32 31 29 27 26 25 26 30 32 32 30 26 25 24 27 27 24 21 20 21 22 19 17 18 18 22 20 22 21 18 20 17
35 35 35 36 36 35 35 34 34 34 33 32 32 29 26 24 24 25 26 27 28 31 29 25 24 25 24 23 21 19 19 19 19 18 19 18 17 21 23 20 20 17 15
36 36 36 36 36 34 34 33 36 35 36 36 35 30 27 29 28 29 28 28 30 32 28 23 23 24 24 23 21 19 17 18 19 21 21 21 21 20 20 19 17 14 13
36 36 36 36 35 33 33 32 32 34 36 36 37 35 33 27 30 31 29 27 27 29 24 24 24 25 25 25 23 22 21 20 23 21 20 19 17 15 21 16 15 15 13
37 37 35 35 35 34 33 32 33 32 32 34 36 34 32 29 28 29 27 27 24 25 23 24 25 26 26 25 24 23 22 22 21 21 19 17 16 17 16 12 12 9 9
37 36 36 36 35 34 33 33 33 33 32 30 29 33 35 33 32 33 29 24 23 22 23 25 27 26 25 26 26 25 23 22 22 20 20 19 17 15 17 17 14 21 19
37 37 37 35 35 34 34 33 32 32 32 30 27 27 28 32 31 31 31 27 24 24 25 25 26 26 26 27 27 25 24 24 25 22 21 21 20 18 19 19 18 16 16
37 37 38 36 35 34 34 33 33 33 33 32 31 28 29 29 30 30 30 30 27 25 25 25 25 26 27 25 23 23 24 24 23 23 22 21 21 21 22 21 20 20 21
35 37 37 36 35 34 34 34 34 33 33 33 32 29 32 31 31 32 30 29 28 27 27 27 27 27 29 27 27 26 24 24 24 24 22 22 23 23 23 22 22 22 21
33 35 36 36 35 36 35 34 33 33 33 32 32 31 31 32 31 28 24 25 27 29 30 30 30 29 27 27 27 26 24 24 24 24 24 24 23 23 23 22 22 21 21
32 33 34 34 34 34 34 34 33 33 32 32 32 32 31 31 32 32 32 31 30 30 28 28 29 26 25 27 26 26 25 24 25 26 25 23 23 24 24 23 22 21 21
32 32 32 32 33 34 33 33 32 32 32 31 31 31 31 31 30 30 30 31 30 29 26 26 27 27 27 26 27 27 28 28 27 26 26 25 24 23 23 22 22 22 21
31 32 32 32 31 32 32 32 32 32 31 31 31 30 30 29 29 30 29 28 28 27 26 26 26 25 25 26 26 27 28 29 29 29 27 24 22 22 22 21 20 20 19

GFSGL_sfc_dewp_072.txt.gz
Dewpoint
45 45 46 46 47 47 47 47 46 44 44 44 44 43 43 43 43 43 44 46 46 46 45 45 46 47 48 47 48 48 47 47 48 43 43 42 40 40 40 41 41 41 42
45 46 46 46 46 46 46 46 44 43 42 42 42 41 41 41 41 41 42 45 44 44 45 44 44 45 44 44 45 44 42 42 44 42 42 40 39 38 38 39 39 39 39
44 45 44 44 44 44 44 43 43 42 41 40 40 40 40 40 40 40 40 41 40 40 41 42 41 43 41 41 42 42 41 40 40 40 38 39 38 37 37 37 37 35 36
43 43 43 42 42 42 42 41 41 41 40 40 39 39 39 39 39 39 39 38 38 38 38 38 39 40 40 40 40 40 40 40 40 38 38 37 37 36 36 32 34 30 29
41 42 42 42 41 41 41 40 40 40 40 39 39 38 38 38 38 38 39 39 39 39 39 38 38 39 40 40 39 38 39 38 37 37 36 36 36 34 30 31 28 26 26
41 41 41 40 40 40 39 39 38 38 38 38 37 38 38 38 40 40 40 40 39 38 37 36 37 37 38 38 37 37 36 36 35 36 34 33 30 29 27 25 25 23 23
40 40 40 40 39 39 39 38 37 36 36 36 36 37 37 38 40 41 41 39 38 37 35 34 33 33 31 28 33 32 33 35 33 33 30 28 26 26 26 26 25 23 23
40 40 40 39 39 38 38 37 35 35 35 34 35 36 36 38 41 40 40 36 34 34 33 31 26 26 28 27 27 28 27 28 28 27 27 27 27 27 27 26 25 24 24
40 40 40 39 38 38 37 36 35 35 34 34 35 35 37 37 40 40 37 34 33 33 31 28 27 26 29 28 26 26 25 27 28 30 30 30 31 30 27 26 24 22 20
40 40 40 39 38 37 36 35 35 37 35 36 34 35 37 36 38 38 35 31 29 27 29 29 34 30 31 29 25 21 20 23 25 23 22 20 19 20 23 22 24 19 21
40 40 39 39 38 37 35 35 34 37 36 35 34 34 35 35 35 36 33 26 24 24 25 26 27 33 32 31 27 20 20 23 25 21 16 15 15 19 22 23 24 21 16
40 39 38 37 38 37 35 34 36 36 35 34 34 33 33 33 36 36 32 29 26 21 20 22 25 30 30 29 28 27 26 25 20 16 13 12 16 21 24 25 25 25 24
37 37 36 36 37 36 35 35 35 35 34 33 33 32 31 31 30 34 33 31 27 20 19 22 25 29 29 27 27 29 29 24 20 15 14 19 21 23 23 25 25 25 22
36 35 35 35 35 34 36 36 35 34 34 33 32 31 30 28 28 28 30 30 30 28 25 25 26 28 28 25 24 22 23 23 21 18 17 16 22 24 24 24 21 21 17
35 34 34 35 36 35 35 35 35 35 35 33 33 32 30 28 27 28 28 29 30 31 28 25 24 24 26 25 23 21 19 21 23 19 19 18 18 23 24 23 21 16 16
37 36 36 36 37 35 35 34 37 37 37 38 36 34 31 33 31 32 31 31 33 34 30 25 23 24 24 24 23 21 19 20 21 23 23 22 21 22 22 21 18 15 15
38 37 37 36 36 35 34 33 33 35 38 38 38 37 36 32 34 32 32 31 30 30 29 26 24 23 23 24 24 23 22 22 23 22 22 21 21 21 22 21 20 20 18
38 39 37 36 36 35 34 33 33 33 32 33 37 38 38 37 33 33 32 30 26 27 27 25 25 25 25 25 25 25 24 22 20 21 20 21 20 20 20 20 18 17 18
38 38 37 37 36 36 34 33 33 33 33 33 32 36 39 38 32 30 29 25 24 23 24 25 25 25 25 26 26 25 24 22 20 20 21 19 17 16 18 20 17 20 20
38 38 38 36 35 35 34 33 33 33 32 32 32 32 32 35 32 31 29 27 24 23 23 24 25 27 27 26 26 26 25 24 23 21 20 19 19 17 17 19 20 19 19
34 37 39 37 35 34 34 33 33 33 33 33 32 32 31 30 31 31 31 31 29 25 26 26 26 27 27 27 27 25 24 24 23 23 21 21 19 17 20 21 22 21 21
33 35 37 37 35 34 34 34 34 33 33 33 33 33 36 34 31 32 31 30 30 30 28 27 27 27 28 28 26 24 22 22 22 21 21 20 20 22 23 22 22 22 22
32 32 33 35 35 36 35 34 34 33 33 33 33 32 33 33 33 32 32 32 32 32 32 29 29 28 28 29 30 29 28 28 26 24 22 22 22 23 24 23 22 22 22
32 31 32 33 34 34 35 34 34 34 33 33 32 32 32 32 33 32 31 30 31 31 31 31 31 31 28 28 28 28 27 25 25 24 24 24 24 25 24 23 23 23 22
31 31 31 31 32 33 34 34 33 33 33 32 32 32 32 32 31 31 31 31 31 31 29 29 29 28 26 26 26 25 26 28 25 25 25 25 24 24 24 24 22 22 22
30 30 31 31 31 32 32 32 32 32 32 32 31 31 30 29 29 29 29 28 28 29 29 26 26 25 24 24 24 25 29 29 29 29 26 25 24 24 23 22 21 21 21

GFSGL_sfc_dewp_075.txt.gz
Dewpoint
45 45 45 46 47 47 47 47 46 45 45 45 45 44 44 43 43 43 43 44 45 45 45 45 45 46 46 46 47 48 48 47 48 42 43 43 42 42 41 42 41 41 41
44 45 46 46 46 47 47 46 45 44 44 43 43 42 42 41 41 41 41 43 44 44 44 44 44 45 44 43 45 44 44 43 45 42 41 41 39 39 39 39 40 38 38
43 44 44 44 44 45 45 44 43 42 42 41 41 41 40 40 40 40 40 41 40 40 40 42 41 42 42 42 42 42 42 41 41 41 38 39 38 38 38 37 37 35 33
43 43 43 43 43 43 43 42 42 41 40 40 40 39 39 39 38 38 38 38 37 37 37 37 39 40 40 40 41 41 40 40 40 40 38 37 37 36 37 33 35 31 29
42 42 42 42 41 41 41 41 40 40 40 39 38 38 38 38 38 37 38 37 38 39 39 38 39 40 40 40 39 39 39 39 38 37 36 36 36 35 32 31 30 27 26
41 42 42 41 41 40 40 39 39 38 38 38 37 37 37 38 40 41 40 40 40 39 38 38 38 39 39 39 38 37 37 37 36 36 35 34 33 31 28 27 26 24 23
41 41 41 40 40 39 39 38 37 36 36 36 36 36 36 36 39 41 41 40 39 38 37 35 34 35 32 31 33 34 35 36 35 34 33 29 28 28 27 25 25 25 22
40 40 40 40 39 38 37 37 35 35 35 34 34 35 35 36 40 41 41 36 35 34 34 33 33 30 27 28 27 27 27 27 27 26 27 26 27 27 27 27 26 24 24
40 40 40 39 38 37 37 36 35 34 34 34 34 34 34 34 39 41 38 34 34 34 32 30 28 25 27 29 26 27 26 28 31 32 32 32 32 31 29 27 25 23 21
40 40 40 39 38 37 36 35 34 34 34 33 34 34 36 35 39 40 38 34 33 32 30 29 31 27 30 29 24 23 24 25 25 23 22 22 19 21 28 23 25 19 21
40 40 39 39 38 37 35 34 34 34 34 35 35 35 35 37 36 39 38 30 30 28 27 26 27 34 33 31 28 22 21 23 26 21 17 15 16 20 22 22 23 21 19
38 38 38 37 38 36 35 35 33 34 35 35 35 35 35 35 38 37 37 32 28 23 23 24 26 31 33 32 30 27 25 25 23 18 14 13 17 21 24 25 25 25 25
37 37 36 35 36 35 34 34 33 34 35 34 34 33 33 33 33 38 38 35 31 24 20 22 26 28 31 30 30 31 29 24 20 17 15 20 22 23 25 25 26 26 25
36 35 34 34 34 34 33 34 35 35 34 34 33 33 33 31 31 31 32 32 32 28 26 24 26 27 30 27 26 25 26 25 22 19 17 16 23 24 24 25 25 24 23
36 34 34 34 35 34 34 35 36 36 36 34 34 34 33 31 30 32 31 29 29 28 26 23 24 25 26 26 24 21 20 22 25 21 19 19 19 24 25 25 24 22 20
37 37 36 36 37 36 35 35 38 37 38 38 37 35 34 35 35 35 34 32 34 33 29 24 23 24 24 25 24 23 21 22 22 23 22 22 21 22 22 22 22 20 20
38 38 37 37 36 35 35 34 34 35 39 38 39 39 38 34 36 35 34 33 33 33 32 29 25 24 24 25 24 24 22 22 23 22 22 20 20 21 22 22 21 21 20
36 39 38 37 37 36 35 34 34 33 33 34 38 38 39 39 38 36 36 33 30 30 28 29 28 27 25 24 24 24 24 23 22 22 21 19 19 18 17 19 19 18 18
33 36 39 38 37 37 35 34 34 33 33 33 33 36 38 39 39 38 38 31 28 26 26 27 27 26 26 26 25 25 24 23 22 20 19 20 18 17 17 19 18 21 19
33 34 37 37 36 35 35 34 33 33 33 33 33 33 34 37 35 34 33 27 28 25 24 25 26 26 26 25 25 25 25 25 25 22 21 20 17 16 17 18 18 17 18
33 34 35 36 35 35 35 34 34 33 33 33 33 34 36 34 33 33 31 28 27 28 25 25 25 27 28 28 27 26 26 26 25 24 23 20 19 18 18 20 20 20 21
32 32 33 34 35 35 34 34 34 33 33 33 33 34 37 35 32 33 32 31 31 31 30 27 27 27 28 29 28 28 27 25 24 25 23 22 21 20 21 20 21 21 22
31 30 31 32 32 35 35 35 34 34 33 33 33 33 34 34 32 31 32 33 33 33 32 30 30 31 31 30 30 28 25 24 25 26 23 22 21 22 22 21 22 22 22
28 30 30 31 32 32 34 34 34 34 34 33 33 33 32 33 33 33 32 33 33 33 33 32 32 32 31 30 30 31 30 30 30 28 27 24 22 24 22 22 23 23 23
30 30 29 29 30 30 32 34 34 34 33 33 33 33 33 32 32 32 32 32 31 31 30 31 31 31 31 30 28 27 28 30 26 25 24 23 22 22 23 22 22 23 22
28 28 28 29 30 31 31 32 33 33 32 32 32 32 32 31 31 31 30 30 30 30 30 29 27 27 27 26 26 26 29 30 30 29 24 22 21 23 23 22 21 21 21

GFSGL_sfc_dewp_078.txt.gz
Dewpoint
45 45 45 46 47 49 50 49 48 48 50 48 47 45 45 44 44 44 44 44 44 45 44 44 45 45 45 46 48 47 47 48 47 43 43 43 43 43 42 42 42 41 41
44 44 44 45 46 46 46 46 46 46 45 45 44 43 43 42 42 41 41 41 43 43 43 43 43 45 43 43 43 43 44 44 45 43 41 41 40 40 40 40 40 38 37
43 43 44 44 44 44 45 45 44 43 43 43 42 41 41 41 40 39 39 39 39 39 39 40 41 41 40 41 42 43 42 41 42 42 39 39 38 38 38 38 37 36 30
42 42 42 43 43 43 43 43 42 42 41 40 40 40 39 39 38 38 38 37 37 37 37 37 38 41 41 41 41 41 41 40 41 40 39 38 37 37 37 35 35 32 29
41 41 42 41 41 41 41 41 41 40 40 39 38 38 38 37 38 37 37 37 37 38 39 38 39 40 41 41 40 40 40 39 38 37 37 37 36 35 34 33 33 28 26
40 41 41 41 41 40 40 39 39 38 38 37 37 37 37 38 40 41 40 37 38 40 39 38 40 40 40 40 39 38 38 38 37 36 36 36 35 34 31 30 27 23 24
40 40 41 41 40 39 39 38 37 37 36 36 36 36 36 36 40 41 41 38 37 38 37 36 36 36 33 33 35 35 36 36 36 35 35 33 32 30 28 25 25 25 23
40 40 40 40 39 39 38 37 36 35 35 35 35 35 35 36 40 41 40 37 34 34 35 35 34 32 31 30 27 27 26 28 27 26 29 28 28 28 28 27 26 25 24
39 39 40 40 39 37 37 36 35 34 34 34 34 34 34 34 40 40 39 34 34 34 33 33 32 30 31 31 26 26 26 27 32 32 33 32 32 31 29 26 26 23 22
38 39 40 39 39 38 37 35 34 34 34 33 34 34 35 32 38 40 39 35 34 34 33 30 34 26 27 31 24 24 24 25 25 23 22 21 22 26 30 24 27 24 23
38 39 39 39 39 38 36 34 34 34 33 33 34 35 36 35 34 40 40 34 33 32 31 30 29 34 31 32 29 22 22 25 27 21 17 16 17 22 22 22 25 23 19
37 37 37 37 38 37 35 34 33 34 35 35 36 35 36 36 38 39 40 36 33 29 28 27 26 31 34 34 32 27 25 27 25 19 15 13 16 21 24 25 25 25 25
37 36 36 35 35 35 34 36 34 34 35 35 34 34 34 35 35 39 39 38 34 25 22 24 27 30 33 33 32 32 28 23 20 18 16 20 23 24 25 25 26 26 26
37 37 35 34 34 34 36 36 36 35 35 35 34 34 34 33 33 33 36 37 37 31 28 25 26 27 29 30 29 28 28 25 22 20 18 16 22 23 24 25 24 24 23
37 38 36 35 35 33 32 35 36 37 37 35 35 35 34 33 33 34 34 32 31 30 26 23 24 24 26 26 24 23 21 24 26 22 20 17 18 24 25 25 24 22 18
34 36 38 37 37 36 35 35 38 38 39 39 38 36 35 36 36 36 36 36 35 34 27 23 22 24 25 25 25 24 22 22 23 25 22 21 21 23 23 23 21 20 19
32 33 36 38 37 36 35 35 34 36 39 39 39 39 38 35 37 37 37 37 37 35 30 27 25 24 24 24 24 24 23 23 23 22 22 21 20 19 22 20 19 18 18
30 33 34 37 38 37 35 35 35 34 34 35 38 39 39 39 38 37 38 37 34 35 31 31 29 27 25 25 25 24 24 23 22 22 21 18 18 18 15 18 19 15 13
30 31 33 34 37 38 36 35 35 34 34 34 33 36 39 39 39 39 38 35 32 30 29 30 30 29 28 27 26 25 24 24 23 21 21 19 18 13 15 17 16 20 18
30 33 34 33 34 36 35 34 34 34 33 33 33 34 34 37 35 36 36 34 32 32 30 28 28 28 28 27 26 26 24 25 25 22 21 20 19 17 15 16 17 16 16
31 31 32 33 33 34 35 34 34 33 33 33 34 34 36 34 34 34 34 33 32 32 30 26 27 27 27 26 26 25 25 25 25 25 23 22 19 16 18 19 18 18 16
30 30 29 31 32 32 33 34 34 33 33 33 33 34 37 36 34 34 34 33 30 28 29 28 29 28 28 28 27 27 26 26 26 25 25 24 24 22 21 20 20 19 18
29 28 26 28 31 32 32 33 34 34 33 33 34 33 33 34 34 33 34 33 32 31 30 29 29 28 29 29 29 29 29 26 26 26 25 23 23 22 22 21 20 19 19
28 27 28 29 31 31 31 32 33 34 34 33 33 33 33 33 34 33 32 33 33 33 33 33 32 31 32 32 32 31 30 30 29 28 27 25 23 25 22 21 21 21 21
28 28 29 29 27 28 29 30 31 33 34 33 33 33 33 33 33 33 33 33 33 33 32 33 33 33 32 31 30 30 31 32 30 29 28 26 25 24 23 22 21 22 21
30 28 27 27 26 28 29 30 30 32 32 33 32 32 32 32 32 32 32 32 32 31 31 31 31 30 30 29 28 29 31 32 32 30 26 24 23 23 23 21 21 22 21

GFSGL_sfc_dewp_081.txt.gz
Dewpoint
45 45 45 46 47 49 52 52 53 52 52 51 50 48 47 46 46 46 46 46 46 47 47 48 48 48 48 49 50 50 50 50 46 46 45 45 44 44 43 43 43 42 43
43 44 45 46 47 47 48 49 48 49 50 50 48 46 45 44 43 43 43 43 44 45 45 45 45 45 47 47 48 47 46 47 47 46 43 42 41 42 42 41 41 39 38
43 43 44 45 46 46 46 46 46 46 46 45 44 43 42 42 41 41 41 41 41 41 41 42 44 44 44 44 44 45 45 43 44 45 42 42 41 40 39 39 38 37 30
41 42 43 44 44 45 45 44 44 43 43 42 42 41 41 40 40 40 40 39 39 39 40 40 40 42 42 43 42 43 43 42 42 42 41 40 39 38 39 37 36 35 31
40 40 42 43 43 43 43 43 42 42 41 41 40 40 40 39 39 39 39 39 39 39 39 39 40 40 41 41 41 41 41 41 41 40 39 39 37 36 36 35 35 32 28
39 40 41 42 43 43 42 42 41 41 40 40 39 39 39 38 41 41 40 39 39 39 40 39 40 41 41 41 40 40 39 39 39 39 39 37 37 36 33 33 31 30 33
39 39 40 41 42 42 41 41 40 40 39 39 39 39 38 39 42 43 43 40 40 40 40 40 38 37 36 37 38 37 37 35 37 37 37 36 34 33 32 30 29 30 26
38 39 40 41 41 41 40 40 39 39 39 39 38 38 39 38 41 42 42 41 39 37 37 37 37 35 33 33 30 29 28 29 28 28 33 32 32 32 32 32 30 28 26
38 39 39 40 40 40 40 40 39 38 38 38 37 37 38 38 41 42 40 37 37 36 37 36 35 33 34 34 28 27 27 29 32 33 32 31 32 31 29 28 28 28 24
38 39 39 40 40 40 40 39 38 37 37 37 37 37 37 37 40 41 40 37 35 35 34 33 36 32 35 34 26 25 24 25 26 27 27 24 28 32 30 26 28 29 25
38 38 38 39 39 40 39 38 37 37 37 36 36 36 36 36 36 40 42 36 35 34 34 33 31 37 31 31 30 24 23 25 27 22 19 17 19 24 23 22 27 29 27
36 38 38 38 38 39 38 37 37 36 36 35 36 36 37 37 39 39 41 39 37 33 33 33 31 35 35 33 33 28 26 27 26 22 18 15 16 20 24 26 25 26 26
35 36 38 37 36 37 37 37 36 36 36 36 36 36 35 36 36 39 40 42 38 32 31 31 32 32 33 34 35 33 28 26 24 21 18 19 21 23 27 27 28 27 27
33 34 36 37 37 36 36 37 36 36 36 36 35 35 36 35 35 35 38 39 39 34 28 28 28 29 31 33 33 32 28 25 22 21 19 17 20 24 24 26 25 26 26
31 31 33 35 37 36 35 36 37 37 37 36 36 36 35 34 35 36 36 36 36 33 29 25 25 25 26 28 28 27 27 28 27 24 21 17 16 21 22 25 26 26 23
28 28 30 33 35 37 36 36 38 39 39 40 39 37 36 37 37 38 38 38 38 37 27 23 22 24 25 26 26 24 23 25 26 28 25 24 21 23 24 25 25 25 23
28 28 29 30 31 35 36 35 35 36 40 40 40 39 38 36 38 38 38 38 38 38 30 26 26 24 25 26 27 27 26 25 27 26 27 26 25 24 24 24 24 24 23
28 30 29 30 33 33 36 35 35 35 34 36 40 40 40 39 38 39 38 38 36 37 34 29 28 27 25 26 27 27 27 26 25 25 25 25 25 25 23 23 23 22 22
28 28 30 30 31 33 34 36 35 35 35 35 34 38 40 40 40 39 39 36 34 33 33 32 32 30 29 28 28 28 28 27 27 26 26 25 24 23 22 22 22 22 21
27 29 30 28 28 31 33 34 34 34 34 33 33 35 34 38 36 37 37 36 34 33 33 33 33 32 31 30 30 29 28 28 28 26 25 26 25 23 22 21 20 20 21
28 28 31 28 26 28 32 32 34 34 33 33 33 35 36 35 35 35 35 35 34 33 33 33 33 32 31 31 30 29 28 28 28 28 27 26 25 23 22 21 21 20 20
28 29 31 28 27 29 30 32 32 33 33 33 33 34 38 36 34 34 35 35 35 35 34 33 33 32 31 30 29 29 28 28 29 28 28 27 26 24 23 22 21 21 21
29 29 28 26 25 28 30 31 32 32 33 33 33 33 33 35 34 34 34 35 34 33 32 32 31 30 31 31 31 31 29 29 29 30 29 27 26 26 25 25 23 23 22
29 27 27 27 28 29 30 30 30 32 32 33 33 33 33 34 34 34 34 34 34 33 31 31 30 30 30 30 31 31 31 33 32 31 30 28 27 27 26 25 24 24 23
28 28 27 27 28 28 27 27 28 29 31 32 33 33 33 33 34 34 34 34 33 33 33 33 33 32 32 32 32 33 32 33 31 30 30 29 27 27 26 25 24 23 23
29 29 27 27 26 26 27 26 28 29 30 32 33 33 33 33 33 33 33 33 33 33 33 33 33 33 33 33 33 32 33 34 33 31 30 28 27 26 25 24 24 24 23

GFSGL_sfc_dewp_084.txt.gz
Dewpoint
44 45 46 46 47 48 51 54 56 57 57 58 57 55 53 52 50 49 48 48 47 48 48 49 49 49 50 50 51 50 50 50 47 48 47 47 47 46 44 44 44 43 43
42 44 45 46 47 47 48 50 51 53 54 54 53 51 49 48 47 46 46 45 45 46 46 47 47 46 47 48 48 47 48 49 48 46 46 44 44 44 43 42 41 39 39
40 41 43 45 46 46 47 47 48 49 51 51 50 49 47 45 44 44 43 44 44 44 44 44 45 45 46 46 47 47 47 46 47 47 46 45 43 42 41 40 39 37 32
40 40 40 42 45 46 46 46 46 46 47 47 47 45 44 43 43 42 42 42 42 42 42 42 43 44 45 45 45 45 45 45 45 44 44 43 41 40 40 38 37 36 32
37 40 40 41 43 45 45 45 45 45 44 44 44 43 42 42 41 42 41 41 41 41 41 41 42 43 43 44 43 44 43 43 43 43 42 40 39 38 38 37 37 35 31
35 38 40 40 42 44 45 45 44 44 43 43 42 42 42 40 42 43 42 41 40 40 40 40 40 41 42 43 42 41 41 41 41 40 40 39 39 38 36 35 34 33 33
37 38 40 40 41 42 43 44 44 44 43 42 42 41 41 40 43 43 42 41 41 41 42 42 41 40 40 41 40 40 39 38 38 39 38 38 38 37 35 34 32 33 34
38 39 40 40 40 42 43 43 44 44 43 43 42 41 41 41 44 44 43 42 42 40 40 41 41 40 38 38 34 33 33 32 31 32 36 37 35 35 35 35 34 34 30
36 37 39 40 40 41 42 43 44 43 43 43 42 41 42 41 43 44 43 42 40 39 39 40 39 37 37 36 32 30 27 28 32 32 32 32 33 33 33 32 32 31 27
35 36 38 39 40 40 42 43 43 42 43 43 41 43 41 41 42 43 42 39 38 37 37 37 38 37 37 37 31 30 26 24 28 31 30 32 32 32 29 29 32 35 29
35 36 36 38 39 40 41 42 42 41 41 41 40 40 40 40 39 42 42 38 37 36 35 35 35 38 37 38 34 26 24 25 27 25 21 21 26 30 27 23 27 33 32
32 34 36 38 38 39 40 41 41 40 39 38 38 38 38 37 39 40 41 40 38 36 35 35 35 37 36 34 34 29 27 26 25 22 19 17 18 21 25 26 26 28 28
28 30 32 31 34 38 38 38 38 38 38 38 37 37 38 38 38 40 41 42 40 37 36 35 35 37 38 33 34 32 29 26 23 22 20 22 24 25 30 30 30 29 29
27 27 28 30 33 34 37 37 38 37 37 37 36 36 37 36 36 37 39 40 42 39 34 34 35 35 35 33 33 34 28 26 23 22 21 21 22 26 25 27 27 26 27
26 26 27 27 28 31 34 37 37 37 37 37 37 37 36 35 36 37 37 38 39 37 30 28 28 27 26 29 31 31 30 28 26 24 22 19 16 21 22 26 26 27 27
27 27 27 28 28 29 31 33 38 39 40 40 40 38 38 39 39 39 39 39 39 39 29 23 23 24 24 24 27 28 29 30 29 29 29 27 24 24 24 26 28 27 26
27 27 28 29 28 28 28 30 34 37 39 40 40 40 40 38 39 39 39 39 39 40 31 28 25 24 24 26 27 29 29 28 32 31 32 31 30 29 27 26 26 26 26
27 29 29 29 29 28 30 30 33 34 34 35 40 40 40 40 39 39 39 39 37 39 35 31 30 28 27 27 29 30 30 29 28 28 30 32 31 30 27 27 26 26 25
26 27 27 28 29 30 30 28 31 33 34 35 35 37 40 41 40 40 40 37 35 35 35 33 31 31 33 30 30 31 32 30 30 30 30 30 30 30 28 27 27 25 24
26 28 28 28 29 29 27 28 28 29 33 34 34 34 36 38 37 37 37 37 35 35 35 34 33 33 34 34 32 32 31 30 31 30 30 30 30 29 27 26 24 24 24
27 27 28 29 29 29 26 27 28 29 31 33 34 35 36 34 34 36 36 36 36 35 35 35 34 34 35 35 33 32 31 32 31 32 31 30 30 28 27 26 26 23 24
27 25 26 27 29 28 26 26 27 30 31 32 33 34 37 35 33 34 35 36 36 36 36 35 35 34 34 35 34 33 32 31 31 31 31 30 29 28 27 26 25 26 25
26 27 28 29 28 27 26 25 27 28 30 31 32 33 32 32 33 33 34 36 36 36 35 34 35 34 35 35 34 34 32 31 32 32 31 30 29 28 28 27 26 26 25
27 27 27 27 27 27 28 28 30 28 28 29 31 33 33 32 33 33 34 35 35 35 35 34 34 34 34 34 33 34 33 33 33 32 32 32 31 29 30 28 28 27 26
27 28 28 28 28 28 27 27 26 26 26 27 30 32 33 33 33 34 34 35 35 34 33 33 33 34 33 33 33 33 32 32 33 33 33 32 32 31 30 29 29 28 27
30 28 27 27 27 26 25 26 25 26 28 29 30 32 33 33 33 33 34 34 33 34 33 33 33 33 33 33 32 33 34 34 33 33 33 32 31 30 29 28 28 27 26

GFSGL_sfc_dewp_090.txt.gz
Dewpoint
41 44 45 47 47 48 48 51 55 57 58 60 60 60 60 61 61 60 58 57 56 55 53 53 52 51 51 51 52 51 50 49 47 46 47 46 46 46 45 45 45 44 45
41 40 43 45 46 46 47 48 49 51 54 56 57 59 59 59 59 58 56 55 55 53 52 50 50 50 50 51 50 49 49 49 48 46 46 45 45 44 44 43 42 40 40
37 40 41 41 41 44 46 47 47 48 50 53 54 55 55 55 56 56 55 53 52 50 49 49 49 48 48 47 48 48 47 47 48 46 43 45 42 43 42 42 40 39 35
36 36 39 40 41 41 44 46 46 46 47 49 51 52 51 50 50 50 48 48 47 47 47 47 47 47 46 46 46 46 46 45 46 46 45 43 42 42 42 39 39 39 36
37 37 38 40 40 41 42 44 46 45 45 46 48 47 46 46 45 46 46 46 46 46 47 46 46 46 45 46 46 45 44 45 44 42 42 41 40 38 38 39 38 37 36
36 37 39 40 40 41 41 42 43 45 45 45 45 45 44 43 45 46 45 45 44 44 43 43 43 43 43 44 44 45 44 43 42 41 40 40 40 39 39 37 36 34 34
36 36 37 39 40 40 41 41 42 43 45 44 44 44 43 43 45 46 46 43 43 43 42 42 41 41 41 41 43 42 41 42 42 41 38 38 38 38 37 35 34 34 34
35 36 37 37 38 39 40 41 41 42 43 43 43 43 42 43 45 45 45 41 41 39 38 39 39 38 39 40 39 36 35 36 36 36 39 38 38 38 37 36 35 34 30
33 33 35 36 36 37 38 38 40 41 42 43 44 43 42 41 44 45 43 38 38 38 39 40 39 38 41 42 38 34 34 32 32 32 35 37 38 38 37 36 34 32 31
31 32 32 34 35 37 37 38 39 40 41 43 43 43 43 42 44 45 43 40 39 39 39 39 41 40 41 41 35 34 31 30 31 31 31 33 34 34 37 31 31 32 29
29 30 30 31 32 34 35 36 38 39 41 41 42 42 42 43 42 45 45 41 39 38 38 37 39 41 41 40 38 33 31 30 32 30 30 29 29 28 26 27 30 28 22
26 27 27 27 28 28 30 33 34 36 37 40 40 41 41 41 43 44 45 43 41 37 37 37 37 41 40 40 39 35 35 32 29 28 24 25 26 26 24 25 27 27 27
24 24 24 25 26 26 26 28 32 32 32 34 37 38 39 39 39 43 44 45 42 38 37 37 38 40 40 39 41 38 33 28 27 25 23 22 23 25 25 24 25 27 26
22 23 24 24 25 25 26 28 30 30 31 31 34 35 37 38 38 38 41 43 44 41 39 38 38 38 39 38 39 39 30 27 25 25 23 24 26 24 23 23 21 22 20
22 23 23 25 25 26 27 27 28 29 30 29 29 34 36 36 37 39 39 40 41 41 38 35 35 35 35 35 34 34 30 28 26 25 24 24 25 25 25 24 24 22 20
23 24 26 27 27 27 28 28 30 30 31 31 31 32 33 39 40 41 41 41 42 42 36 35 34 34 34 35 33 32 31 29 27 26 25 24 23 23 24 24 22 20 22
24 25 27 28 28 27 27 27 27 28 30 29 30 30 32 35 38 40 41 41 41 42 37 34 34 33 33 34 33 32 32 31 30 28 26 23 22 22 24 25 22 22 24
24 28 27 26 26 26 26 26 26 26 26 26 27 30 30 33 37 39 40 40 38 39 37 34 33 33 32 32 31 32 32 31 30 29 28 27 24 23 22 24 25 23 23
23 25 27 28 26 26 26 27 28 27 24 25 25 26 28 31 34 37 38 37 34 35 36 34 34 33 30 30 30 31 32 31 31 31 30 28 26 25 25 25 25 26 25
25 28 28 27 25 26 26 26 26 28 27 25 25 24 26 28 29 31 34 35 34 35 36 35 34 34 32 32 32 32 31 31 31 30 29 29 28 28 26 25 25 25 26
25 27 28 27 26 25 24 25 26 27 28 23 24 26 28 27 29 31 32 34 34 35 35 36 35 34 33 33 32 32 31 30 30 29 28 28 28 28 27 26 26 25 25
28 30 29 27 28 27 26 27 27 28 26 23 24 26 28 27 28 29 31 33 34 35 36 36 35 34 33 33 33 33 32 32 31 30 28 28 28 28 27 26 26 26 25
30 30 29 29 29 29 26 26 25 25 24 24 25 26 30 27 25 25 30 33 34 35 36 36 33 33 33 34 34 34 33 32 32 31 29 28 28 28 27 26 26 25 25
31 29 28 27 28 27 27 27 26 27 27 26 27 27 26 23 25 26 29 33 33 34 35 33 33 33 33 33 33 34 34 34 33 32 30 30 29 28 27 26 26 26 26
28 28 27 27 27 28 27 25 25 26 25 24 24 24 24 25 26 29 31 33 33 32 32 32 33 33 33 32 33 33 33 34 33 32 31 30 29 29 28 28 27 28 28
25 25 26 28 26 25 24 24 24 24 24 26 26 26 27 27 28 29 31 33 32 32 32 32 32 32 32 32 33 34 35 35 34 33 31 31 29 29 29 29 29 28 28

GFSGL_sfc_dewp_093.txt.gz
Dewpoint
41 42 45 46 47 48 48 51 54 57 58 58 60 60 60 60 60 60 59 59 58 58 57 57 56 55 54 53 53 52 51 50 46 46 46 46 45 45 45 46 45 44 46
37 41 41 41 42 44 46 47 47 48 50 53 55 57 59 59 60 60 59 59 58 56 55 55 54 53 52 52 51 50 50 50 48 45 44 43 44 46 45 44 43 42 42
36 37 39 40 41 41 42 45 46 46 47 49 52 53 55 56 57 58 58 57 57 56 55 55 54 52 51 50 50 50 49 48 46 44 43 44 43 43 42 42 41 40 37
37 37 38 39 40 41 42 42 44 46 45 46 48 50 51 52 53 54 54 53 53 53 52 52 52 51 49 48 48 48 46 45 44 44 44 43 42 42 42 40 39 39 38
37 37 39 40 40 41 41 41 42 43 45 45 45 47 47 47 48 48 49 49 49 48 50 50 49 49 47 48 47 47 46 44 42 40 41 42 41 39 39 39 39 37 38
36 36 37 38 39 40 40 41 41 42 43 44 44 44 45 45 45 47 47 47 47 46 46 46 47 46 47 48 48 48 47 44 42 40 41 41 40 39 37 36 36 35 35
35 36 36 37 37 38 39 40 40 41 41 42 43 43 43 43 45 46 46 45 45 45 44 44 43 44 44 45 46 46 46 46 44 41 40 41 39 38 38 36 35 35 35
34 33 34 35 35 36 37 38 38 39 40 41 42 44 44 43 45 45 46 42 42 42 42 42 41 41 40 41 40 38 38 39 40 41 40 39 38 38 37 37 36 34 30
32 31 32 33 33 35 35 36 37 39 39 41 42 42 43 44 44 45 44 39 38 38 38 40 40 40 42 43 38 35 35 34 37 37 38 40 41 41 39 36 33 33 31
30 30 31 31 31 33 33 34 35 36 38 39 41 42 43 43 44 45 44 40 38 39 40 39 41 39 42 43 37 35 33 32 31 31 32 35 38 38 40 34 33 31 31
29 28 29 29 28 30 31 31 33 33 35 35 35 38 41 42 43 44 45 41 40 39 39 39 39 43 42 43 40 35 34 32 33 30 30 30 30 30 29 30 31 28 28
26 26 26 26 26 27 27 29 29 31 32 31 31 33 35 39 43 44 44 45 42 39 38 39 38 41 42 42 41 38 37 34 31 29 29 29 28 27 25 27 29 28 27
22 23 23 24 24 25 25 26 27 30 30 30 30 30 33 35 38 41 43 44 45 41 39 39 39 41 42 41 42 39 38 31 30 28 26 26 26 27 25 25 26 27 26
21 22 23 23 24 25 26 27 27 28 28 29 29 28 28 31 34 38 39 40 42 44 40 39 40 40 41 40 39 39 34 30 28 27 26 23 25 25 24 24 23 22 20
20 21 22 24 24 25 26 27 27 28 29 29 27 27 27 28 31 35 39 39 39 41 39 36 37 37 37 37 36 38 32 29 28 27 24 25 24 25 25 24 24 20 17
19 21 24 26 27 27 27 27 29 30 31 31 31 28 26 29 31 34 36 38 41 40 39 36 35 35 35 35 35 35 33 31 28 27 25 25 25 25 25 24 22 19 18
19 21 24 26 27 27 25 25 24 25 28 28 30 28 28 30 31 32 35 38 39 41 37 35 35 33 33 34 34 34 33 32 30 28 27 27 26 25 26 24 24 22 19
20 25 25 26 26 26 25 25 26 25 25 26 27 27 27 27 30 32 33 36 36 38 37 36 35 34 34 33 33 33 34 32 31 31 28 26 25 24 24 24 24 24 18
22 23 24 26 27 26 27 26 26 26 26 27 26 25 26 27 28 29 32 32 33 34 35 36 35 34 34 34 33 34 33 33 32 31 29 26 25 24 23 24 24 26 24
25 26 26 25 27 30 28 25 25 25 25 26 26 26 25 26 26 28 30 31 33 33 34 35 35 35 33 33 32 32 32 33 32 32 31 29 26 25 24 24 24 24 24
25 26 29 28 31 29 29 28 27 26 25 26 26 25 26 24 26 29 30 29 30 33 34 34 35 34 33 32 32 32 32 32 33 32 32 31 29 27 26 25 25 24 25
28 28 27 27 29 29 28 28 27 27 27 26 26 25 27 26 27 29 27 26 30 33 34 34 35 35 34 33 32 32 32 32 32 32 32 31 29 28 27 25 25 25 25
28 28 27 29 29 28 27 27 27 26 25 25 25 25 25 26 29 24 24 26 30 32 34 34 35 35 35 34 34 33 33 32 33 32 31 30 29 28 27 26 25 25 24
26 25 25 25 26 27 27 27 27 28 27 25 26 27 27 26 26 24 26 27 30 31 33 33 34 34 34 33 33 34 34 34 34 33 32 31 29 29 27 26 26 25 25
26 25 25 25 26 26 28 26 25 24 24 24 24 24 25 25 24 25 27 28 30 30 31 33 34 33 33 33 33 33 34 34 33 32 32 31 30 28 27 26 26 26 26
25 26 26 26 26 25 25 24 23 23 24 24 25 25 25 26 26 28 29 29 28 29 31 33 33 32 33 33 33 33 34 34 33 34 32 32 29 28 27 26 26 26 26

GFSGL_sfc_dewp_096.txt.gz
Dewpoint
42 42 43 45 47 49 49 49 50 52 54 56 58 59 59 59 59 60 59 59 58 58 58 57 57 57 57 56 55 53 51 49 46 46 47 46 46 46 46 46 46 45 45
37 39 40 40 41 41 42 44 46 46 47 49 52 54 57 59 59 59 59 59 58 58 58 57 56 55 56 55 54 53 52 50 49 45 45 45 45 45 44 45 44 44 42
37 38 39 40 40 40 41 42 43 45 46 46 48 50 52 53 56 58 59 59 58 58 58 56 56 55 55 54 53 52 51 49 47 46 44 44 44 44 43 43 42 40 39
37 38 39 39 40 40 40 41 41 43 44 45 45 47 48 49 51 52 55 55 56 56 56 56 56 55 55 53 52 51 49 48 46 45 44 43 42 42 42 40 40 40 39
36 37 37 38 38 39 39 40 41 42 42 43 44 45 45 46 46 47 49 51 52 52 51 52 53 52 50 52 51 49 48 47 43 42 41 41 41 40 40 40 40 39 39
35 35 35 35 36 36 37 39 39 40 40 41 41 42 43 44 46 47 46 47 48 49 49 49 50 48 49 50 50 48 48 47 44 42 40 41 41 39 38 38 37 35 35
33 33 32 33 34 35 36 37 37 37 38 38 39 41 42 43 45 46 46 45 46 46 46 46 46 46 47 47 49 49 48 48 47 45 43 41 39 38 38 36 33 33 35
29 31 31 32 32 32 34 33 34 36 37 38 38 39 41 42 45 46 46 43 42 42 43 44 44 43 43 44 44 43 44 45 45 44 43 41 40 40 39 37 36 34 31
27 30 29 30 30 30 30 31 32 34 34 36 38 38 40 41 43 45 45 42 40 38 39 41 43 42 43 44 41 39 39 38 40 42 42 42 42 42 39 36 33 34 31
26 28 29 29 29 28 29 30 31 32 32 34 36 35 38 38 41 43 44 43 40 40 40 38 42 42 43 44 40 38 37 36 34 35 36 38 41 41 41 36 34 34 32
28 28 28 28 27 27 28 29 28 29 30 30 31 32 33 35 37 41 43 43 42 40 40 40 40 42 43 44 41 38 38 34 34 31 31 32 32 34 35 33 33 32 28
22 24 25 25 25 25 25 26 26 26 28 28 29 29 31 33 35 37 40 41 42 41 40 40 40 42 43 44 43 40 39 36 32 30 30 30 31 30 28 29 31 29 28
20 21 21 21 22 23 24 24 25 26 27 27 28 29 29 28 30 33 36 38 39 40 42 41 41 41 42 43 43 41 40 33 31 28 27 28 29 28 27 26 27 28 28
18 19 19 20 21 23 25 25 26 26 26 27 28 26 26 26 27 29 31 34 38 39 40 41 41 41 41 42 42 41 38 32 31 30 28 27 27 25 25 25 24 25 24
17 18 18 20 20 22 24 26 27 27 28 28 29 29 26 24 25 29 30 30 33 36 39 36 37 37 37 37 37 38 36 33 31 29 27 24 26 26 25 23 24 22 19
19 19 20 20 21 24 26 26 29 30 29 30 30 29 29 30 29 29 30 31 32 35 36 34 35 36 36 36 36 36 35 34 32 29 29 27 25 26 25 23 22 22 18
20 20 21 23 23 24 26 25 24 25 28 28 29 29 29 27 28 28 29 31 32 35 35 35 34 35 35 35 35 34 33 34 33 31 30 29 27 25 26 24 23 22 21
23 26 24 23 24 25 26 26 25 25 24 25 27 28 30 30 28 27 28 30 30 34 33 34 34 35 34 34 33 34 33 32 32 31 31 29 29 27 25 25 24 23 22
25 24 24 25 26 27 27 28 27 26 25 24 25 27 28 29 26 26 27 27 29 30 32 32 35 35 34 34 33 32 33 32 32 31 30 29 28 28 26 26 25 26 24
24 26 27 27 27 28 28 28 29 28 26 25 25 25 26 26 25 26 27 29 29 29 31 32 33 35 35 34 33 33 32 32 32 32 31 29 28 28 26 26 25 25 25
23 23 27 26 26 27 28 28 28 27 26 26 26 26 29 27 26 26 27 28 29 28 29 32 33 34 35 33 33 33 32 32 32 32 31 29 28 27 26 25 25 25 25
24 25 25 25 24 26 27 28 27 27 26 26 26 27 28 26 25 25 26 29 25 26 29 32 33 33 33 33 33 32 32 32 32 32 32 31 29 28 25 25 25 24 25
24 25 24 24 24 25 25 26 26 25 26 26 26 25 25 25 25 26 28 24 25 26 28 31 32 32 33 34 34 33 32 33 33 33 32 31 30 29 27 26 25 25 25
27 24 24 24 25 25 26 26 27 27 26 25 24 24 24 24 24 25 26 24 25 27 29 31 31 32 33 34 33 33 34 34 34 34 33 31 30 31 29 27 26 26 25
23 23 24 24 24 24 25 24 24 23 24 23 23 23 23 24 24 25 26 27 27 27 28 29 29 31 33 33 33 33 33 34 34 33 33 32 31 30 29 28 27 26 26
23 23 23 23 22 23 23 23 23 23 23 22 22 23 23 23 24 25 26 28 28 29 29 28 30 32 33 33 33 33 34 35 34 35 33 32 30 30 29 28 27 26 26

GFSGL_sfc_dewp_099.txt.gz
Dewpoint
41 41 42 44 45 45 45 47 48 49 50 51 54 56 57 59 59 59 59 59 59 58 58 58 58 58 58 57 57 56 54 53 49 46 47 47 47 48 47 47 47 46 47
38 39 39 40 40 41 40 41 42 43 45 46 47 50 52 54 57 59 58 59 58 58 58 57 57 57 57 56 55 54 53 50 49 45 45 45 46 46 46 45 45 45 44
38 38 38 38 39 39 40 40 41 42 43 44 45 46 47 49 50 52 55 57 58 58 58 57 57 57 56 56 55 55 54 51 50 47 44 45 44 46 44 44 43 41 41
37 37 36 36 37 37 39 39 40 41 41 41 43 44 44 45 46 47 49 51 53 55 56 57 57 57 56 55 55 55 53 52 50 48 44 43 43 43 44 42 41 41 39
36 34 34 35 36 36 36 38 38 39 39 40 41 41 42 43 44 45 45 46 47 50 52 53 54 54 52 55 54 54 52 51 48 46 43 42 41 41 42 41 41 39 39
33 32 32 32 32 33 34 35 36 36 37 38 38 39 40 41 44 46 46 45 45 46 48 50 51 49 50 51 51 51 51 50 48 46 42 43 41 41 41 40 38 36 36
28 31 30 30 30 31 32 33 32 33 35 35 37 38 38 40 43 44 45 45 43 43 45 46 47 47 48 49 50 50 49 50 50 47 44 43 42 40 40 36 35 35 36
26 27 29 28 28 29 29 29 30 32 32 34 34 36 37 37 39 42 43 43 43 42 41 42 44 44 44 46 46 45 46 47 47 46 46 44 44 42 42 39 38 34 32
25 26 27 28 28 27 27 27 28 31 30 31 33 34 34 35 38 36 40 41 41 41 41 41 42 43 44 46 43 42 42 41 45 46 46 45 45 45 41 38 35 36 32
26 26 27 28 27 27 27 27 28 28 29 30 31 31 32 32 36 36 37 40 40 41 42 41 42 42 43 45 43 41 40 39 38 39 40 42 43 43 42 40 37 37 32
24 24 25 26 26 26 26 26 26 26 27 27 28 29 29 31 32 34 35 36 39 40 41 41 41 42 43 44 45 41 40 37 39 36 37 35 37 38 38 35 36 37 32
20 20 19 20 20 20 23 24 24 24 25 26 26 27 28 30 32 31 33 34 36 37 38 40 41 42 43 43 44 42 42 39 35 33 33 34 34 35 35 32 32 30 31
18 18 18 18 19 19 20 22 23 25 25 25 27 27 27 28 28 31 30 32 33 33 36 39 40 42 42 43 43 43 41 35 33 32 32 32 32 31 30 29 28 28 28
17 17 18 18 19 20 20 21 23 24 25 26 27 27 27 26 26 27 27 27 29 29 32 34 37 40 42 41 42 43 39 35 34 33 32 30 29 26 26 26 27 26 25
19 19 19 19 19 20 21 22 24 26 27 27 28 28 27 27 27 28 30 29 29 31 31 32 34 36 36 37 37 39 38 35 34 33 29 27 28 27 27 25 25 23 22
21 21 22 22 22 23 23 23 28 30 31 31 30 29 28 30 30 28 29 30 31 32 31 30 32 35 35 36 36 36 36 36 34 32 30 29 28 27 26 25 23 22 22
23 24 24 24 23 23 23 24 25 26 29 29 29 29 30 30 30 30 29 29 30 30 30 31 32 34 34 35 36 35 35 35 34 32 31 30 30 29 27 25 24 24 21
25 26 24 24 24 25 25 25 26 25 25 25 27 27 29 29 29 29 27 26 25 28 30 30 31 32 34 34 34 34 34 32 32 32 31 30 29 29 27 26 24 23 22
23 23 23 25 26 27 26 26 26 26 25 26 27 27 27 28 29 29 28 26 25 26 28 30 31 32 32 34 33 32 33 32 32 32 31 30 29 29 28 27 26 25 23
21 23 23 23 25 25 24 24 24 25 27 27 25 25 26 26 26 26 26 26 27 27 28 29 29 30 32 33 34 33 32 33 32 32 32 31 30 30 28 27 27 26 26
23 23 26 24 24 24 23 24 25 25 26 23 24 26 28 27 28 25 25 25 26 27 29 26 28 30 32 33 34 33 32 32 32 32 32 31 30 29 29 28 27 27 27
23 24 24 25 24 22 23 25 25 25 25 24 24 25 28 27 25 25 25 25 26 28 26 27 28 30 32 32 33 32 32 32 32 32 32 30 29 29 28 28 27 26 26
24 25 23 21 22 23 23 24 24 25 26 27 27 26 26 24 24 24 24 25 27 26 26 27 27 28 30 32 33 33 32 32 33 33 32 30 29 29 28 27 26 24 24
23 23 21 20 22 22 21 22 24 23 23 24 23 23 23 23 24 24 24 25 26 27 27 27 28 28 30 31 32 33 33 34 33 33 33 31 30 30 28 28 27 25 24
21 21 20 20 20 21 21 21 22 22 24 23 22 22 21 22 22 22 23 24 25 26 28 28 29 29 29 30 32 33 33 34 33 33 33 32 31 30 28 27 27 26 25
22 21 21 20 20 20 20 19 19 19 20 21 21 21 21 20 21 22 22 23 24 26 28 29 30 29 29 31 32 33 35 35 34 35 33 32 31 30 29 28 27 27 25

GFSGL_sfc_dewp_105.txt.gz
Dewpoint
39 39 37 38 40 41 42 41 40 41 41 42 43 44 45 46 48 49 50 52 53 57 58 58 58 58 58 59 59 58 57 57 55 55 50 50 51 52 52 53 53 54 55
36 32 33 32 32 34 35 35 36 35 35 36 36 37 39 41 44 45 45 47 48 49 51 55 57 57 58 58 58 57 57 57 56 54 48 47 49 51 51 50 49 50 52
31 30 30 29 29 29 30 30 31 32 32 33 34 35 35 37 41 43 44 44 44 45 47 48 50 52 56 57 57 57 56 56 56 52 45 46 46 49 47 47 47 47 47
31 28 28 28 28 27 28 28 28 31 30 30 31 32 35 36 36 39 39 41 42 43 44 45 47 49 50 51 53 56 56 55 53 51 47 45 45 46 47 45 43 44 44
29 28 28 28 28 28 27 28 27 29 30 29 29 30 32 34 34 36 36 37 39 40 42 43 44 45 45 47 49 50 53 54 52 50 46 44 43 44 45 45 45 43 42
25 26 27 27 27 27 27 27 26 27 29 28 28 29 30 29 34 35 35 35 35 37 39 41 42 43 44 46 47 47 49 49 51 51 48 46 46 46 46 45 43 40 39
24 24 24 25 25 26 26 25 24 25 28 27 27 28 29 30 33 34 34 34 35 35 36 38 39 40 43 43 44 46 47 48 49 51 50 48 48 47 46 43 43 43 43
24 22 23 24 23 24 24 24 24 25 26 26 27 28 29 28 32 33 33 33 34 35 37 36 37 37 40 41 42 43 44 45 47 49 50 51 50 48 47 46 45 43 37
23 22 22 23 23 23 23 24 24 25 25 26 26 27 28 29 33 33 32 33 32 32 32 32 34 35 37 38 39 42 42 43 45 46 47 49 49 48 48 45 41 39 34
23 23 23 23 23 22 23 24 24 24 24 26 25 27 29 29 31 32 31 29 28 29 29 30 33 35 38 38 39 39 40 41 43 43 45 46 47 47 46 45 42 41 34
23 22 21 21 21 21 22 22 23 23 23 24 24 26 26 27 28 32 32 29 28 28 26 26 27 31 33 35 36 37 39 41 43 42 42 42 43 44 45 45 42 43 39
20 20 20 20 20 20 21 22 22 21 21 22 22 23 25 27 30 31 31 30 29 25 25 26 26 30 31 32 32 35 37 41 41 40 38 38 39 40 42 40 41 41 40
19 19 20 20 20 21 21 21 21 21 21 22 23 24 25 27 28 31 31 31 31 27 27 27 29 29 30 30 31 33 35 38 39 37 36 37 38 39 35 33 33 32 33
20 21 21 21 23 22 22 22 22 22 23 23 24 25 26 28 28 28 28 29 31 31 30 31 32 30 28 28 29 33 36 38 37 37 37 36 33 33 33 32 32 33 31
21 22 22 22 23 23 22 23 23 24 25 25 27 27 27 28 28 29 30 28 29 30 32 30 30 29 27 28 31 32 35 36 36 36 35 32 33 33 32 32 32 32 31
22 22 22 22 22 22 22 21 25 26 27 26 27 27 27 30 31 31 31 31 30 30 30 29 26 26 27 27 28 30 32 34 35 35 35 33 33 33 33 32 33 33 30
23 22 22 22 21 22 22 21 22 23 26 25 26 26 27 29 30 30 29 28 29 30 30 26 24 24 26 28 28 29 30 33 34 34 33 33 33 32 32 30 31 32 30
23 24 21 21 22 23 24 24 21 22 22 22 23 25 26 27 27 28 28 28 28 27 26 25 26 25 26 28 29 28 30 32 32 33 32 32 32 32 31 30 31 31 29
22 20 21 23 24 24 21 22 22 21 21 21 22 24 25 27 27 27 28 27 27 27 25 25 26 27 28 29 28 29 30 32 33 32 32 32 32 32 31 31 31 31 29
20 22 24 23 23 22 22 23 21 20 21 22 22 22 24 26 26 26 27 27 27 25 24 25 25 27 28 28 27 29 28 31 32 32 32 32 32 32 31 30 31 31 30
20 22 25 22 21 21 22 21 23 22 20 20 20 23 24 23 25 23 23 23 23 23 24 25 26 26 27 26 27 28 28 29 31 32 32 32 32 32 32 31 30 31 29
23 22 23 23 22 21 21 21 21 20 19 20 19 20 23 23 22 22 21 22 23 24 25 26 26 25 27 27 27 27 27 29 31 31 32 32 32 32 31 30 30 30 28
23 23 22 22 20 21 21 20 19 19 19 19 18 17 18 20 22 22 20 21 22 22 23 23 24 24 27 29 28 28 29 29 30 31 31 32 31 31 30 30 30 28 27
25 22 20 20 21 21 19 19 19 19 18 18 18 17 17 18 18 19 19 21 22 23 23 24 25 25 26 27 30 30 31 31 31 32 32 32 31 32 30 30 29 29 28
21 19 19 20 20 19 19 18 18 18 18 17 17 17 17 18 18 18 19 20 21 21 22 23 24 24 26 26 28 30 31 32 32 32 32 32 31 31 30 30 29 29 28
18 18 18 18 18 18 18 17 18 18 18 18 18 18 18 17 17 18 19 19 20 21 21 22 22 23 24 25 27 29 30 31 33 34 33 32 31 30 30 29 29 28 28

GFSGL_sfc_dewp_108.txt.gz
Dewpoint
34 33 31 34 36 34 34 36 37 37 37 36 37 38 39 41 44 45 46 47 47 48 50 51 51 56 59 59 59 58 58 58 55 55 57 56 54 54 54 55 56 56 56
33 29 32 29 26 27 27 27 28 27 28 27 26 28 28 31 35 39 41 42 44 44 46 47 48 50 51 55 58 57 57 58 56 54 55 53 52 53 54 53 54 54 55
25 24 24 24 24 24 24 23 23 25 24 24 24 25 27 29 30 31 32 34 36 38 41 43 44 47 49 50 50 50 55 56 56 55 54 48 49 50 49 50 50 49 52
26 26 25 26 26 25 24 23 23 23 23 22 23 23 25 26 28 30 31 32 32 35 38 39 41 42 43 44 47 48 50 50 55 55 51 46 46 46 49 46 44 46 46
25 25 26 25 24 24 24 23 22 21 22 23 22 21 22 23 22 31 30 29 30 30 31 33 38 41 43 44 44 45 46 47 48 51 47 45 45 45 46 47 46 45 43
22 21 21 19 19 20 20 20 19 20 20 21 20 21 23 21 29 32 32 28 28 28 28 30 32 36 38 40 42 44 45 45 45 47 49 48 47 48 47 46 45 41 39
21 19 18 18 18 19 18 17 18 19 20 20 20 20 21 22 29 32 33 28 28 29 30 31 30 29 37 34 38 40 41 43 45 46 45 47 49 48 48 45 45 44 44
20 17 18 19 18 19 20 20 20 21 21 22 22 22 23 23 29 32 33 30 30 30 30 29 28 28 30 34 33 34 36 38 40 42 46 47 49 51 49 47 47 45 40
19 19 19 20 20 20 21 22 22 23 23 23 23 23 24 25 29 31 31 29 28 28 26 26 27 27 31 34 32 35 33 34 37 41 43 45 46 47 49 48 45 41 35
19 21 20 21 21 21 21 22 23 23 24 24 24 25 26 26 28 30 31 26 25 24 24 24 28 27 31 32 30 29 30 31 35 38 40 41 43 46 47 49 45 42 41
21 21 21 21 20 20 22 23 24 23 23 24 23 23 22 24 25 30 31 27 25 24 23 23 24 29 30 31 31 28 29 30 33 35 38 40 41 42 45 47 48 45 42
21 21 19 19 19 19 21 21 21 20 19 19 19 20 22 22 27 29 31 30 29 26 24 24 25 29 29 30 29 30 30 30 31 34 35 35 38 40 42 44 45 44 45
19 18 18 19 18 20 19 19 19 20 20 20 20 21 21 22 23 28 29 29 29 29 27 29 31 31 31 30 28 28 29 29 32 33 33 35 37 40 38 34 33 34 33
18 18 19 18 20 19 20 20 21 21 21 21 22 22 22 23 23 24 25 26 28 28 28 30 31 33 30 29 27 28 29 32 31 32 34 36 37 34 34 34 34 34 34
19 19 19 19 20 19 20 20 21 21 22 23 23 23 24 25 25 30 29 29 30 29 31 30 30 29 27 26 26 27 29 31 31 32 33 33 35 34 34 34 34 34 34
19 19 19 20 20 20 20 20 23 24 26 26 26 25 23 27 29 29 31 32 30 30 29 29 30 27 25 25 25 27 28 28 29 30 32 33 33 33 33 32 33 33 34
21 20 19 20 20 20 21 21 21 22 24 24 24 25 26 26 26 29 29 28 28 29 29 28 25 24 24 26 27 27 28 28 30 31 32 32 33 33 33 32 32 32 33
21 23 20 20 21 22 22 21 20 20 20 21 23 24 25 25 25 26 27 27 26 26 26 26 26 25 25 26 28 28 28 29 29 30 31 32 32 32 32 32 32 32 32
21 19 20 21 22 22 22 21 21 21 20 21 22 22 22 24 25 26 28 26 24 24 25 26 25 26 26 27 27 29 29 28 28 29 31 32 32 32 32 33 33 34 33
19 21 23 22 22 21 21 21 20 20 21 20 19 18 20 23 22 22 21 21 20 21 22 24 24 25 26 27 28 28 27 27 28 29 30 32 32 32 32 33 33 33 31
19 21 23 22 21 21 20 20 20 21 20 18 17 18 22 21 20 20 19 20 20 20 22 24 25 25 26 26 27 27 26 27 27 28 30 31 32 32 33 33 32 32 32
21 21 22 21 21 20 20 21 20 20 18 17 17 17 21 19 17 17 19 21 20 21 23 24 25 25 25 26 27 28 28 27 28 29 30 30 30 32 33 33 32 33 31
22 22 21 20 20 21 21 20 18 18 17 17 17 17 17 18 17 16 16 17 19 21 22 23 24 24 25 26 27 28 28 28 29 30 30 29 31 32 33 31 31 31 30
23 22 19 18 19 20 19 18 18 19 17 17 17 16 17 17 17 18 19 20 20 22 23 23 24 24 25 26 26 27 29 31 32 32 31 30 30 32 33 31 30 30 30
21 19 18 19 19 19 18 17 17 17 17 17 17 17 17 18 18 20 20 21 22 22 22 22 23 24 24 25 26 26 27 27 29 31 32 31 31 32 32 31 30 30 29
18 17 17 18 18 17 17 17 17 17 17 19 20 21 20 20 20 21 21 22 22 22 22 23 23 24 24 25 25 26 28 28 29 30 32 32 32 32 32 31 31 30 29

GFSGL_sfc_dewp_111.txt.gz
Dewpoint
30 30 27 30 32 31 30 30 31 33 32 32 32 33 33 35 37 39 39 41 42 44 45 46 47 48 49 51 52 54 57 57 54 55 55 57 55 55 55 56 56 56 57
31 28 28 27 26 24 23 23 22 23 23 23 23 24 25 27 31 33 34 34 36 37 38 41 43 45 47 48 48 48 49 50 53 54 55 53 54 54 55 55 55 55 56
24 23 24 24 25 24 24 24 23 21 21 20 20 20 21 23 24 26 28 29 31 32 34 37 39 41 42 42 44 46 48 49 49 49 53 53 53 51 51 52 53 53 53
24 24 24 23 23 24 24 22 19 17 18 19 19 19 19 19 20 25 26 27 27 29 31 32 33 37 37 40 41 43 44 44 47 47 48 48 47 47 49 47 46 46 49
22 22 22 21 20 19 19 18 18 18 18 18 18 18 19 20 17 28 28 26 26 26 28 26 30 35 38 40 38 40 41 41 42 43 45 46 45 45 45 47 47 46 45
20 19 19 17 17 18 18 16 17 18 18 18 19 19 20 17 28 29 30 29 26 26 27 29 30 33 33 35 38 39 39 38 39 39 41 43 45 47 47 46 45 41 40
20 18 17 16 17 18 18 17 18 19 20 20 21 21 21 21 27 29 32 29 28 29 30 30 29 25 33 29 33 35 36 37 38 37 39 41 44 46 48 45 45 43 44
20 18 17 18 18 19 20 20 20 20 20 21 23 22 23 23 27 29 31 30 29 30 30 29 28 27 29 31 31 31 31 31 33 34 35 37 41 43 43 44 47 46 42
19 18 19 19 20 20 20 21 21 22 23 24 23 24 25 25 28 29 30 30 29 27 25 25 25 25 28 31 29 30 28 29 31 34 36 37 38 41 42 43 42 43 41
19 20 20 20 20 20 21 22 23 23 24 25 24 26 25 25 26 28 29 27 25 23 23 23 28 26 28 30 28 25 25 25 28 29 30 32 35 37 41 41 43 42 42
20 20 21 20 19 19 21 23 24 24 24 24 23 22 21 22 22 27 29 27 26 26 24 24 23 27 29 30 30 28 28 28 28 27 28 30 32 34 36 40 42 42 42
20 20 18 18 18 17 20 21 21 19 18 19 19 19 21 21 25 26 28 29 29 26 25 25 26 30 31 31 31 31 30 29 27 27 29 30 31 33 34 36 38 41 43
18 17 17 17 18 18 18 18 19 19 20 20 20 21 21 22 23 27 28 28 29 27 27 29 31 30 30 30 31 30 28 27 28 28 28 29 31 33 34 36 37 36 36
17 17 17 18 18 19 19 19 20 20 21 20 20 22 23 23 23 24 26 27 29 29 30 30 30 31 30 29 29 27 27 28 27 27 28 30 30 31 32 35 36 37 35
17 17 18 18 18 18 19 19 20 21 21 22 24 24 24 23 23 26 26 26 27 30 30 29 29 28 28 29 27 27 27 27 27 27 26 27 28 30 31 34 35 35 33
18 18 18 19 19 19 20 20 24 24 26 26 26 25 23 26 26 27 29 29 30 29 26 26 27 27 27 26 25 25 26 26 27 27 26 28 29 30 30 32 33 33 32
19 19 20 20 19 19 21 21 21 23 24 24 25 25 25 25 26 27 27 28 28 28 27 26 26 27 26 26 26 25 25 27 28 28 27 27 29 31 31 31 32 32 32
19 23 21 20 20 21 22 23 23 22 21 21 23 23 24 24 24 24 26 25 26 26 25 24 25 26 26 25 25 25 25 26 27 26 26 26 29 30 30 31 32 32 32
20 20 19 21 22 23 23 23 22 22 21 21 22 22 22 23 23 24 24 21 22 20 21 22 23 23 24 24 25 26 25 26 25 25 26 26 27 30 30 31 32 34 33
20 21 22 21 21 22 21 22 21 21 21 22 20 20 20 22 22 20 19 20 20 20 20 22 22 23 24 24 25 25 25 25 25 25 25 26 27 30 29 31 32 31 32
19 19 22 22 21 21 21 21 21 22 22 20 19 20 22 20 21 19 18 18 19 22 23 22 22 23 24 24 25 25 25 25 25 26 26 26 28 28 29 31 32 32 32
20 20 21 21 21 21 20 21 22 21 20 19 19 19 21 19 19 18 18 18 19 19 21 22 22 22 23 23 24 24 23 23 26 26 26 27 27 28 29 30 31 31 31
21 21 21 22 20 20 21 20 20 19 19 18 18 18 19 19 19 18 18 18 19 21 21 22 22 22 23 24 25 26 25 24 24 27 28 28 28 28 29 29 31 30 30
22 21 21 19 18 20 20 20 20 20 19 18 18 18 18 19 20 20 21 22 22 22 22 22 22 23 23 23 24 25 25 26 27 27 26 27 28 28 29 30 31 30 29
22 21 20 19 19 20 19 18 18 18 18 18 18 18 19 21 21 22 22 23 23 23 22 23 23 23 23 23 23 24 25 26 26 27 27 29 29 30 30 31 31 30 29
22 20 19 19 19 18 18 18 17 18 18 19 20 21 21 22 22 23 23 24 24 24 23 24 24 24 24 23 23 25 27 28 29 30 29 30 29 30 31 30 30 29 28

GFSGL_sfc_dewp_114.txt.gz
Dewpoint
31 30 27 28 30 28 26 27 29 30 29 29 30 32 32 34 37 38 38 38 38 39 41 42 42 45 46 48 46 47 48 48 47 49 52 57 56 57 57 58 57 58 57
31 27 28 27 26 25 24 24 23 21 22 20 21 22 23 26 29 31 31 33 35 36 36 38 38 40 43 42 43 45 45 47 46 45 47 50 54 56 56 56 56 56 57
26 25 24 24 24 24 24 22 19 19 19 20 20 20 21 22 21 26 27 28 29 30 32 34 35 37 38 37 41 40 43 43 45 45 45 48 51 51 52 53 53 54 54
24 24 23 22 21 20 19 19 19 19 19 19 20 20 22 22 22 27 29 29 28 28 30 32 31 33 34 35 38 39 39 39 40 41 42 44 47 48 48 48 48 48 50
22 22 21 19 19 19 19 19 19 20 19 20 20 21 22 21 19 27 29 29 29 27 28 29 31 34 37 34 32 37 38 37 37 37 38 39 41 44 46 47 47 48 46
21 20 20 18 18 20 19 19 20 20 20 21 21 22 22 20 28 29 29 29 29 28 29 30 31 33 32 31 33 35 34 33 35 35 35 36 38 41 43 44 45 42 41
21 20 19 19 20 21 20 21 21 20 21 22 22 23 23 23 28 30 30 30 30 30 30 31 30 26 32 31 32 32 32 32 32 32 33 33 34 34 38 38 39 41 43
21 20 20 21 21 22 22 22 21 22 22 23 24 24 24 24 29 29 30 30 30 30 30 30 29 28 28 28 29 29 30 30 30 30 31 32 32 34 36 37 39 39 42
21 20 21 21 22 22 22 22 22 23 24 24 24 25 25 26 29 29 28 30 30 28 26 25 26 26 28 29 28 29 27 26 27 29 30 31 32 33 34 34 35 35 36
21 22 22 23 23 22 22 22 24 24 24 26 25 26 27 25 28 27 27 29 28 27 26 25 29 26 28 29 28 27 27 27 27 28 27 28 29 30 33 34 35 35 35
21 22 22 22 20 20 21 22 24 25 25 25 25 23 21 22 22 27 28 26 26 26 26 26 25 29 29 30 31 29 30 30 29 28 27 28 28 31 32 34 34 34 34
20 21 20 18 18 18 18 20 20 19 19 20 20 21 22 22 26 26 28 29 28 26 26 26 27 31 31 31 30 31 31 30 26 26 27 27 28 29 30 32 33 33 35
18 17 17 17 18 18 19 19 19 20 21 21 21 21 22 23 23 27 27 28 28 26 26 28 31 33 33 31 31 30 30 26 26 26 26 26 26 27 28 29 31 32 32
17 17 17 18 19 19 19 20 20 20 20 20 21 22 23 23 23 24 23 25 27 27 28 28 32 31 30 29 29 29 28 27 25 25 26 27 26 24 27 29 29 31 31
17 17 17 19 18 19 19 19 20 21 22 22 24 24 23 23 24 27 26 24 25 26 27 27 27 26 26 27 28 28 27 26 25 26 26 26 26 25 26 28 29 30 30
18 18 19 20 20 20 20 21 24 25 26 26 26 25 24 26 27 27 28 28 27 27 25 25 26 26 25 25 26 25 25 26 26 26 26 26 25 25 25 27 30 29 29
19 19 20 21 20 19 20 22 22 23 25 25 25 25 25 26 27 26 26 26 28 27 24 26 26 26 26 26 26 25 24 25 25 23 24 25 24 25 25 25 27 28 30
19 22 22 21 20 21 22 23 23 23 21 21 24 23 25 25 24 24 25 25 20 21 22 22 22 22 23 24 24 23 24 24 22 23 22 22 25 24 24 25 27 28 30
18 20 21 20 21 23 23 23 22 22 21 21 21 23 22 23 24 25 24 19 18 18 20 20 21 21 22 22 23 23 23 24 24 24 24 24 24 24 24 26 28 29 31
20 23 22 21 22 22 22 22 22 22 21 21 22 20 20 21 22 21 19 18 18 18 18 21 23 24 22 22 23 24 24 24 23 22 23 25 25 24 25 26 26 27 29
21 20 21 22 21 21 21 21 21 21 22 22 21 20 23 21 20 18 18 18 18 18 19 19 19 20 21 22 22 21 21 20 21 20 22 25 24 25 26 26 27 28 30
20 21 21 21 22 22 21 21 22 22 21 20 19 19 22 19 18 18 18 18 19 19 20 21 22 21 21 21 21 22 22 21 21 22 23 22 24 25 26 27 27 28 30
20 20 22 21 22 21 20 20 20 20 20 19 19 18 18 18 18 19 19 20 21 22 22 22 22 22 21 22 23 23 23 22 23 24 23 23 23 22 24 27 27 27 29
19 21 22 21 20 19 19 20 20 20 19 18 18 18 18 18 19 20 21 22 22 23 23 23 24 23 22 22 23 24 24 24 24 25 25 23 22 23 25 27 28 29 29
21 22 20 18 17 17 18 19 19 19 18 18 18 18 18 19 20 21 21 22 23 23 23 23 24 24 23 23 22 23 24 26 26 26 25 24 23 23 26 27 28 29 28
22 19 15 15 14 16 17 18 19 18 18 18 18 19 19 20 20 21 22 23 24 25 25 25 25 25 25 24 24 24 27 27 28 29 29 28 27 27 28 28 29 27 27

GFSGL_sfc_dewp_117.txt.gz
Dewpoint
30 29 27 28 29 27 25 25 25 26 26 25 26 27 27 27 32 32 33 33 36 38 38 40 39 40 45 42 42 45 44 45 43 44 47 49 49 49 52 56 59 59 59
30 27 26 26 25 24 22 20 19 19 20 20 20 21 22 24 27 29 30 31 31 31 32 36 36 35 39 38 40 40 41 43 42 40 42 44 46 49 51 51 55 57 58
25 24 23 21 21 19 19 19 19 19 19 19 20 20 22 23 26 28 29 30 30 30 30 31 33 34 33 35 38 38 39 38 40 39 39 42 45 47 48 50 50 51 53
24 23 21 19 18 18 19 19 19 19 19 20 21 22 23 22 24 28 29 29 30 30 31 32 32 32 32 34 34 36 38 38 38 37 37 38 40 41 45 45 45 48 48
22 22 19 18 18 19 19 19 20 21 20 21 22 22 23 22 22 27 28 29 29 29 30 30 31 34 35 31 31 35 34 33 35 35 34 35 35 38 37 39 39 41 43
21 20 19 18 19 20 20 20 21 21 21 22 22 23 23 22 28 30 29 29 30 29 29 30 31 33 31 30 32 32 31 31 31 31 32 32 32 33 35 35 36 36 38
21 20 18 19 20 22 21 22 21 21 22 22 23 24 24 24 29 30 31 29 30 30 30 30 29 27 32 29 30 29 30 29 29 30 30 29 30 31 32 32 33 34 35
21 20 20 21 21 22 22 22 21 22 23 23 24 24 24 24 29 29 30 29 30 30 30 29 27 28 28 29 29 29 29 29 30 29 29 30 31 31 31 31 32 33 35
22 20 21 21 21 22 21 21 22 23 23 23 25 25 25 26 30 29 27 28 29 29 28 26 27 26 29 31 27 28 27 28 30 32 32 32 31 31 31 31 31 31 29
22 22 21 22 21 20 21 20 22 23 23 25 25 25 27 24 27 28 27 26 27 27 27 27 30 28 30 30 28 28 27 28 29 29 29 28 29 29 31 32 32 32 31
22 22 22 21 20 19 19 20 22 22 22 22 22 22 21 23 24 28 28 25 25 26 27 27 27 30 31 31 32 31 30 30 30 29 26 27 27 28 30 31 32 31 29
21 21 20 18 18 18 18 19 19 19 20 20 21 21 22 22 26 27 28 28 27 25 24 25 27 30 30 32 32 32 32 30 28 26 25 26 26 26 27 28 28 28 29
18 17 17 17 17 18 18 19 19 19 20 20 21 21 22 24 24 27 28 28 28 26 25 27 29 29 31 30 30 29 29 27 26 25 25 25 26 27 27 25 27 28 29
17 16 17 17 19 19 19 19 19 20 20 20 20 22 23 23 23 24 25 28 29 27 28 28 30 29 29 28 28 27 28 28 26 25 25 26 26 23 24 25 25 26 28
16 16 17 18 18 19 19 19 20 21 22 22 24 24 24 24 24 27 27 26 26 26 27 27 26 26 25 26 26 27 28 26 25 25 25 25 26 25 26 25 25 25 26
17 18 19 20 20 20 20 20 24 25 26 26 27 25 24 26 27 27 27 26 26 27 25 25 23 25 26 26 26 26 26 26 25 25 24 23 23 24 24 23 25 23 23
18 19 20 21 21 20 20 21 21 23 25 26 25 25 26 25 26 25 25 26 27 25 19 20 21 22 22 23 23 25 23 24 24 22 16 17 21 22 23 22 22 23 23
19 22 21 22 21 20 21 22 22 22 22 21 23 24 25 25 24 24 25 24 20 19 19 19 20 21 21 21 22 22 22 22 20 20 18 17 19 22 21 21 22 22 22
19 19 20 21 20 22 22 22 22 22 21 21 21 23 23 24 24 25 24 20 19 18 18 18 19 20 22 23 22 21 21 20 21 20 17 14 19 20 22 23 23 25 25
18 22 23 21 21 22 22 21 21 21 21 21 21 22 21 21 22 21 19 18 18 18 18 19 19 19 20 19 19 20 21 21 20 18 18 18 20 21 22 23 23 23 24
20 21 23 21 21 21 21 21 21 21 21 22 22 21 23 21 20 18 18 18 18 19 20 21 21 20 20 20 20 20 19 19 19 19 18 19 20 22 22 23 23 24 25
21 21 21 21 21 22 21 21 21 20 20 21 20 20 22 19 19 18 18 19 20 21 22 24 23 22 22 22 21 21 20 19 19 20 20 20 21 21 21 22 22 22 25
22 21 21 21 22 22 21 19 19 20 20 20 20 19 19 19 18 18 19 20 21 22 23 24 24 23 23 24 23 22 21 20 21 22 22 21 21 21 20 19 20 22 24
21 21 21 21 21 20 19 18 19 20 19 19 18 18 18 18 18 19 20 21 22 22 23 24 25 24 24 24 24 23 23 23 23 23 22 22 21 21 21 21 22 23 25
21 21 21 22 19 17 17 18 18 19 19 18 18 18 18 18 19 19 20 21 22 23 24 25 26 26 25 24 24 23 24 26 26 25 24 23 22 21 21 22 23 24 26
21 21 21 19 15 16 15 16 17 18 18 19 19 18 18 18 19 20 20 22 23 24 24 25 27 28 28 28 27 26 28 28 28 29 28 27 26 25 25 25 25 26 27

GFSGL_sfc_dewp_120.txt.gz
Dewpoint
28 27 26 26 27 25 22 21 22 23 24 25 26 27 26 28 31 31 31 32 32 33 36 38 37 39 41 39 42 42 42 44 40 41 42 43 43 45 48 49 50 52 54
29 27 25 24 22 20 19 19 19 19 20 20 21 22 22 24 29 30 30 31 31 31 32 33 34 36 36 36 39 39 40 40 38 36 38 40 40 44 45 43 48 49 51
25 24 22 20 19 18 18 18 19 19 20 20 21 22 22 23 27 28 29 30 30 30 31 31 32 32 32 33 37 36 38 38 39 37 36 38 40 41 41 43 41 44 43
24 23 20 18 18 18 18 19 20 20 20 21 22 23 23 22 24 27 29 29 30 30 31 32 32 31 32 33 32 36 34 34 35 35 35 35 37 38 36 36 35 37 38
23 23 20 18 18 19 19 20 21 21 21 22 22 23 23 22 25 28 28 29 29 29 30 30 30 33 34 30 34 33 33 33 33 32 32 32 32 32 32 33 32 34 35
22 21 20 18 18 20 21 21 21 21 22 22 23 24 23 23 30 31 30 29 29 29 29 30 30 31 31 32 31 30 30 29 30 30 29 29 29 30 31 32 32 30 29
22 21 19 18 20 21 21 21 21 21 22 22 23 23 23 24 29 30 30 28 28 29 29 29 28 26 30 29 31 30 29 29 29 29 28 28 28 29 30 30 29 29 29
23 22 20 21 20 21 21 21 20 22 22 22 23 24 24 24 30 30 29 28 29 29 29 28 27 27 28 29 29 29 29 29 30 29 29 29 30 31 31 30 30 31 31
23 21 21 21 21 21 20 20 20 22 22 22 24 24 24 24 29 28 28 27 27 28 28 28 28 28 30 31 28 29 27 28 30 32 32 33 32 30 31 30 29 28 27
24 22 22 22 21 20 20 20 20 21 22 24 23 23 24 22 28 28 28 25 25 25 26 27 30 28 30 30 28 28 27 28 28 29 30 31 28 29 30 30 29 28 26
24 23 22 21 20 19 19 19 20 20 20 20 21 21 21 23 24 28 28 25 25 25 27 25 26 28 28 29 31 30 32 34 32 30 29 27 26 27 28 29 29 27 26
22 21 20 19 18 17 18 18 19 19 19 20 20 20 21 22 26 27 28 28 27 25 24 25 26 29 30 30 29 31 30 29 29 27 26 24 25 25 25 26 27 27 28
19 18 17 16 17 18 18 19 19 19 19 19 20 20 22 23 24 28 28 29 29 27 26 27 29 29 30 29 30 29 29 26 26 26 26 25 24 25 26 25 26 26 26
17 16 16 17 17 19 19 19 19 19 20 20 21 22 23 24 24 24 25 27 30 27 29 29 29 28 28 27 26 27 27 27 27 27 27 27 26 22 25 26 24 26 24
16 16 17 17 19 18 19 19 19 21 22 22 23 24 24 23 24 27 26 27 26 26 28 29 26 25 24 25 25 26 27 27 27 27 27 24 24 26 25 24 25 23 22
16 17 18 19 20 20 20 19 23 25 25 26 27 25 24 26 26 27 26 26 27 28 25 20 19 20 21 22 22 23 24 25 24 24 24 23 23 23 22 23 23 21 21
17 18 19 21 20 20 20 20 20 22 25 25 24 25 25 25 25 25 25 26 26 24 19 19 19 20 20 22 22 21 21 23 24 22 21 19 19 18 23 20 20 20 21
19 22 20 20 21 21 21 21 22 22 21 21 23 24 25 25 24 24 25 24 20 19 19 19 19 19 19 20 21 22 22 22 21 20 19 17 18 18 19 20 19 20 21
19 20 20 21 21 21 22 22 22 22 21 21 22 22 23 25 24 25 24 20 18 18 18 19 19 19 20 20 20 20 19 19 20 21 17 15 13 12 18 19 20 23 23
19 22 21 21 21 22 22 22 21 21 20 21 21 22 22 22 22 21 19 19 18 18 19 19 20 20 20 20 20 19 19 19 19 18 17 16 15 14 18 18 19 21 21
19 19 23 23 21 21 22 21 21 21 20 20 22 22 23 22 20 19 18 18 18 19 20 21 21 22 22 21 21 21 20 19 19 19 18 17 17 17 18 20 21 19 20
19 20 21 21 21 21 21 22 21 20 19 20 20 20 22 20 19 19 18 19 19 20 21 23 23 23 23 23 23 22 21 19 19 19 19 19 19 19 19 20 19 20 19
21 21 21 21 22 22 23 20 19 19 20 19 20 19 19 19 19 18 18 19 20 21 22 23 23 23 23 24 25 24 22 21 21 21 20 20 20 20 20 19 19 19 19
22 21 21 21 22 22 20 19 19 19 19 19 19 18 18 18 18 18 19 20 20 21 22 23 24 24 25 25 26 26 25 24 24 23 22 21 19 20 20 20 20 20 21
22 21 21 21 21 21 19 19 18 18 18 19 18 18 18 18 18 18 19 19 20 21 22 23 25 25 26 27 28 29 28 29 27 25 23 22 20 20 20 21 20 20 21
23 22 21 21 19 19 18 17 17 17 17 18 18 17 18 18 18 18 18 19 21 22 22 24 25 28 29 30 32 33 34 33 31 31 29 27 25 23 23 23 22 22 23

GFSGL_sfc_dewp_123.txt.gz
Dewpoint
29 27 25 24 24 21 19 19 20 22 22 23 24 26 26 29 31 31 30 31 31 32 34 36 37 38 38 38 41 40 40 41 39 40 40 40 39 40 41 42 45 46 48
28 28 24 22 19 18 18 18 19 19 20 21 22 22 23 25 29 30 30 30 30 30 31 33 33 30 33 35 39 36 37 38 37 35 37 37 37 39 40 40 39 40 42
26 24 22 19 18 17 17 18 19 20 20 21 22 22 23 23 26 28 29 29 29 29 31 31 31 31 31 33 33 35 35 35 36 35 33 35 35 36 34 35 34 35 35
27 24 22 19 17 17 18 19 20 21 21 21 22 23 24 23 25 28 28 29 28 29 30 31 31 31 32 31 34 32 32 31 32 31 32 32 33 33 33 31 30 33 32
25 24 22 19 17 18 19 20 21 21 21 22 23 23 23 23 25 29 28 28 28 28 29 29 30 31 32 32 32 31 30 29 30 30 29 30 29 29 29 30 30 31 30
24 23 23 19 18 19 20 20 20 21 22 22 22 23 23 22 31 31 29 28 28 28 28 28 29 29 30 31 32 31 29 27 28 27 28 27 27 28 30 31 30 28 27
23 22 21 19 19 20 20 20 20 20 22 22 22 23 23 23 30 30 30 28 27 28 28 28 27 26 30 28 31 32 32 31 30 28 27 27 27 28 29 28 28 29 29
24 23 22 20 20 21 20 20 19 20 21 22 22 23 23 24 30 29 30 27 27 27 28 28 27 27 29 30 29 28 29 29 29 29 29 29 30 30 31 30 30 30 29
25 23 22 22 21 21 20 19 19 21 21 21 23 23 22 23 29 29 28 26 26 25 26 27 28 28 30 30 28 28 28 28 30 32 33 33 33 34 30 29 27 26 24
25 24 22 22 21 20 19 19 19 21 22 23 22 22 24 22 27 28 28 25 25 24 25 28 28 26 28 28 27 27 29 30 29 30 31 30 32 28 30 28 27 26 25
25 24 23 22 21 20 19 19 19 20 20 20 21 21 21 22 24 28 28 25 25 25 25 25 25 28 29 29 30 28 29 29 30 32 31 29 29 27 26 27 28 26 24
24 22 21 20 18 18 18 18 19 19 18 19 19 20 21 22 26 28 29 29 28 26 25 25 26 29 30 28 28 29 29 28 27 26 26 25 25 25 25 24 26 26 27
21 20 19 17 17 17 17 18 18 18 19 19 20 20 21 23 24 28 29 29 30 27 27 27 28 29 29 28 28 27 27 26 25 25 25 25 25 24 25 24 25 26 25
18 17 17 16 17 17 19 19 19 19 19 19 21 22 23 23 24 24 25 26 30 29 28 27 29 28 26 25 24 26 26 27 26 27 27 28 28 23 23 24 22 24 24
17 16 16 17 19 19 19 19 19 19 21 21 23 24 24 23 24 27 25 25 26 26 27 28 24 21 20 21 23 24 26 26 26 26 25 24 23 23 24 24 22 22 22
16 15 17 18 19 19 19 19 23 25 26 27 27 26 24 26 27 26 26 26 26 28 25 21 19 19 20 20 21 22 23 22 22 24 23 22 22 21 21 21 22 22 21
17 17 17 20 19 20 20 20 19 21 25 26 25 25 25 26 26 26 25 26 27 25 20 19 19 19 19 20 20 20 20 21 23 21 20 17 18 18 20 20 21 21 19
18 21 19 20 21 21 21 21 21 22 21 21 23 24 25 25 25 25 25 25 21 19 20 19 19 19 20 20 20 20 21 21 20 20 18 17 14 17 17 17 18 18 18
19 20 22 21 22 22 21 22 22 22 21 21 22 22 23 24 25 25 25 21 19 18 18 19 20 20 20 20 20 20 20 20 20 20 19 18 17 15 16 16 18 20 21
19 22 22 20 21 22 22 22 21 21 21 21 20 20 22 22 22 22 20 19 19 18 19 19 20 21 22 22 21 21 20 20 19 19 18 18 16 15 15 16 17 16 17
22 21 24 22 21 22 22 22 21 21 21 20 20 21 23 22 21 19 18 18 18 19 20 21 21 22 22 23 22 22 21 20 20 20 19 19 18 16 17 17 17 18 19
21 20 20 23 23 22 22 22 22 21 20 19 19 20 22 20 19 19 19 18 19 20 21 22 22 23 23 23 23 23 22 21 21 21 20 19 18 18 18 18 18 18 18
22 21 20 21 21 22 22 23 21 20 19 19 19 20 20 19 19 18 18 18 19 20 21 22 23 22 23 24 25 25 24 23 23 24 22 20 19 19 19 18 18 18 18
22 21 20 21 21 21 22 22 20 21 20 19 19 19 18 18 18 18 18 19 19 20 21 21 23 23 24 25 26 27 28 27 27 26 24 22 20 19 20 20 20 19 20
21 21 21 21 21 22 22 22 20 19 18 18 19 19 18 18 18 17 17 18 18 19 20 21 22 24 25 26 28 29 30 33 33 30 26 23 22 20 19 19 20 20 20
23 22 22 22 22 21 21 20 19 18 17 18 18 17 17 17 17 17 17 17 18 19 19 21 22 24 26 28 29 31 34 35 34 35 32 26 23 21 21 21 21 21 21